Date StartTime U_cm/s V_cm/s W_cm/s Ustd_cm/s Vstd_cm/s Wstd_cm/s Uvar_(cm/s)^2 Vvar_(cm/s)^2 Wvar_(cm/s)^2 KE_(m/s)^2 TurbulentKE_(m/s)^2 HorizWindSpeed_cm/s FrictionSpeec_cm/s DragCoef SpeedOfSound_m/s SonicTemperature_C Pressure_mb 
12/02/2013  00:00:00     -111.681      -35.623       -9.357       23.443       22.065       14.135      549.575      486.867      199.803        0.753        0.062      117.224       12.349        0.011      334.261        4.119      867.742
12/02/2013  00:01:00      -75.226      -49.240       -7.584       29.514       20.043       13.430      871.094      401.721      180.354        0.480        0.073       89.908       15.719        0.031      334.202        4.019      867.737
12/02/2013  00:02:00      -27.528      -59.139       -5.123       21.813       18.526        8.934      475.793      343.203       79.811        0.259        0.045       65.232        6.243        0.009      334.389        4.330      867.738
12/02/2013  00:03:00      -41.761      -77.385      -10.214       10.623       12.691        8.921      112.853      161.051       79.589        0.409        0.018       87.934        3.880        0.002      334.596        4.674      867.725
12/02/2013  00:04:00      -33.820      -47.091        7.327       26.445       18.802       22.838      699.363      353.532      521.589        0.249        0.079       57.977       14.469        0.062      334.544        4.587      867.697
12/02/2013  00:05:00      -38.897      -21.551       -4.645       22.607       18.729       18.269      511.054      350.760      333.739        0.160        0.060       44.468       12.732        0.082      334.501        4.517      867.673
12/02/2013  00:06:00      -52.664      -34.051       -0.077       24.424       20.494       13.787      596.548      419.989      190.089        0.257        0.060       62.713       12.799        0.042      334.319        4.213      867.657
12/02/2013  00:07:00     -107.156      -41.942       -8.578       21.038       12.860       10.614      442.597      165.381      112.649        0.702        0.036      115.072        9.755        0.007      334.212        4.035      867.661
12/02/2013  00:08:00     -146.954      -44.721      -17.049       18.918       18.506       15.368      357.879      342.465      236.161        1.241        0.047      153.608        7.455        0.002      334.282        4.153      867.666
12/02/2013  00:09:00     -114.152      -52.141      -16.476       23.421       17.763       12.250      548.549      315.538      150.055        0.852        0.051      125.497        7.766        0.004      334.428        4.395      867.656
12/02/2013  00:10:00      -94.778      -15.669      -11.793       17.386       22.954       10.388      302.273      526.885      107.920        0.515        0.047       96.065        9.411        0.010      334.410        4.364      867.617
12/02/2013  00:11:00     -109.061       26.654      -16.968       12.920       11.573        7.701      166.920      133.925       59.306        0.663        0.018      112.270        6.079        0.003      334.488        4.493      867.565
12/02/2013  00:12:00      -93.698       58.595      -20.869       19.352       30.872       13.323      374.509      953.068      177.515        0.708        0.075      110.511       17.253        0.024      334.639        4.745      867.532
12/02/2013  00:13:00      -86.029       32.183      -17.891       12.086       40.966       13.735      146.083     1678.202      188.663        0.538        0.101       91.852       17.642        0.037      334.478        4.478      867.509
12/02/2013  00:14:00     -112.638      -50.276      -17.310       24.823       22.876       11.700      616.164      523.296      136.890        0.840        0.064      123.349        8.296        0.005      334.088        3.829      867.522
12/02/2013  00:15:00     -161.259     -114.433      -16.342       49.769       36.757       29.164     2476.958     1351.041      850.563        2.202        0.234      197.736       24.864        0.016      333.908        3.529      867.567
12/02/2013  00:16:00     -226.140      -52.685      -15.840       44.562       38.909       25.912     1985.815     1513.925      671.434        2.917        0.209      232.196       18.173        0.006      333.924        3.553      867.625
12/02/2013  00:17:00     -160.499      -34.474       -1.426       50.485       50.669       29.855     2548.772     2567.382      891.298        1.648        0.300      164.160       30.902        0.035      333.913        3.539      867.646
12/02/2013  00:18:00     -129.002      -48.001       -3.865       56.020       34.278       23.091     3138.241     1174.971      533.189        1.190        0.242      137.643       28.082        0.042      333.984        3.658      867.625
12/02/2013  00:19:00     -151.159      -81.876       -0.961       58.790       53.677       30.741     3456.285     2881.181      945.009        1.842        0.364      171.909       30.938        0.032      334.178        3.979      867.611
12/02/2013  00:20:00     -167.327      -47.762       -4.393       48.309       28.696       22.050     2333.779      823.432      486.187        1.697        0.182      174.011       20.891        0.014      334.210        4.030      867.597
12/02/2013  00:21:00      -83.378      -24.959        2.301       38.663       23.362       18.171     1494.811      545.770      330.185        0.497        0.119       87.034       19.495        0.050      334.298        4.179      867.534
12/02/2013  00:22:00     -155.368      -31.393       -5.522       33.422       29.485       20.707     1117.018      869.336      428.787        1.378        0.121      158.508       17.534        0.012      334.184        3.989      867.567
12/02/2013  00:23:00     -125.412      -39.856       -6.553       20.342       34.856       16.807      413.809     1214.950      282.469        0.964        0.096      131.593       13.189        0.010      334.234        4.072      867.592
12/02/2013  00:24:00     -151.733      -30.858       -4.979       52.529       35.605       27.208     2759.244     1267.727      740.287        1.438        0.238      154.839       29.413        0.036      334.140        3.916      867.582
12/02/2013  00:25:00     -155.924      -87.898       -2.178       59.462       49.558       29.756     3535.783     2456.018      885.428        1.946        0.344      178.992       28.251        0.025      334.113        3.869      867.608
12/02/2013  00:26:00     -157.159      -65.562       -5.233       43.380       41.926       28.527     1881.828     1757.791      813.790        1.674        0.223      170.286       18.019        0.011      334.135        3.907      867.610
12/02/2013  00:27:00     -123.304       -3.974       -0.416       41.117       34.132       22.209     1690.586     1165.021      493.244        0.928        0.167      123.368       22.831        0.034      334.120        3.884      867.574
12/02/2013  00:28:00      -42.235       56.475       -8.964       36.531       35.018       21.338     1334.487     1226.245      455.295        0.403        0.151       70.521       18.684        0.070      334.199        4.013      867.466
12/02/2013  00:29:00     -100.372        8.636      -11.963       39.857       69.427       17.064     1588.557     4820.154      291.178        0.849        0.335      100.743       19.063        0.036      334.213        4.038      867.422
12/02/2013  00:30:00     -144.085      -91.210        0.693       56.355       50.107       37.164     3175.936     2510.681     1381.191        1.807        0.353      170.528       33.285        0.038      333.987        3.662      867.497
12/02/2013  00:31:00     -168.110      -61.111       -7.939       49.790       31.483       22.042     2479.031      991.208      485.863        1.801        0.198      178.873       25.064        0.020      334.137        3.910      867.519
12/02/2013  00:32:00      -98.038       10.016       -7.685       47.721       27.120       17.138     2277.316      735.478      293.710        0.654        0.165       98.549       19.060        0.037      334.093        3.839      867.465
12/02/2013  00:33:00      -91.890        6.256      -12.455       39.553       34.002       14.118     1564.403     1156.115      199.332        0.578        0.146       92.103       11.423        0.015      334.189        3.997      867.369
12/02/2013  00:34:00     -164.454     -101.782       -8.868       81.354       48.666       33.610     6618.394     2368.390     1129.620        2.380        0.506      193.403       37.951        0.039      333.953        3.604      867.394
12/02/2013  00:35:00      -79.333      -11.472       -0.602       73.179       39.386       30.926     5355.130     1551.258      956.431        0.714        0.393       80.158       33.532        0.175      333.870        3.468      867.399
12/02/2013  00:36:00      -92.994      -27.248       -3.055       47.494       45.947       23.315     2255.639     2111.172      543.602        0.715        0.246       96.903       24.765        0.065      333.842        3.422      867.350
12/02/2013  00:37:00     -143.327      -44.350       -6.642       31.312       22.751       15.972      980.436      517.628      255.097        1.215        0.088      150.032       15.855        0.011      333.854        3.442      867.305
12/02/2013  00:38:00      -64.694      -34.648        0.491       45.421       35.310       16.234     2063.038     1246.787      263.532        0.448        0.179       73.388       19.158        0.068      333.870        3.468      867.289
12/02/2013  00:39:00      -97.612      -29.055      -10.575       47.911       25.511       19.833     2295.456      650.821      393.328        0.691        0.167      101.844       20.108        0.039      333.884        3.492      867.286
12/02/2013  00:40:00     -118.016      -29.016       -4.582       53.027       24.479       17.231     2811.893      599.224      296.908        0.925        0.185      121.530       22.467        0.034      333.899        3.516      867.271
12/02/2013  00:41:00      -43.412      -33.965        7.487       57.414       13.390       15.378     3296.335      179.297      236.469        0.340        0.186       55.121       25.063        0.207      334.024        3.723      867.245
12/02/2013  00:42:00     -225.879      -33.916      -14.559       56.153       37.301       27.243     3153.127     1391.401      742.184        2.883        0.264      228.411       18.730        0.007      333.827        3.393      867.324
12/02/2013  00:43:00     -112.682       44.034       -1.025      104.382       33.410       26.506    10895.530     1116.244      702.558        1.367        0.636      120.980       35.459        0.086      334.002        3.685      867.335
12/02/2013  00:44:00       30.597      -36.147       11.045       23.069       19.516       17.581      532.188      380.877      309.109        0.179        0.061       47.358        6.803        0.021      334.233        4.071      867.263
12/02/2013  00:45:00      -52.794       -4.273       -4.681       55.126       20.802       12.178     3038.868      432.708      148.304        0.322        0.181       52.967       19.747        0.139      334.310        4.199      867.247
12/02/2013  00:46:00     -131.994       32.714      -22.170       38.977       36.003       14.607     1519.187     1296.230      213.353        1.101        0.151      135.988       13.083        0.009      334.020        3.717      867.239
12/02/2013  00:47:00      -51.385       71.317        6.137       44.022       54.978       37.470     1937.914     3022.587     1404.028        0.706        0.318       87.901       31.819        0.131      333.923        3.558      867.196
12/02/2013  00:48:00      -20.056       32.096       -0.875       29.392       26.567       25.028      863.908      705.829      626.403        0.181        0.110       37.847        9.991        0.070      334.043        3.756      867.166
12/02/2013  00:49:00      -35.390       14.270       -8.325       14.826       20.952       11.122      219.824      438.976      123.704        0.115        0.039       38.159        9.153        0.058      334.183        3.988      867.173
12/02/2013  00:50:00      -16.084       11.593       -0.386       17.481        7.627        9.714      305.585       58.173       94.366        0.043        0.023       19.826        7.675        0.150      334.231        4.068      867.192
12/02/2013  00:51:00      -36.893       29.035      -15.401       12.695       17.508        9.051      161.165      306.524       81.922        0.150        0.027       46.948        7.659        0.027      334.200        4.017      867.229
12/02/2013  00:52:00       16.688        7.578        2.655       18.879       10.180        7.808      356.431      103.627       60.965        0.043        0.026       18.327        4.689        0.065      334.238        4.081      867.222
12/02/2013  00:53:00       56.032       26.505       22.376       19.222       13.435       16.707      369.483      180.502      279.139        0.259        0.041       61.985       11.841        0.036      333.900        3.519      867.175
12/02/2013  00:54:00       70.828       27.536       18.563       36.623       30.327       21.447     1341.217      919.733      459.981        0.442        0.136       75.992       13.285        0.031      333.696        3.181      867.120
12/02/2013  00:55:00       35.029        6.252       -6.877       18.421       13.454       11.634      339.336      181.014      135.349        0.098        0.033       35.583        8.940        0.063      333.652        3.107      867.143
12/02/2013  00:56:00        6.803       -8.882       -8.613        4.906       11.633        6.182       24.064      135.330       38.221        0.020        0.010       11.188        5.455        0.238      333.893        3.508      867.168
12/02/2013  00:57:00       14.506       33.070        4.631       10.300       11.665       10.839      106.097      136.073      117.482        0.084        0.018       36.112        7.289        0.041      334.022        3.721      867.167
12/02/2013  00:58:00      -77.586       43.219      -16.998       39.735       28.492       11.637     1578.843      811.803      135.415        0.535        0.126       88.811        9.707        0.012      334.012        3.704      867.154
12/02/2013  00:59:00      -71.867        2.104      -13.594       32.612       23.080       13.131     1063.530      532.667      172.428        0.356        0.088       71.898        9.143        0.016      333.501        2.857      867.150
12/02/2013  01:00:00       50.494       44.489       -2.404       29.437       22.484       17.792      866.537      505.508      316.559        0.311        0.084       67.297        8.075        0.014      333.941        3.587      867.110
12/02/2013  01:01:00       22.041       30.981       -5.405       28.166       28.470       17.708      793.318      810.547      313.581        0.170        0.096       38.021       13.069        0.118      334.051        3.770      867.108
12/02/2013  01:02:00      -29.466       35.659       -7.818       17.024       51.064       17.470      289.806     2607.543      305.206        0.270        0.160       46.258       25.745        0.310      334.127        3.895      867.127
12/02/2013  01:03:00       26.948       24.072        4.483       30.921       23.127       11.703      956.079      534.877      136.952        0.148        0.081       36.134       10.497        0.084      334.073        3.807      867.104
12/02/2013  01:04:00      -15.663       55.120      -11.237       37.083       21.889       12.246     1375.158      479.142      149.957        0.271        0.100       57.303       12.388        0.047      334.283        4.154      867.071
12/02/2013  01:05:00     -101.649       -2.241      -17.003       17.415       14.588       11.803      303.280      212.798      139.312        0.564        0.033      101.674        7.879        0.006      333.648        3.102      867.093
12/02/2013  01:06:00      -71.441       10.623      -13.315       18.810       14.293       11.376      353.811      204.303      129.411        0.304        0.034       72.227        7.840        0.012      333.814        3.375      867.083
12/02/2013  01:07:00      -43.698       14.419       -9.709       20.839       17.064       13.862      434.263      291.164      192.159        0.156        0.046       46.015        8.829        0.037      333.942        3.589      867.039
12/02/2013  01:08:00      -58.998      -25.293      -17.204       29.000       28.422       12.773      841.023      807.820      163.157        0.311        0.091       64.191       10.515        0.027      334.009        3.700      867.009
12/02/2013  01:09:00     -108.661      -17.696      -21.630       15.145       12.230        7.583      229.366      149.580       57.508        0.651        0.022      110.092        5.377        0.002      333.565        2.964      866.976
12/02/2013  01:10:00     -154.045       -8.567      -27.412       15.983       13.265        7.773      255.456      175.966       60.415        1.252        0.025      154.283        5.616        0.001      333.557        2.950      866.926
12/02/2013  01:11:00     -108.824      -25.214      -12.503       28.422       17.355       13.517      807.794      301.207      182.709        0.696        0.065      111.706       14.755        0.017      333.651        3.105      866.898
12/02/2013  01:12:00     -110.055       -8.634      -19.239        8.692       10.692        7.900       75.554      114.320       62.412        0.640        0.013      110.393        2.666        0.001      334.025        3.724      866.881
12/02/2013  01:13:00     -101.119      -13.464      -20.681       16.261       15.817       10.160      264.433      250.166      103.234        0.573        0.031      102.011        9.207        0.008      333.935        3.577      866.859
12/02/2013  01:14:00     -114.819      -26.503      -13.011       16.500       15.664       12.176      272.261      245.362      148.263        0.736        0.033      117.838        8.693        0.005      333.694        3.175      866.847
12/02/2013  01:15:00      -77.041      -13.712      -11.796       33.115       26.745       15.005     1096.571      715.299      225.142        0.415        0.102       78.252       12.696        0.026      333.556        2.947      866.845
12/02/2013  01:16:00     -105.422       33.020      -21.702       28.982       35.466       20.040      839.938     1257.808      401.619        0.759        0.125      110.472       16.656        0.023      333.962        3.620      866.821
12/02/2013  01:17:00      -99.689      -53.161       -8.701       59.452       38.698       22.626     3534.531     1497.531      511.938        0.919        0.277      112.978       25.456        0.051      333.534        2.910      866.839
12/02/2013  01:18:00       -6.818      -31.073       -5.163       32.454       25.507       21.009     1053.248      650.616      441.397        0.159        0.107       31.813       14.765        0.215      333.510        2.872      866.826
12/02/2013  01:19:00      -13.312        6.286        0.105       16.358       16.019        9.536      267.584      256.600       90.944        0.042        0.031       14.722        7.448        0.256      334.014        3.708      866.785
12/02/2013  01:20:00      -89.234      -41.010      -17.771       26.698       34.594       10.492      712.782     1196.742      110.088        0.599        0.101       98.206       10.591        0.012      333.851        3.436      866.810
12/02/2013  01:21:00     -120.373      -64.114      -15.057       22.014       16.839       16.666      484.634      283.567      277.759        0.994        0.052      136.383       13.224        0.009      333.546        2.929      866.855
12/02/2013  01:22:00      -69.722      -26.466       -7.939       34.726       30.076       20.089     1205.915      904.564      403.565        0.407        0.126       74.576       21.023        0.079      333.644        3.093      866.852
12/02/2013  01:23:00      -69.284      -32.827      -13.389       11.883       15.254        7.904      141.212      232.686       62.476        0.325        0.022       76.668        7.327        0.009      333.876        3.479      866.852
12/02/2013  01:24:00      -63.016      -31.614       -4.367       23.706       12.212       13.444      561.956      149.143      180.751        0.294        0.045       70.501       14.829        0.044      333.836        3.412      866.851
12/02/2013  01:25:00      -85.270      -22.432      -15.272       12.347       10.403        6.403      152.440      108.227       41.000        0.415        0.015       88.172        7.848        0.008      333.983        3.656      866.823
12/02/2013  01:26:00      -63.194      -34.440      -10.849       13.397       12.761        7.930      179.476      162.855       62.878        0.285        0.020       71.969        4.847        0.005      333.977        3.646      866.793
12/02/2013  01:27:00      -70.589      -20.976      -12.197       16.543       13.215        5.875      273.661      174.636       34.513        0.303        0.024       73.639        7.092        0.009      334.089        3.832      866.763
12/02/2013  01:28:00     -107.498      -19.618      -14.973        5.869       13.447        5.422       34.440      180.835       29.395        0.620        0.012      109.274        4.961        0.002      333.980        3.652      866.739
12/02/2013  01:29:00      -89.465      -50.353       -9.375       10.152       10.915        6.656      103.061      119.127       44.303        0.545        0.013      102.662        5.122        0.002      333.956        3.612      866.724
12/02/2013  01:30:00      -73.832      -44.137       -7.460        9.831        7.058        5.878       96.649       49.810       34.546        0.382        0.009       86.019        1.536        0.000      334.048        3.765      866.711
12/02/2013  01:31:00     -125.176      -37.046      -11.359       33.237       12.860        9.209     1104.669      165.386       84.800        0.926        0.068      130.543       11.925        0.008      333.842        3.423      866.713
12/02/2013  01:32:00     -108.555       -1.157      -15.944       31.385       19.256       10.664      985.015      370.808      113.719        0.675        0.073      108.561        9.701        0.008      333.743        3.258      866.696
12/02/2013  01:33:00        9.367        5.830       19.802       36.494       45.426       37.616     1331.789     2063.527     1414.970        0.266        0.241       11.033       41.573       14.199      334.102        3.853      866.613
12/02/2013  01:34:00        2.816      113.867      114.422       33.395       50.808       36.665     1115.202     2581.478     1344.299        1.555        0.252      113.902       28.743        0.064      333.835        3.409      866.553
12/02/2013  01:35:00      -13.808       10.963       39.554       39.095       62.480       43.691     1528.388     3903.804     1908.882        0.461        0.367       17.631       50.037        8.054      333.961        3.621      866.607
12/02/2013  01:36:00      -87.598        0.198       -2.215       61.994       36.210       27.918     3843.294     1311.162      779.419        0.680        0.297       87.599       27.671        0.100      333.802        3.356      866.685
12/02/2013  01:37:00     -137.543       39.759      -20.485       48.890       44.716       27.399     2390.209     1999.521      750.721        1.303        0.257      143.174       24.427        0.029      333.583        2.993      866.691
12/02/2013  01:38:00       -1.771       17.882       -4.705       45.644       22.614       14.541     2083.346      511.377      211.430        0.158        0.140       17.969       13.327        0.550      333.858        3.449      866.656
12/02/2013  01:39:00       15.952      -26.428        9.490       16.609       19.490        8.451      275.846      379.870       71.425        0.088        0.036       30.869        3.169        0.011      334.070        3.800      866.618
12/02/2013  01:40:00       19.263       23.401        5.053       10.522        8.612       11.382      110.719       74.168      129.548        0.063        0.016       30.310        5.663        0.035      333.957        3.616      866.643
12/02/2013  01:41:00       34.783       26.700        3.307        8.887        8.380       11.526       78.972       70.228      132.858        0.111        0.014       43.849        5.361        0.015      333.803        3.357      866.675
12/02/2013  01:42:00       -4.658       15.142       -7.331        8.407        9.405        6.103       70.672       88.456       37.241        0.025        0.010       15.842        5.390        0.116      333.836        3.410      866.689
12/02/2013  01:43:00       -5.301       35.963        2.738       23.422        9.491        9.149      548.580       90.080       83.709        0.103        0.036       36.351       10.708        0.087      334.180        3.983      866.681
12/02/2013  01:44:00       31.806       57.987       -7.203       10.114       14.068        7.976      102.286      197.915       63.612        0.239        0.018       66.137        7.142        0.012      334.140        3.918      866.659
12/02/2013  01:45:00       74.992       44.676        6.799       25.172       20.513       14.240      633.617      420.787      202.781        0.446        0.063       87.292       11.881        0.019      333.769        3.300      866.648
12/02/2013  01:46:00       45.968       36.884       44.244       40.149       23.190       27.201     1611.941      537.781      739.890        0.416        0.144       58.936       29.114        0.244      333.503        2.860      866.655
12/02/2013  01:47:00      -13.161       14.277       27.833       23.244       33.204       27.088      540.303     1102.501      733.757        0.176        0.119       19.418       27.122        1.951      333.663        3.126      866.704
12/02/2013  01:48:00      -81.862       -3.745      -13.744       25.100       15.958       14.326      630.023      254.665      205.242        0.400        0.054       81.948       14.522        0.031      333.652        3.106      866.779
12/02/2013  01:49:00      -68.880       29.157       -8.399       38.072       13.260       10.655     1449.500      175.819      113.528        0.370        0.087       74.797        8.270        0.012      333.506        2.866      866.790
12/02/2013  01:50:00       64.197       42.006       12.614       41.724       31.386       15.818     1740.875      985.055      250.222        0.451        0.149       76.719       15.736        0.042      333.532        2.908      866.735
12/02/2013  01:51:00      129.144       67.161       17.312       31.710       23.774       28.342     1005.549      565.215      803.265        1.193        0.119      145.563       19.694        0.018      333.545        2.931      866.713
12/02/2013  01:52:00        2.105       23.738       38.277       29.844       34.212       26.208      890.636     1170.467      686.862        0.239        0.137       23.832       25.534        1.148      333.466        2.798      866.717
12/02/2013  01:53:00      -77.924       -0.074      -11.275       42.439       14.881       15.250     1801.102      221.440      232.568        0.423        0.113       77.924       19.076        0.060      333.554        2.944      866.727
12/02/2013  01:54:00     -104.004        1.951      -12.307       31.617       18.721       17.793      999.659      350.481      316.580        0.632        0.083      104.022       17.957        0.030      333.330        2.573      866.750
12/02/2013  01:55:00      -28.991        2.383       -5.183       26.977        7.219        7.302      727.734       52.108       53.316        0.085        0.042       29.089        5.861        0.041      333.459        2.788      866.726
12/02/2013  01:56:00       51.456       49.372       46.893       33.122       48.038       41.076     1097.069     2307.687     1687.224        0.619        0.255       71.311       43.527        0.373      333.594        3.011      866.669
12/02/2013  01:57:00       26.063       81.998       79.165       35.093       36.901       15.587     1231.530     1361.708      242.947        0.825        0.142       86.041       20.221        0.055      333.634        3.076      866.653
12/02/2013  01:58:00       -3.876       21.188       48.199       11.848       31.540       19.917      140.374      994.769      396.688        0.216        0.077       21.540       21.048        0.955      333.639        3.085      866.674
12/02/2013  01:59:00      -40.217       -5.529        2.205       34.834       17.100       11.192     1213.419      292.398      125.258        0.164        0.082       40.595        9.088        0.050      333.708        3.201      866.699
12/02/2013  02:00:00      -97.181       11.363       -8.033       12.009       12.359        8.533      144.217      152.737       72.807        0.500        0.018       97.843        4.828        0.002      333.581        2.989      866.672
12/02/2013  02:01:00      -76.325       -0.919       -7.068       17.438       22.029       12.324      304.071      485.258      151.872        0.341        0.047       76.330       10.740        0.020      333.408        2.703      866.644
12/02/2013  02:02:00      -21.978       11.768       -7.640       14.906        8.588        7.112      222.201       73.760       50.576        0.051        0.017       24.930        7.712        0.096      333.499        2.854      866.592
12/02/2013  02:03:00       19.336       11.651        4.714        9.732       11.074        8.211       94.709      122.644       67.419        0.041        0.014       22.575        6.105        0.073      333.754        3.278      866.538
12/02/2013  02:04:00      -12.509       -9.200       -1.538       11.890        7.936        6.864      141.381       62.983       47.116        0.025        0.013       15.528        7.509        0.234      333.779        3.319      866.546
12/02/2013  02:05:00      -45.278       39.316      -10.212       14.276       26.638       10.748      203.801      709.571      115.520        0.236        0.051       59.965       12.919        0.046      333.632        3.076      866.553
12/02/2013  02:06:00       15.834       65.701       -3.148       20.852       21.992       17.440      434.813      483.629      304.160        0.290        0.061       67.582        7.347        0.012      333.918        3.548      866.518
12/02/2013  02:07:00       40.263       13.251        3.781       20.852       14.462       13.302      434.819      209.162      176.948        0.132        0.041       42.387        7.836        0.034      333.657        3.117      866.481
12/02/2013  02:08:00       22.453       17.976        4.828       23.102        9.341       11.418      533.696       87.246      130.366        0.080        0.038       28.763       11.783        0.168      333.586        3.000      866.426
12/02/2013  02:09:00      -97.909        7.502      -12.485       39.479       16.477       10.257     1558.604      271.502      105.216        0.587        0.097       98.196       10.257        0.011      333.661        3.122      866.455
12/02/2013  02:10:00     -132.011       -3.081      -17.371       55.605       35.127       29.273     3091.906     1233.898      856.932        1.146        0.259      132.047       33.802        0.066      333.380        2.657      866.477
12/02/2013  02:11:00      -68.346      -19.474       -3.056       59.541       36.920       24.001     3545.146     1363.057      576.052        0.527        0.274       71.066       28.245        0.158      333.071        2.148      866.466
12/02/2013  02:12:00        1.950      -26.391       19.544       26.058       23.523       18.699      679.029      553.322      349.642        0.133        0.079       26.463       16.127        0.371      333.214        2.381      866.466
12/02/2013  02:13:00       17.564        1.210       21.965       28.498       27.439       26.019      812.118      752.900      676.973        0.152        0.112       17.606       18.143        1.062      333.410        2.706      866.416
12/02/2013  02:14:00       -8.661       39.599       56.901       13.800       28.298       16.112      190.445      800.790      259.594        0.307        0.063       40.535       18.827        0.216      333.503        2.859      866.390
12/02/2013  02:15:00       -1.698       45.010       48.898       19.979       24.856       25.135      399.156      617.844      631.765        0.303        0.082       45.042       20.156        0.200      333.569        2.969      866.362
12/02/2013  02:16:00       13.835        0.249        0.014       13.283       11.970        5.797      176.447      143.291       33.606        0.027        0.018       13.837        1.729        0.016      333.639        3.085      866.324
12/02/2013  02:17:00      -34.616      -53.887      -10.362       38.549       29.233       18.722     1485.989      854.544      350.526        0.345        0.135       64.047       12.897        0.041      333.717        3.215      866.325
12/02/2013  02:18:00      -72.480      -80.897        2.507       57.147       50.775       33.900     3265.734     2578.087     1149.219        0.940        0.350      108.617       31.639        0.085      333.489        2.837      866.347
12/02/2013  02:19:00      -35.684      -11.292       -0.312       34.324       24.618        8.105     1178.116      606.064       65.695        0.163        0.092       37.428        5.705        0.023      333.757        3.280      866.311
12/02/2013  02:20:00       52.129       39.479       11.473       30.302       21.989       14.004      918.219      483.522      196.107        0.300        0.080       65.391       12.545        0.037      333.721        3.220      866.260
12/02/2013  02:21:00      -29.336       40.938      -11.207       26.233       28.705       13.625      688.153      823.949      185.632        0.218        0.085       50.364       15.240        0.092      333.673        3.141      866.264
12/02/2013  02:22:00      -35.053       -6.852       -7.730       21.721       11.367        8.465      471.801      129.208       71.658        0.100        0.034       35.717        5.652        0.025      333.694        3.176      866.289
12/02/2013  02:23:00       -1.744        3.276        0.253        6.365       16.052        5.816       40.515      257.655       33.822        0.017        0.017        3.711        5.985        2.601      333.646        3.097      866.271
12/02/2013  02:24:00       12.137       38.388        5.051       10.737        7.155        9.771      115.294       51.194       95.465        0.095        0.013       40.261        4.970        0.015      333.630        3.071      866.243
12/02/2013  02:25:00      -68.054       47.093      -15.286       33.153       22.207       16.688     1099.126      493.168      278.481        0.448        0.094       82.759       16.251        0.039      333.655        3.113      866.235
12/02/2013  02:26:00      -61.912       24.038      -13.973       41.024       20.383       11.279     1682.982      415.462      127.223        0.342        0.111       66.414        4.739        0.005      333.612        3.041      866.225
12/02/2013  02:27:00       64.028       43.368       28.368       52.271       40.358       52.119     2732.212     1628.760     2716.384        0.693        0.354       77.333       48.801        0.398      333.809        3.367      866.147
12/02/2013  02:28:00       39.431      -82.148       20.062       54.117       93.344       64.502     2928.598     8713.084     4160.559        1.225        0.790       91.121       73.327        0.648      333.768        3.300      866.154
12/02/2013  02:29:00      -75.919      -16.735      -15.710       41.928       45.235       22.959     1757.930     2046.190      527.108        0.531        0.217       77.742       24.395        0.098      333.841        3.421      866.198
12/02/2013  02:30:00      -79.511       40.026      -11.756       46.043       34.419       23.454     2119.915     1184.676      550.112        0.596        0.193       89.017       14.164        0.025      333.426        2.733      866.147
12/02/2013  02:31:00      -17.985       30.120        0.635       17.789       23.434       16.489      316.450      549.144      271.899        0.118        0.057       35.081       12.087        0.119      333.718        3.217      866.055
12/02/2013  02:32:00      -71.080      -42.760      -11.407       46.705       39.773       19.804     2181.381     1581.893      392.203        0.558        0.208       82.951       11.302        0.019      333.586        2.996      866.061
12/02/2013  02:33:00      -86.940      -54.850       -8.786       38.641       33.764       15.535     1493.090     1139.978      241.351        0.676        0.144      102.796       16.407        0.025      333.365        2.632      866.066
12/02/2013  02:34:00      -27.046       18.626       -5.115       11.773       17.481        7.391      138.601      305.600       54.629        0.080        0.025       32.839        7.760        0.056      333.459        2.786      866.029
12/02/2013  02:35:00      -16.316       10.684       -5.311       17.052       26.856       12.663      290.777      721.235      160.349        0.079        0.059       19.503       13.196        0.458      333.838        3.415      866.021
12/02/2013  02:36:00      -23.165      -59.406       -4.572       46.714       37.735       26.628     2182.223     1423.895      709.047        0.420        0.216       63.763       27.577        0.187      333.657        3.115      866.061
12/02/2013  02:37:00      -66.012      -45.490        1.157       46.299       36.012       26.670     2143.594     1296.834      711.311        0.529        0.208       80.168       24.230        0.091      333.576        2.981      866.044
12/02/2013  02:38:00      -13.733        5.089        9.746       29.447       14.002       10.197      867.116      196.046      103.980        0.074        0.058       14.646       14.158        0.935      333.479        2.821      866.001
12/02/2013  02:39:00      -11.623       -3.783       -0.703       11.166        8.615        7.201      124.687       74.212       51.856        0.020        0.013       12.223        8.092        0.438      333.555        2.946      865.974
12/02/2013  02:40:00      -54.011      -11.749       -8.998       14.926        7.522        6.893      222.792       56.580       47.508        0.173        0.016       55.274        2.963        0.003      333.787        3.332      865.943
12/02/2013  02:41:00      -87.555        0.101      -10.683       31.599       19.426       13.875      998.492      377.366      192.519        0.467        0.078       87.555       15.782        0.032      333.462        2.791      865.919
12/02/2013  02:42:00      -13.652        0.601       -5.759       46.264       11.441       10.792     2140.313      130.894      116.477        0.130        0.119       13.665       16.858        1.522      333.440        2.757      865.867
12/02/2013  02:43:00       57.434       11.357        4.787       24.246       20.234       15.948      587.846      409.430      254.347        0.235        0.063       58.546       12.521        0.046      333.492        2.841      865.802
12/02/2013  02:44:00      -11.434       -2.487       13.557       11.365       20.199       16.370      129.172      407.989      267.985        0.056        0.040       11.701       14.260        1.485      333.391        2.675      865.798
12/02/2013  02:45:00     -105.743      -18.524      -15.220       50.270       51.982       17.075     2527.078     2702.138      291.554        0.864        0.276      107.354       11.451        0.011      333.217        2.388      865.750
12/02/2013  02:46:00     -118.260      -79.794       -0.563       62.174       47.193       32.532     3865.581     2227.141     1058.361        1.375        0.358      142.662       27.880        0.038      333.112        2.213      865.738
12/02/2013  02:47:00     -147.361      -82.633        0.009       75.146       53.538       34.767     5646.939     2866.315     1208.713        1.913        0.486      168.948       38.314        0.051      333.132        2.246      865.761
12/02/2013  02:48:00       19.238       -2.851       24.587       22.458       27.958       10.582      504.380      781.670      111.969        0.119        0.070       19.448        8.571        0.194      333.081        2.164      865.702
12/02/2013  02:49:00       14.891       26.923       11.839       12.313       24.031       18.342      151.622      577.478      336.413        0.108        0.053       30.767        6.878        0.050      333.341        2.591      865.667
12/02/2013  02:50:00      -10.552       37.086       -4.095       19.587       14.554       10.834      383.638      211.807      117.369        0.111        0.036       38.558       10.851        0.079      333.770        3.303      865.617
12/02/2013  02:51:00      -48.443        5.461      -10.615       29.324       43.844       11.910      859.879     1922.306      141.845        0.271        0.146       48.750        7.434        0.023      333.778        3.315      865.619
12/02/2013  02:52:00       -3.098      -73.067      -14.820       23.564       47.500       21.967      555.265     2256.206      482.550        0.443        0.165       73.133       20.455        0.078      333.444        2.763      865.654
12/02/2013  02:53:00       35.949       25.890       34.016       31.322       47.387       29.073      981.042     2245.482      845.230        0.359        0.204       44.301       29.443        0.442      333.548        2.933      865.585
12/02/2013  02:54:00      -79.411       44.506      -15.828       75.343       21.347       20.938     5676.525      455.714      438.405        0.755        0.329       91.033       31.976        0.123      333.645        3.095      865.546
12/02/2013  02:55:00     -150.334      -81.292      -14.759       55.974       46.880       26.804     3133.092     2197.779      718.463        1.774        0.302      170.905       22.142        0.017      333.228        2.403      865.607
12/02/2013  02:56:00      -49.097      -23.833       16.092       59.753       35.228       29.653     3570.381     1241.028      879.299        0.446        0.285       54.576       31.982        0.343      333.255        2.451      865.592
12/02/2013  02:57:00       -7.723      -56.058        1.104       19.084       25.559       18.385      364.213      653.242      338.005        0.228        0.068       56.588       15.643        0.076      333.691        3.172      865.527
12/02/2013  02:58:00      -30.860      -21.065       17.330       57.327       37.686       25.720     3286.399     1420.206      661.527        0.353        0.268       37.364       33.338        0.796      333.644        3.094      865.523
12/02/2013  02:59:00      139.133       71.516       18.640       46.861       27.720       36.591     2195.938      768.419     1338.868        1.456        0.215      156.437       29.590        0.036      333.682        3.157      865.428
12/02/2013  03:00:00       80.036       35.280       32.750       68.018       53.154       38.874     4626.420     2825.365     1511.187        0.884        0.448       87.467       32.847        0.141      333.902        3.522      865.392
12/02/2013  03:01:00     -125.715      -45.440        0.246       98.492       51.658       24.550     9700.676     2668.519      602.694        1.542        0.649      133.676       21.090        0.025      333.568        2.966      865.484
12/02/2013  03:02:00     -225.179      -49.051      -14.900       86.247       60.209       44.646     7438.478     3625.122     1993.240        3.319        0.653      230.459       39.353        0.029      333.371        2.637      865.566
12/02/2013  03:03:00     -144.780       38.471      -14.739       53.156       38.328       23.263     2825.567     1469.073      541.167        1.375        0.242      149.804       22.478        0.023      333.463        2.796      865.528
12/02/2013  03:04:00     -113.737      112.913      -23.015       44.967       41.547       23.269     2022.046     1726.165      541.454        1.525        0.214      160.266       23.574        0.022      333.767        3.297      865.487
12/02/2013  03:05:00      -73.152       35.541       -0.635       32.977       21.874       24.031     1087.493      478.467      577.477        0.438        0.107       81.329       11.033        0.018      334.199        4.014      865.460
12/02/2013  03:06:00       10.017        7.520       -3.444       12.658        6.755        5.794      160.217       45.633       33.569        0.020        0.012       12.525        5.118        0.167      334.788        4.991      865.401
12/02/2013  03:07:00      -91.883       13.624      -10.074       43.009       15.873        8.988     1849.812      251.948       80.788        0.546        0.109       92.888       10.324        0.012      334.513        4.534      865.423
12/02/2013  03:08:00        3.209      -50.640       -5.004       57.858       20.121       17.703     3347.590      404.845      313.404        0.333        0.203       50.741        9.844        0.038      333.930        3.569      865.481
12/02/2013  03:09:00       19.084       87.167       92.476       39.065       61.945       54.501     1526.036     3837.203     2970.367        1.242        0.417       89.232       53.669        0.362      333.867        3.463      865.309
12/02/2013  03:10:00      -15.877       38.599       44.306       26.611       51.568       43.476      708.146     2659.273     1890.122        0.448        0.263       41.737       35.356        0.718      333.753        3.275      865.234
12/02/2013  03:11:00     -128.114       71.622      -24.035       34.114       27.480       22.956     1163.793      755.134      527.000        1.228        0.122      146.775       18.844        0.016      333.547        2.934      865.330
12/02/2013  03:12:00       79.253       70.637        1.803       84.750       37.443       23.293     7182.553     1402.004      542.573        1.020        0.456      106.163       15.548        0.021      333.786        3.328      865.282
12/02/2013  03:13:00      110.369      106.684       60.425       60.831       58.439       45.557     3700.389     3415.084     2075.433        1.820        0.460      153.502       45.693        0.089      333.751        3.270      865.151
12/02/2013  03:14:00      -64.013       32.825       -8.583       92.505       26.109       21.668     8557.179      681.702      469.520        0.748        0.485       71.938       32.412        0.203      333.761        3.287      865.222
12/02/2013  03:15:00     -135.989      -36.194       -4.552       97.841       59.480       37.009     9572.807     3537.895     1369.656        1.715        0.724      140.723       42.236        0.090      333.489        2.835      865.272
12/02/2013  03:16:00      -50.417      -95.934        8.708      109.191       50.673       40.941    11922.700     2567.794     1676.206        1.399        0.808      108.375       51.726        0.228      333.723        3.224      865.289
12/02/2013  03:17:00      -27.175      -13.164       10.786       89.105       62.830       24.895     7939.732     3947.564      619.739        0.677        0.625       30.196       38.164        1.597      333.849        3.432      865.261
12/02/2013  03:18:00       -5.957       42.975       93.784       39.718       98.347       56.260     1577.552     9672.162     3165.146        1.254        0.721       43.385       65.542        2.282      333.864        3.460      865.215
12/02/2013  03:19:00       10.174      -61.253       -5.572       73.504       79.088       25.593     5402.900     6254.958      655.015        0.810        0.616       62.092       21.539        0.120      333.962        3.621      865.276
12/02/2013  03:20:00      -17.228      -14.298        5.366       18.898       17.088       13.593      357.121      292.006      184.763        0.068        0.042       22.388        8.566        0.146      333.810        3.369      865.262
12/02/2013  03:21:00      -73.865       -8.235      -12.472       41.573       21.141       11.218     1728.337      446.949      125.838        0.399        0.115       74.323       12.329        0.028      333.718        3.216      865.302
12/02/2013  03:22:00      -52.323       -1.457       -2.921       81.534       26.391       18.269     6647.835      696.476      333.757        0.521        0.384       52.343       32.959        0.396      333.751        3.270      865.308
12/02/2013  03:23:00      167.062       75.545       18.657       45.013       39.401       37.680     2026.142     1552.413     1419.760        1.948        0.250      183.348       20.538        0.013      333.949        3.599      865.081
12/02/2013  03:24:00     -122.953      -58.360       -3.939      136.801       52.566       40.972    18714.428     2763.162     1678.695        2.084        1.158      136.101       54.527        0.161      333.943        3.588      865.066
12/02/2013  03:25:00     -140.568      -61.774       -1.410       95.598       39.288       19.796     9138.943     1543.524      391.879        1.732        0.554      153.543       34.044        0.049      333.966        3.627      865.193
12/02/2013  03:26:00      -10.448      -12.886       16.876       44.062       45.812       23.647     1941.495     2098.776      559.184        0.258        0.230       16.590       24.079        2.107      333.854        3.442      865.111
12/02/2013  03:27:00     -183.374     -110.168        0.962       82.190       50.796       31.063     6755.190     2580.219      964.930        2.803        0.515      213.923       17.405        0.007      334.130        3.896      865.184
12/02/2013  03:28:00      -95.242      -28.589        0.138       74.380       58.806       25.997     5532.341     3458.150      675.839        0.978        0.483       99.440       25.302        0.065      333.862        3.455      865.236
12/02/2013  03:29:00        5.937       -4.135       -9.215       19.233       13.230       12.034      369.898      175.041      144.806        0.041        0.034        7.236       12.531        2.999      334.199        4.014      865.105
12/02/2013  03:30:00      -41.183       40.631        4.264       49.827       38.591       23.868     2482.729     1489.249      569.691        0.395        0.227       57.852       29.016        0.252      334.147        3.928      865.081
12/02/2013  03:31:00       70.905       65.297        3.416       32.546       19.382       19.821     1059.263      375.668      392.892        0.557        0.091       96.391       17.431        0.033      333.967        3.630      865.014
12/02/2013  03:32:00       37.675       10.539        5.489       39.349       54.403       12.478     1548.339     2959.738      155.712        0.311        0.233       39.121       16.422        0.176      334.139        3.916      864.976
12/02/2013  03:33:00      -26.800      -56.633       -2.810       40.207       48.526       34.859     1616.583     2354.787     1215.179        0.456        0.259       62.654       33.573        0.287      334.037        3.744      865.031
12/02/2013  03:34:00      -75.989     -177.653       -0.265       72.928      105.814       44.700     5318.517    11196.649     1998.096        2.792        0.926      193.223       54.584        0.080      333.990        3.665      865.037
12/02/2013  03:35:00       60.270       75.971       24.058       42.045       69.818       47.925     1767.770     4874.497     2296.769        0.946        0.447       96.975       41.034        0.179      334.081        3.817      864.883
12/02/2013  03:36:00     -146.669       90.348      -24.107       76.315       45.316       32.393     5823.918     2053.555     1049.282        1.959        0.446      172.263       17.890        0.011      334.320        4.213      864.948
12/02/2013  03:37:00     -112.278      140.196      -19.353       96.029       93.068       41.688     9221.587     8661.627     1737.911        2.612        0.981      179.614       55.925        0.097      333.835        3.406      865.054
12/02/2013  03:38:00       -4.153      -73.721        0.962       52.817       40.308       23.744     2789.633     1624.710      563.772        0.521        0.249       73.837       14.870        0.041      334.016        3.712      865.022
12/02/2013  03:39:00     -123.497       43.270      -20.103       31.918       45.931       14.568     1018.779     2109.652      212.217        1.043        0.167      130.858       14.397        0.012      334.224        4.057      864.945
12/02/2013  03:40:00      -90.602      124.795      -22.018       26.458       25.324       18.755      700.003      641.283      351.751        1.298        0.085      154.216       11.273        0.005      334.672        4.797      864.925
12/02/2013  03:41:00      -52.452      -26.966        4.019       62.986       51.614       35.253     3967.268     2664.041     1242.764        0.568        0.394       58.978       37.968        0.414      334.167        3.961      864.971
12/02/2013  03:42:00       30.174       -7.470        4.802       31.182       54.988       29.255      972.286     3023.709      855.833        0.292        0.243       31.084       36.082        1.347      333.986        3.662      864.953
12/02/2013  03:43:00       31.370       93.498       -6.302       43.610       41.477       21.253     1901.835     1720.369      451.686        0.692        0.204       98.620       29.557        0.090      334.456        4.441      864.850
12/02/2013  03:44:00       -4.350      180.734      -20.937       17.627       32.509       14.141      310.712     1056.813      199.968        1.734        0.078      180.786       10.973        0.004      334.435        4.404      864.835
12/02/2013  03:45:00      -43.672       28.276      -19.680       29.224       72.719       18.369      854.053     5288.069      337.407        0.479        0.324       52.027       12.093        0.054      334.405        4.356      864.914
12/02/2013  03:46:00     -124.671      -52.870       -3.810       30.614       28.454       19.560      937.208      809.634      382.576        1.024        0.106      135.418       13.747        0.010      333.917        3.547      864.916
12/02/2013  03:47:00        1.208      -26.166        6.745       32.264       20.764       16.107     1040.981      431.161      259.433        0.123        0.087       26.194       16.892        0.416      333.847        3.430      864.818
12/02/2013  03:48:00     -128.283      -14.173      -21.878       31.918       18.682       14.612     1018.757      349.002      213.519        0.936        0.079      129.064       15.440        0.014      333.872        3.470      864.819
12/02/2013  03:49:00     -107.033      -43.927      -17.005       58.675       21.244       12.097     3442.719      451.308      146.344        0.886        0.202      115.696        9.050        0.006      333.752        3.273      864.937
12/02/2013  03:50:00       26.246      -24.830       12.135       35.891       49.866       23.811     1288.151     2486.606      566.953        0.290        0.217       36.130       29.588        0.671      333.873        3.473      864.909
12/02/2013  03:51:00       34.379       67.092       73.632       48.979       29.963       34.671     2398.942      897.771     1202.045        0.780        0.225       75.388       38.407        0.260      334.046        3.761      864.836
12/02/2013  03:52:00       31.377       60.272       28.935       27.153       20.788       30.908      737.283      432.131      955.294        0.379        0.106       67.950       26.288        0.150      334.092        3.837      864.808
12/02/2013  03:53:00       24.232       88.780      -17.871       21.250       24.576       16.228      451.553      603.982      263.363        0.505        0.066       92.028       13.909        0.023      334.135        3.907      864.770
12/02/2013  03:54:00      -26.705      125.885      -21.022       20.439       23.060       12.074      417.751      531.744      145.790        0.905        0.055      128.686       10.904        0.007      334.576        4.639      864.767
12/02/2013  03:55:00       13.507      166.245      -25.905       19.629       30.627       14.206      385.290      938.031      201.801        1.501        0.076      166.793       17.363        0.011      334.950        5.261      864.763
12/02/2013  03:56:00       34.284       75.557       -8.158       32.579       82.389       29.880     1061.392     6788.002      892.825        0.784        0.437       82.972       40.878        0.243      335.050        5.427      864.768
12/02/2013  03:57:00       27.358        9.307       -0.427       32.613       28.588       19.057     1063.615      817.284      363.158        0.154        0.112       28.898       17.558        0.369      334.556        4.606      864.736
12/02/2013  03:58:00       -7.894      -49.414       -6.057       42.665       33.965       22.397     1820.294     1153.590      501.620        0.301        0.174       50.040       23.064        0.212      334.242        4.086      864.732
12/02/2013  03:59:00     -123.006       -6.867      -11.852       31.691       21.968       18.527     1004.294      482.594      343.260        0.857        0.092      123.198       15.196        0.015      333.955        3.609      864.801
12/02/2013  04:00:00      -12.444        7.249       -1.127       34.295       25.647        8.475     1176.135      657.768       71.831        0.106        0.095       14.401        6.808        0.223      334.491        4.500      864.776
12/02/2013  04:01:00       -0.310       99.743      -20.815        8.926       18.039        6.917       79.677      325.408       47.844        0.542        0.023       99.744        5.389        0.003      335.543        6.248      864.740
12/02/2013  04:02:00       34.618       80.473        2.519       53.663       63.280       25.738     2879.691     4004.299      662.458        0.761        0.377       87.603       25.086        0.082      335.521        6.212      864.658
12/02/2013  04:03:00       87.141       56.198       57.188       56.147       58.007       44.902     3152.530     3364.837     2016.202        1.128        0.427      103.690       52.710        0.258      334.753        4.932      864.593
12/02/2013  04:04:00       -5.959       77.047       79.415       18.222       52.583       55.612      332.024     2764.965     3092.639        0.923        0.309       77.277       50.186        0.422      334.548        4.592      864.550
12/02/2013  04:05:00     -103.179       -7.436      -12.572       64.040       57.226       31.011     4101.183     3274.802      961.654        0.960        0.417      103.447       32.258        0.097      333.984        3.658      864.584
12/02/2013  04:06:00      -97.102        7.093       -3.204       76.038       30.425       29.246     5781.760      925.676      855.357        0.852        0.378       97.361       36.812        0.143      333.778        3.315      864.587
12/02/2013  04:07:00     -111.766      -45.352      -11.414       55.814       25.348       17.191     3115.245      642.534      295.524        0.937        0.203      120.617       19.948        0.027      333.976        3.644      864.610
12/02/2013  04:08:00      -57.773      -47.361       11.390       77.726       48.631       24.462     6041.264     2364.933      598.378        0.736        0.450       74.705       35.895        0.231      334.130        3.899      864.640
12/02/2013  04:09:00      -11.680       50.899       -9.926       47.634       18.478       15.152     2268.987      341.444      229.594        0.283        0.142       52.222       19.310        0.137      335.111        5.529      864.603
12/02/2013  04:10:00       36.366       59.413       50.415       56.486       40.063       43.355     3190.626     1605.023     1879.686        0.703        0.334       69.659       42.670        0.375      334.575        4.640      864.553
12/02/2013  04:11:00       43.916      -73.714        1.722       34.224       50.563       29.557     1171.283     2556.579      873.603        0.598        0.230       85.804       34.501        0.162      334.958        5.273      864.487
12/02/2013  04:12:00       23.507       18.650        9.684       29.389       37.417       13.487      863.696     1400.044      181.888        0.172        0.122       30.006       14.972        0.249      335.504        6.183      864.481
12/02/2013  04:13:00      147.616       90.412       19.307       56.551       34.445       20.093     3198.053     1186.432      403.736        1.756        0.239      173.104       31.784        0.034      335.781        6.642      864.449
12/02/2013  04:14:00       25.039      -10.949       41.027      126.747      106.305       52.414    16064.827    11300.840     2747.214        1.627        1.506       27.328       59.627        4.761      335.333        5.896      864.450
12/02/2013  04:15:00      -96.450     -117.268       -0.660       58.441       75.106       33.211     3415.331     5640.912     1102.968        1.661        0.508      151.837       36.302        0.057      334.941        5.245      864.495
12/02/2013  04:16:00       11.218       39.537       41.104       56.861       64.420       39.246     3233.182     4149.902     1540.230        0.615        0.446       41.098       43.852        1.138      334.843        5.083      864.442
12/02/2013  04:17:00      -42.917       42.154        2.398       47.462       50.513       38.815     2252.623     2551.603     1506.638        0.497        0.316       60.156       31.950        0.282      334.747        4.925      864.366
12/02/2013  04:18:00      -77.376       37.647       -9.953       15.237       19.164       15.026      232.161      367.242      225.781        0.416        0.041       86.049       12.976        0.023      334.745        4.920      864.408
12/02/2013  04:19:00      -66.613      -27.292      -12.432       27.691       25.939       13.656      766.776      672.849      186.484        0.348        0.081       71.987       11.155        0.024      334.497        4.510      864.459
12/02/2013  04:20:00       41.891       12.160       36.728       48.933       55.879       38.444     2394.411     3122.412     1477.931        0.512        0.350       43.621       43.021        0.973      334.916        5.203      864.382
12/02/2013  04:21:00      -12.381       35.852       19.461       63.735       36.297       32.736     4062.146     1317.446     1071.614        0.413        0.323       37.929       27.157        0.513      335.021        5.380      864.356
12/02/2013  04:22:00      -72.150      112.963      -27.156       57.319       42.599       19.125     3285.504     1814.668      365.761        1.208        0.273      134.038       25.237        0.035      335.069        5.459      864.343
12/02/2013  04:23:00       78.816       48.376       11.358       48.703       45.242       24.747     2372.007     2046.846      612.405        0.686        0.252       92.478       28.634        0.096      335.245        5.750      864.279
12/02/2013  04:24:00      -36.437      -36.044       -6.592       42.246       38.961       25.760     1784.709     1517.939      663.577        0.332        0.198       51.252       24.960        0.237      335.192        5.663      864.287
12/02/2013  04:25:00      -57.371       45.220       -9.231       68.414       20.838       18.209     4680.501      434.241      331.576        0.543        0.272       73.050       26.788        0.134      334.829        5.060      864.270
12/02/2013  04:26:00       67.062       53.318       12.751       63.401       27.337       31.087     4019.624      747.323      966.430        0.662        0.287       85.675       21.684        0.064      335.000        5.345      864.171
12/02/2013  04:27:00      -69.348        5.277       -2.771       40.912       21.247       19.659     1673.781      451.423      386.466        0.368        0.126       69.548       20.848        0.090      334.880        5.145      864.209
12/02/2013  04:28:00      -76.369      -16.771      -15.816       41.734       16.499       13.119     1741.742      272.228      172.120        0.427        0.109       78.189       13.268        0.029      334.637        4.740      864.217
12/02/2013  04:29:00       87.535       31.842        4.990       37.633       33.923       18.764     1416.253     1150.760      352.091        0.581        0.146       93.147       13.080        0.020      335.279        5.807      864.174
12/02/2013  04:30:00       10.953       12.387       15.062       36.157       21.726       25.970     1307.359      472.032      674.434        0.148        0.123       16.535       18.456        1.246      334.923        5.217      864.121
12/02/2013  04:31:00      -54.452      -34.084       -9.478       20.800       22.718        9.364      432.651      516.121       87.685        0.263        0.052       64.240        8.574        0.018      335.081        5.478      864.160
12/02/2013  04:32:00      -55.219        1.380      -16.703       43.174       14.009        9.863     1864.027      196.246       97.271        0.274        0.108       55.236       16.527        0.090      335.383        5.981      864.144
12/02/2013  04:33:00      -37.562       -0.847       -0.935       44.253       20.035       11.154     1958.332      401.393      124.407        0.195        0.124       37.571       12.267        0.107      335.335        5.901      864.106
12/02/2013  04:34:00       36.192        9.984       16.386       30.695       22.598       22.998      942.160      510.675      528.919        0.183        0.099       37.544       20.780        0.306      335.807        6.686      864.040
12/02/2013  04:35:00      -54.440      -28.818       -2.557       55.701       37.283       21.880     3102.639     1390.056      478.716        0.439        0.249       61.597       23.421        0.145      335.548        6.257      864.048
12/02/2013  04:36:00      -23.019       28.823       -5.777       80.071       27.159       23.607     6411.433      737.636      557.280        0.455        0.385       36.887       29.980        0.661      335.148        5.590      864.030
12/02/2013  04:37:00       31.809       -0.434       25.606       35.783       42.786       31.677     1280.412     1830.652     1003.453        0.289        0.206       31.812       35.488        1.244      334.889        5.159      863.994
12/02/2013  04:38:00       41.586       53.602       64.443       44.206       31.744       23.128     1954.167     1007.663      534.927        0.613        0.175       67.842       17.864        0.069      334.876        5.139      863.969
12/02/2013  04:39:00       41.451        2.100       29.495       34.330       32.294       22.512     1178.525     1042.900      506.775        0.266        0.136       41.504       21.944        0.280      335.192        5.662      863.933
12/02/2013  04:40:00       12.553      -40.277      -11.390       31.842       24.291       24.948     1013.898      590.033      622.403        0.207        0.111       42.188       23.147        0.301      335.327        5.889      863.946
12/02/2013  04:41:00      -20.836      -14.353      -13.267       34.748       29.951       13.976     1207.428      897.088      195.335        0.156        0.115       25.301       12.823        0.257      334.972        5.298      863.940
12/02/2013  04:42:00       44.619       40.539       42.654       39.855       47.182       28.978     1588.430     2226.174      839.740        0.505        0.233       60.285       31.033        0.265      335.341        5.911      863.896
12/02/2013  04:43:00        6.257        9.200       12.535       27.875       31.128       22.267      777.012      968.939      495.830        0.126        0.112       11.126       26.142        5.521      335.125        5.549      863.888
12/02/2013  04:44:00        7.734       63.786       -3.437       17.426       19.344       22.680      303.677      374.193      514.384        0.267        0.060       64.253       20.294        0.100      335.189        5.657      863.882
12/02/2013  04:45:00       78.129       60.730        7.137       45.598       13.604       22.533     2079.134      185.069      507.720        0.631        0.139       98.956       27.873        0.079      335.293        5.829      863.896
12/02/2013  04:46:00       89.584       67.987       39.638       47.531       44.404       36.253     2259.240     1971.728     1314.248        0.988        0.277      112.461       34.010        0.091      335.213        5.696      863.846
12/02/2013  04:47:00       17.170       40.166       26.638       22.560       22.759       32.861      508.937      517.987     1079.852        0.236        0.105       43.682       23.159        0.281      335.345        5.916      863.849
12/02/2013  04:48:00       54.083       67.951        3.950       40.653       29.791       15.681     1652.628      887.487      245.903        0.517        0.139       86.846       12.602        0.021      335.245        5.749      863.816
12/02/2013  04:49:00       93.891       60.645        6.364       86.567       51.104       28.378     7493.877     2611.579      805.300        1.172        0.546      111.774       26.367        0.056      335.220        5.708      863.750
12/02/2013  04:50:00       24.348       44.513       -0.873       61.177       42.164       20.884     3742.565     1777.811      436.143        0.426        0.298       50.736       24.044        0.225      335.275        5.798      863.795
12/02/2013  04:51:00       49.028       58.444       -5.289       39.515       35.002       29.116     1561.434     1225.173      847.721        0.474        0.182       76.285       16.097        0.045      335.194        5.667      863.727
12/02/2013  04:52:00       67.747       52.878        2.890       26.050       21.389       21.383      678.589      457.510      457.217        0.449        0.080       85.940       12.732        0.022      335.198        5.674      863.714
12/02/2013  04:53:00       25.521       56.148        0.074       31.422       29.248       20.145      987.348      855.451      405.825        0.303        0.112       61.676       14.960        0.059      335.350        5.926      863.735
12/02/2013  04:54:00       13.111       80.816       -8.725       23.022       27.265       19.098      529.995      743.362      364.716        0.421        0.082       81.872       15.587        0.036      335.479        6.139      863.749
12/02/2013  04:55:00       52.299       63.453       -0.546       35.659       27.258       28.148     1271.594      743.004      792.295        0.478        0.140       82.228       17.294        0.044      335.573        6.297      863.717
12/02/2013  04:56:00       98.376       84.951        8.243       56.969       38.930       33.268     3245.441     1515.553     1106.741        1.141        0.293      129.978       23.472        0.033      335.548        6.256      863.676
12/02/2013  04:57:00      137.169       80.406       19.053       36.094       31.304       25.404     1302.782      979.965      645.364        1.429        0.146      158.998       12.787        0.006      335.513        6.196      863.617
12/02/2013  04:58:00       84.350       55.177       29.329       34.336       30.624       21.472     1178.956      937.816      461.063        0.680        0.129      100.794       13.229        0.017      335.416        6.034      863.587
12/02/2013  04:59:00       -2.727       30.658        4.843       67.838       35.548       23.885     4601.980     1263.647      570.491        0.370        0.322       30.779       30.472        0.980      335.457        6.102      863.593
12/02/2013  05:00:00      -24.782       52.913      -10.748       28.819       37.747       10.957      830.529     1424.855      120.064        0.295        0.119       58.429        9.875        0.029      335.533        6.229      863.604
12/02/2013  05:01:00      -11.296       99.667      -17.228       24.262       16.998       11.483      588.658      288.948      131.861        0.568        0.050      100.305       10.726        0.011      336.203        7.346      863.586
12/02/2013  05:02:00       25.837      103.720      -12.840       24.517       23.906       17.639      601.089      571.496      311.148        0.654        0.074      106.890       15.160        0.020      336.099        7.172      863.555
12/02/2013  05:03:00       14.882      143.867      -20.711       22.681       24.424       17.963      514.445      596.547      322.661        1.139        0.072      144.634       12.316        0.007      336.077        7.137      863.505
12/02/2013  05:04:00       21.894      115.586      -17.708       34.225       20.270       16.287     1171.316      410.858      265.283        0.800        0.092      117.642       10.349        0.008      336.263        7.448      863.470
12/02/2013  05:05:00     -121.343       13.657      -25.169       25.673       34.914       12.945      659.118     1218.955      167.580        0.879        0.102      122.110       10.804        0.008      335.390        5.993      863.483
12/02/2013  05:06:00      -20.757        0.957       -3.816       44.841       20.998       13.220     2010.725      440.899      174.774        0.154        0.131       20.779       15.863        0.583      335.549        6.256      863.431
12/02/2013  05:07:00      -10.959       -6.829       -1.197       79.420       24.499       19.287     6307.556      600.182      371.994        0.372        0.364       12.913       35.060        7.372      335.853        6.763      863.359
12/02/2013  05:08:00     -184.426      -10.667      -17.304       68.891       51.050       33.638     4745.974     2606.151     1131.505        2.145        0.424      184.734       33.273        0.032      335.049        5.423      863.442
12/02/2013  05:09:00       -9.655       99.590       -7.798       72.718       47.596       33.216     5287.909     2265.396     1103.317        0.936        0.433      100.057       35.300        0.124      336.376        7.636      863.414
12/02/2013  05:10:00      -25.723       46.583       -7.670       20.108       29.317       17.948      404.351      859.498      322.115        0.224        0.079       53.213       16.688        0.098      336.863        8.450      863.329
12/02/2013  05:11:00       60.685       74.506       -0.474       62.757       30.066       27.633     3938.433      903.992      763.568        0.742        0.280       96.093       25.664        0.071      336.892        8.498      863.304
12/02/2013  05:12:00       33.597       44.044      -11.424       52.911       36.312       24.004     2799.611     1318.584      576.210        0.395        0.235       55.395       23.159        0.175      336.961        8.615      863.261
12/02/2013  05:13:00      -64.217       19.017      -17.561       23.898       31.549        9.522      571.125      995.312       90.672        0.323        0.083       66.973        5.802        0.008      336.314        7.532      863.299
12/02/2013  05:14:00      -32.595        4.388      -12.531       19.142       26.503        6.040      366.400      702.400       36.483        0.117        0.055       32.889        5.637        0.029      336.560        7.943      863.280
12/02/2013  05:15:00       40.757       61.488       -1.791       21.913       40.895       13.658      480.172     1672.394      186.546        0.389        0.117       73.769       13.745        0.035      336.954        8.602      863.214
12/02/2013  05:16:00        8.125      198.498      -29.156       65.037       55.113       40.414     4229.784     3037.408     1633.273        2.461        0.445      198.664       33.659        0.029      337.191        8.997      863.233
12/02/2013  05:17:00      -63.165      -20.323      -19.202       33.271       46.731       16.292     1106.988     2183.754      265.442        0.416        0.178       66.354       22.196        0.112      336.283        7.482      863.283
12/02/2013  05:18:00      -12.511       15.770      -20.691       29.436       30.525       14.641      866.500      931.791      214.359        0.142        0.101       20.130       15.605        0.601      337.037        8.741      863.261
12/02/2013  05:19:00       78.275       88.678       -6.747       42.972       21.622       16.490     1846.622      467.508      271.932        0.831        0.129      118.283       20.214        0.029      337.195        9.007      863.221
12/02/2013  05:20:00       93.341       81.159       23.030       36.823       49.920       29.272     1355.938     2492.007      856.861        1.027        0.235      123.691       26.310        0.045      337.044        8.752      863.158
12/02/2013  05:21:00       25.848       20.000      -18.903       23.878       28.598       11.508      570.146      817.840      132.429        0.147        0.076       32.682        7.848        0.058      337.264        9.121      863.173
12/02/2013  05:22:00     -118.641       12.338      -14.843      134.066       80.109       38.440    17973.584     6417.396     1477.650        2.015        1.293      119.281       35.727        0.090      338.115       10.547      863.147
12/02/2013  05:23:00     -120.026      -54.056      -15.500       67.662       49.767       34.870     4578.160     2476.731     1215.926        1.292        0.414      131.637       36.459        0.077      338.474       11.148      863.114
12/02/2013  05:24:00     -153.547      -92.012        1.290      121.093       88.149       49.763    14663.563     7770.256     2476.374        2.847        1.246      179.005       45.268        0.064      338.776       11.656      863.096
12/02/2013  05:25:00     -179.273      -36.321       11.437      126.017       96.994       49.689    15880.382     9407.743     2469.020        3.067        1.388      182.916       51.941        0.081      338.679       11.492      863.088
12/02/2013  05:26:00      -96.442      -85.235        3.611       75.228       76.986       42.114     5659.293     5926.884     1773.611        1.497        0.668      128.709       47.869        0.138      338.724       11.570      863.044
12/02/2013  05:27:00     -256.632      -53.232      -18.468      217.947      121.270       66.939    47500.994    14706.314     4480.786        6.785        3.334      262.095       85.617        0.107      339.128       12.247      863.016
12/02/2013  05:28:00     -180.697      -64.438        8.579      139.865       88.308       54.591    19562.261     7798.302     2980.213        3.360        1.517      191.843       62.341        0.106      339.127       12.246      863.017
12/02/2013  05:29:00     -204.602      -96.388        3.075      133.184      112.108       67.966    17738.077    12568.256     4619.328        4.304        1.746      226.169       69.308        0.094      339.412       12.724      863.033
12/02/2013  05:30:00     -145.259      -97.894       12.404      144.968      163.309       68.699    21015.849    26669.846     4719.596        4.161        2.620      175.167       77.864        0.198      339.275       12.495      863.088
12/02/2013  05:31:00     -235.051     -140.171        2.298      127.458      114.018       62.881    16245.653    13000.069     3953.986        5.404        1.660      273.673       59.063        0.047      339.552       12.961      863.096
12/02/2013  05:32:00     -294.094     -114.430       -7.101      110.611      106.543       55.130    12234.862    11351.359     3039.316        6.313        1.331      315.572       50.350        0.025      339.611       13.059      863.081
12/02/2013  05:33:00     -257.656     -105.184      -19.173      146.504       90.082       56.527    21463.536     8114.779     3195.304        5.529        1.639      278.298       66.032        0.056      339.632       13.094      863.086
12/02/2013  05:34:00     -194.420     -104.530       -8.489       75.131       82.211       39.617     5644.621     6758.713     1569.522        3.138        0.699      220.739       35.576        0.026      339.545       12.947      863.086
12/02/2013  05:35:00     -131.857     -100.482       28.922      146.071      112.015       84.211    21336.837    12547.420     7091.525        3.464        2.049      165.780       89.961        0.294      339.544       12.948      863.075
12/02/2013  05:36:00     -274.567     -140.586      -19.729      114.570       98.578       59.087    13126.183     9717.685     3491.231        6.093        1.317      308.466       50.975        0.027      339.622       13.077      863.080
12/02/2013  05:37:00     -291.572     -101.857      -10.079      136.640      119.934       60.525    18670.591    14384.266     3663.303        6.610        1.836      308.852       66.253        0.046      339.569       12.987      863.059
12/02/2013  05:38:00     -150.635      -43.643       -1.363       87.379       71.099       47.908     7635.109     5055.059     2295.185        1.979        0.749      156.830       41.867        0.071      339.466       12.817      863.018
12/02/2013  05:39:00     -144.323      -85.022       -4.900       46.257       44.990       37.066     2139.722     2024.142     1373.908        1.681        0.277      167.505       36.471        0.047      339.670       13.161      862.977
12/02/2013  05:40:00     -111.398      -74.867        8.717      120.924       49.566       45.575    14622.599     2456.750     2077.110        1.862        0.958      134.218       59.825        0.199      339.460       12.805      863.003
12/02/2013  05:41:00     -198.915      -95.539        2.727       99.613       74.824       44.937     9922.680     5598.582     2019.354        3.312        0.877      220.670       48.792        0.049      339.517       12.902      863.025
12/02/2013  05:42:00     -170.016     -123.373        9.825      100.976      112.088       62.869    10196.194    12563.806     3952.465        3.546        1.336      210.063       57.283        0.074      339.545       12.949      863.048
12/02/2013  05:43:00     -106.850      -76.513       -5.875       63.755       51.296       30.669     4064.647     2631.288      940.590        1.247        0.382      131.420       32.146        0.060      339.453       12.796      863.095
12/02/2013  05:44:00        5.284      -66.348        1.783       60.028       72.538       36.568     3603.333     5261.714     1337.230        0.732        0.510       66.558       43.296        0.423      339.013       12.056      863.113
12/02/2013  05:45:00       89.810     -121.721      -30.139       67.415       71.405       44.163     4544.807     5098.734     1950.360        1.769        0.580      151.267       36.543        0.058      338.069       10.470      863.091
12/02/2013  05:46:00        8.901      -13.752       48.383       38.149       69.170       56.057     1455.380     4784.480     3142.337        0.599        0.469       16.382       43.225        6.962      337.478        9.479      863.071
12/02/2013  05:47:00       30.722      -25.310       37.330       43.928       56.818       47.000     1929.688     3228.332     2208.979        0.517        0.368       39.805       39.614        0.990      337.074        8.801      863.104
12/02/2013  05:48:00       63.891       18.243       43.984       58.266       60.365       55.512     3394.939     3643.974     3081.558        0.823        0.506       66.445       59.133        0.792      337.519        9.547      863.146
12/02/2013  05:49:00      126.458       74.520       59.827       46.051       39.367       41.140     2120.735     1549.750     1692.462        1.524        0.268      146.781       27.708        0.036      337.392        9.334      863.155
12/02/2013  05:50:00       52.466       69.998       84.609       59.727       54.250       36.872     3567.350     2943.009     1359.533        1.134        0.393       87.478       32.687        0.140      337.271        9.133      863.108
12/02/2013  05:51:00      143.263       45.693       43.597       58.394       59.388       46.013     3409.843     3526.922     2117.158        1.678        0.453      150.374       37.610        0.063      337.502        9.519      863.103
12/02/2013  05:52:00       85.079       38.272       12.349       62.450       56.915       41.225     3900.014     3239.352     1699.513        0.885        0.442       93.290       24.518        0.069      337.409        9.364      863.097
12/02/2013  05:53:00       67.004       91.274      -12.529       28.817       18.875       15.487      830.415      356.270      239.859        0.720        0.071      113.228        7.371        0.004      337.551        9.601      863.153
12/02/2013  05:54:00       81.588       62.570        6.771       23.872       20.254       19.436      569.851      410.228      377.757        0.599        0.068      102.818        8.937        0.008      337.925       10.229      863.124
12/02/2013  05:55:00      136.080       80.815       13.823       36.692       27.545       27.235     1346.269      758.709      741.719        1.404        0.142      158.268       13.925        0.008      337.896       10.180      863.091
12/02/2013  05:56:00       80.656       75.066       -1.338       62.660       35.794       33.712     3926.228     1281.178     1136.495        0.924        0.317      110.182       19.744        0.032      337.485        9.492      863.043
12/02/2013  05:57:00       12.043       40.762       -3.327       41.152       45.227       26.777     1693.469     2045.452      716.998        0.314        0.223       42.503       30.737        0.523      337.262        9.118      863.007
12/02/2013  05:58:00       58.740       41.350        7.006       46.864       39.670       24.333     2196.256     1573.679      592.109        0.478        0.218       71.835       14.444        0.040      337.493        9.504      863.000
12/02/2013  05:59:00       48.855       46.466        9.947       31.444       27.563       25.282      988.732      759.740      639.199        0.352        0.119       67.423        8.349        0.015      337.421        9.385      862.999
12/02/2013  06:00:00       13.198       12.489        2.029       41.423       44.360       24.118     1715.827     1967.774      581.686        0.230        0.213       18.170       16.700        0.845      337.481        9.484      862.997
12/02/2013  06:01:00      -36.132       39.879      -14.257       42.284       40.915       15.297     1787.961     1674.065      234.003        0.340        0.185       53.813       14.861        0.076      337.514        9.539      862.967
12/02/2013  06:02:00      -71.370       -5.872      -16.489       15.369       16.220        9.058      236.209      263.086       82.053        0.299        0.029       71.611        8.219        0.013      337.340        9.248      862.955
12/02/2013  06:03:00      -35.889        3.169      -13.190       42.151       33.272       15.983     1776.730     1107.009      255.442        0.231        0.157       36.029       13.078        0.132      337.579        9.649      862.965
12/02/2013  06:04:00       53.114       45.111       -3.409       21.411       22.115       17.765      458.439      489.054      315.602        0.307        0.063       69.686       10.292        0.022      337.633        9.739      862.956
12/02/2013  06:05:00       39.209      108.512      -18.736       15.752       21.403       10.371      248.130      458.095      107.559        0.724        0.041      115.378        8.203        0.005      338.051       10.439      862.954
12/02/2013  06:06:00       73.478      142.746      -15.985       32.640       58.894       28.423     1065.345     3468.550      807.882        1.569        0.267      160.548       28.492        0.031      338.322       10.894      862.924
12/02/2013  06:07:00       88.786       95.117      -14.514       45.850       41.987       36.624     2102.227     1762.884     1341.301        1.117        0.260      130.116       27.530        0.045      338.258       10.786      862.882
12/02/2013  06:08:00       89.283       81.754       -1.938       35.951       26.993       28.638     1292.464      728.619      820.112        0.875        0.142      121.059       18.394        0.023      338.636       11.422      862.890
12/02/2013  06:09:00       40.500       25.975        6.403       41.190       32.696       18.709     1696.650     1069.021      350.042        0.274        0.156       48.114       15.756        0.107      338.351       10.942      862.880
12/02/2013  06:10:00      -17.956       89.866      -23.962       37.163       33.164       15.870     1381.116     1099.852      251.873        0.585        0.137       91.642       17.164        0.035      338.408       11.039      862.915
12/02/2013  06:11:00       -5.726      131.984      -23.408       22.841       34.418       10.701      521.720     1184.624      114.518        0.991        0.091      132.108       14.506        0.012      338.421       11.062      862.922
12/02/2013  06:12:00       44.302      108.442      -19.204       21.563       35.400       21.411      464.961     1253.144      458.414        0.813        0.109      117.142       19.566        0.028      338.511       11.213      862.909
12/02/2013  06:13:00       47.248       62.050      -10.849       21.263       22.841       14.430      452.105      521.692      208.238        0.369        0.059       77.991        8.148        0.011      338.610       11.377      862.924
12/02/2013  06:14:00       36.737       55.737       -2.828       18.744       18.343       10.543      351.334      336.476      111.156        0.263        0.040       66.755        8.348        0.016      338.800       11.698      862.916
12/02/2013  06:15:00       83.145       49.678        6.562       53.915       29.685       21.262     2906.783      881.217      452.070        0.683        0.212       96.855       18.130        0.035      338.257       10.786      862.898
12/02/2013  06:16:00     -139.903      -10.712      -22.127       52.553       39.656       17.654     2761.777     1572.636      311.646        1.241        0.232      140.313       22.418        0.026      337.415        9.374      862.921
12/02/2013  06:17:00      -21.862       54.063       13.250       66.825       42.200       33.397     4465.560     1780.804     1115.393        0.547        0.368       58.316       43.703        0.562      339.165       12.312      862.931
12/02/2013  06:18:00       46.691        8.093       17.370       34.064       48.113       21.436     1160.377     2314.833      459.517        0.324        0.197       47.387       14.781        0.097      339.365       12.648      862.946
12/02/2013  06:19:00      -27.929       -1.191       -3.549       44.317       30.424       18.975     1964.010      925.645      360.065        0.202        0.162       27.955       24.339        0.758      338.443       11.098      862.945
12/02/2013  06:20:00     -158.914      -20.636      -22.795       25.447       31.230       15.505      647.554      975.332      240.392        1.403        0.093      160.248       17.364        0.012      337.692        9.838      862.962
12/02/2013  06:21:00     -138.289      -57.659      -36.809       72.777       35.534       19.563     5296.558     1262.672      382.714        1.537        0.347      149.828       18.750        0.016      338.771       11.651      863.046
12/02/2013  06:22:00        3.197      -75.826      -27.782       42.784       76.731       43.913     1830.431     5887.578     1928.394        0.809        0.482       75.894       29.872        0.155      340.072       13.839      863.075
12/02/2013  06:23:00        0.917       -0.000        7.956       20.619       20.152       19.817      425.138      406.121      392.725        0.064        0.061        0.917        3.004       10.736      339.394       12.698      863.062
12/02/2013  06:24:00      -29.959        6.273        8.196       33.673       23.705       20.759     1133.845      561.918      430.951        0.156        0.106       30.609       16.146        0.278      338.550       11.277      863.044
12/02/2013  06:25:00      -12.083       -6.806        2.354       33.566       15.186       10.096     1126.681      230.613      101.934        0.083        0.073       13.868        6.266        0.204      338.692       11.516      863.024
12/02/2013  06:26:00      -62.133       15.880       -0.703       30.738       13.416       12.558      944.833      179.989      157.712        0.270        0.064       64.130       10.027        0.024      339.256       12.465      863.050
12/02/2013  06:27:00      -65.209      -31.085       -7.929       36.466       36.673       18.737     1329.794     1344.911      351.086        0.415        0.151       72.239       17.665        0.060      338.067       10.467      863.046
12/02/2013  06:28:00      -54.437      -23.317        0.223       24.552       28.295       15.259      602.780      800.622      232.852        0.257        0.082       59.220       15.316        0.067      338.757       11.626      863.011
12/02/2013  06:29:00      -63.596      -88.128       -6.601       37.326       65.468       36.285     1393.225     4286.104     1316.614        0.942        0.350      108.679       20.069        0.034      338.904       11.872      863.010
12/02/2013  06:30:00     -108.738      -77.183       -4.992       78.153       57.488       29.804     6107.892     3304.910      888.275        1.405        0.515      133.346       24.892        0.035      339.105       12.210      862.961
12/02/2013  06:31:00     -122.759     -109.766        0.303       70.231       54.071       35.031     4932.439     2923.702     1227.155        1.810        0.454      164.676       33.299        0.041      339.190       12.353      862.924
12/02/2013  06:32:00      -32.981      -41.640        6.596       49.804       30.724       20.452     2480.442      943.938      418.300        0.335        0.192       53.119       14.953        0.079      338.927       11.910      862.902
12/02/2013  06:33:00     -214.921     -164.543       -5.146      187.262      106.939       47.589    35067.037    11435.918     2264.668        6.102        2.438      270.676       49.840        0.034      339.207       12.379      862.850
12/02/2013  06:34:00     -296.581     -171.160      -14.520      154.125       86.234       56.230    23754.523     7436.383     3161.809        7.590        1.718      342.427       51.787        0.023      339.480       12.839      862.827
12/02/2013  06:35:00     -198.100     -189.581        7.336      133.178      124.178       64.973    17736.266    15420.240     4221.486        5.630        1.869      274.198       71.107        0.067      339.413       12.726      862.798
12/02/2013  06:36:00     -218.695      -35.393      -14.978      106.337       73.553       45.431    11307.453     5410.057     2064.008        3.404        0.939      221.540       45.295        0.042      339.427       12.751      862.806
12/02/2013  06:37:00     -257.762      -31.173      -15.480      110.336       86.254       40.156    12174.014     7439.807     1612.517        4.444        1.061      259.640       44.098        0.029      339.446       12.780      862.792
12/02/2013  06:38:00     -119.950     -157.488        4.133      104.184      117.580       51.060    10854.362    13825.143     2607.143        3.324        1.364      197.965       53.763        0.074      339.571       12.993      862.793
12/02/2013  06:39:00     -202.416      -84.448      -13.168       86.011       62.437       42.250     7397.816     3898.387     1785.027        3.068        0.654      219.325       39.364        0.032      339.608       13.056      862.776
12/02/2013  06:40:00     -227.506      -61.302       -2.465      114.682      142.328       58.168    13151.963    20257.375     3383.479        4.615        1.840      235.620       61.663        0.068      339.638       13.105      862.794
12/02/2013  06:41:00     -285.532      -53.174       -6.639      138.737      117.687       52.950    19248.008    13850.150     2803.747        6.014        1.795      290.441       62.593        0.046      339.665       13.152      862.820
12/02/2013  06:42:00     -168.966      -51.497        5.821      108.434       92.487       51.470    11757.929     8553.914     2649.141        2.709        1.148      176.640       42.303        0.057      339.481       12.841      862.787
12/02/2013  06:43:00     -136.251     -110.189        8.197      100.838       99.467       63.261    10168.239     9893.726     4001.935        2.741        1.203      175.231       65.943        0.142      339.641       13.111      862.769
12/02/2013  06:44:00     -111.329      -85.704       -5.980      100.190       84.435       47.846    10037.945     7129.248     2289.240        1.961        0.973      140.497       47.764        0.116      339.563       12.981      862.753
12/02/2013  06:45:00     -140.707      -97.745        1.221      134.317       77.863       54.950    18040.927     6062.672     3019.550        2.823        1.356      171.326       61.146        0.127      339.494       12.863      862.784
12/02/2013  06:46:00     -170.250     -110.580       15.684      146.432      158.533       66.871    21442.290    25132.701     4471.681        4.624        2.552      203.010       74.137        0.133      339.624       13.084      862.823
12/02/2013  06:47:00      -71.245      -48.655        2.922      104.134       55.596       42.843    10843.870     3090.957     1835.495        1.161        0.789       86.273       56.547        0.430      339.558       12.973      862.793
12/02/2013  06:48:00     -127.431      -44.265       12.372      141.995       68.159       45.093    20162.587     4645.607     2033.420        2.259        1.342      134.900       60.356        0.200      339.530       12.926      862.806
12/02/2013  06:49:00     -302.175      -68.460      -15.099      170.795      103.333       65.439    29170.815    10677.637     4282.199        7.017        2.207      309.833       75.826        0.060      339.615       13.067      862.809
12/02/2013  06:50:00     -298.055     -166.404        4.955      162.981      123.203       71.892    26562.828    15178.870     5168.408        8.172        2.346      341.360       64.766        0.036      339.671       13.161      862.785
12/02/2013  06:51:00     -265.396     -182.218        5.150      150.169      141.208       68.519    22550.813    19939.559     4694.802        7.542        2.359      321.929       67.564        0.044      339.761       13.313      862.821
12/02/2013  06:52:00     -240.024     -216.896        0.788      185.419      160.070       81.629    34380.159    25622.505     6663.313        8.565        3.333      323.505       93.009        0.083      339.781       13.347      862.813
12/02/2013  06:53:00     -184.053      -69.906       -2.556      142.378       85.948       67.060    20271.453     7387.025     4496.987        3.546        1.608      196.882       69.325        0.124      339.743       13.284      862.834
12/02/2013  06:54:00     -193.537      -86.725      -11.438       78.838       76.315       42.257     6215.485     5824.006     1785.664        2.946        0.691      212.080       37.291        0.031      339.726       13.254      862.827
12/02/2013  06:55:00     -132.015      -67.531        9.860       96.786       70.189       59.092     9367.438     4926.555     3491.838        1.993        0.889      148.285       56.073        0.143      339.669       13.159      862.856
12/02/2013  06:56:00     -206.446      -83.093      -17.369       75.878       86.909       42.952     5757.419     7553.092     1844.858        3.249        0.758      222.541       39.197        0.031      339.712       13.230      862.884
12/02/2013  06:57:00     -165.999     -123.442        2.927      123.599      106.480       44.777    15276.748    11337.948     2004.937        3.571        1.431      206.866       50.077        0.059      339.828       13.426      862.923
12/02/2013  06:58:00     -149.380     -100.814        2.775      122.130       87.002       60.109    14915.791     7569.271     3613.058        2.929        1.305      180.216       66.489        0.136      339.631       13.093      862.890
12/02/2013  06:59:00     -222.868     -148.049      -10.539      194.941      136.111       70.645    38002.131    18526.220     4990.687        6.660        3.076      267.560      100.100        0.140      339.713       13.233      862.879
12/02/2013  07:00:00     -249.468      -40.108      -23.736      257.727       93.276       77.232    66423.463     8700.448     5964.804        7.273        4.054      252.672      111.886        0.196      339.787       13.357      862.938
12/02/2013  07:01:00      -97.758      -54.543       15.377      113.170       75.163       53.989    12807.427     5649.464     2914.767        1.707        1.069      111.945       58.849        0.276      339.643       13.116      862.946
12/02/2013  07:02:00     -277.353     -165.460       -2.442      126.838       97.127       61.337    16087.940     9433.666     3762.183        6.679        1.464      322.957       62.446        0.037      339.711       13.227      862.954
12/02/2013  07:03:00     -236.499     -104.646      -21.770       64.424       63.799       40.422     4150.502     4070.286     1633.972        3.860        0.493      258.616       33.632        0.017      339.731       13.262      862.958
12/02/2013  07:04:00      -74.714        5.092        6.764       51.770       55.321       29.846     2680.157     3060.393      890.755        0.614        0.332       74.887       28.171        0.142      339.507       12.888      862.955
12/02/2013  07:05:00     -144.588      -55.285        3.447      103.116       72.651       47.447    10632.969     5278.202     2251.219        2.106        0.908      154.797       52.251        0.114      339.615       13.068      862.925
12/02/2013  07:06:00     -272.748      -96.442       -8.265      117.185       83.172       52.360    13732.417     6917.526     2741.580        5.357        1.170      289.296       58.650        0.041      339.812       13.398      862.922
12/02/2013  07:07:00     -201.474     -117.621        1.389      111.412       72.283       51.293    12412.646     5224.848     2630.988        3.734        1.013      233.294       49.742        0.045      339.683       13.180      862.898
12/02/2013  07:08:00     -181.811     -140.010       -4.030      110.000      133.327       55.188    12100.043    17776.219     3045.693        4.279        1.646      229.474       51.450        0.050      339.797       13.374      862.893
12/02/2013  07:09:00     -153.865      -72.455       -3.442      137.331       66.419       40.556    18859.755     4411.452     1644.807        2.692        1.246      170.071       46.446        0.075      339.616       13.069      862.877
12/02/2013  07:10:00     -120.265     -167.768        6.370      113.333      107.898       75.743    12844.286    11641.936     5737.006        3.643        1.511      206.421       82.485        0.160      339.831       13.430      862.811
12/02/2013  07:11:00     -290.658     -148.287       -8.825      146.651      127.942       61.855    21506.452    16369.033     3826.031        7.412        2.085      326.299       68.158        0.044      339.764       13.318      862.786
12/02/2013  07:12:00     -230.329     -121.960        6.613      142.095      116.148       70.741    20190.868    13490.418     5004.276        5.332        1.934      260.625       74.470        0.082      339.908       13.562      862.742
12/02/2013  07:13:00     -207.019     -124.762        5.141      189.121       87.967       64.154    35766.822     7738.269     4115.771        5.303        2.381      241.707       85.667        0.126      339.837       13.442      862.719
12/02/2013  07:14:00     -102.517      -97.742       21.696      106.989      105.719       51.187    11446.729    11176.586     2620.141        2.288        1.262      141.644       57.215        0.163      339.709       13.226      862.658
12/02/2013  07:15:00     -180.755     -123.490        8.178      132.395      103.012       62.425    17528.455    10611.412     3896.902        4.001        1.602      218.911       58.804        0.072      339.812       13.400      862.629
12/02/2013  07:16:00     -146.610     -172.708      -12.494      108.550       87.978       54.283    11783.183     7740.096     2946.669        3.697        1.123      226.545       55.400        0.060      339.740       13.277      862.659
12/02/2013  07:17:00     -287.734     -172.780       -3.581      175.433      115.995       61.337    30776.723    13454.848     3762.172        8.032        2.400      335.624       71.562        0.045      339.918       13.579      862.618
12/02/2013  07:18:00     -202.733     -132.598       -0.242      107.393       96.691       61.237    11533.233     9349.246     3750.030        4.165        1.232      242.245       58.606        0.059      339.766       13.320      862.623
12/02/2013  07:19:00     -212.659     -109.341       -4.682      112.767       80.252       43.009    12716.452     6440.400     1849.806        3.910        1.050      239.122       55.015        0.053      339.695       13.202      862.636
12/02/2013  07:20:00      -80.586      -71.846       12.734      102.402       50.069       41.889    10486.070     2506.928     1754.697        1.328        0.737      107.963       43.746        0.164      339.646       13.121      862.661
12/02/2013  07:21:00      -81.341      -76.294        7.794      108.033       66.895       38.126    11671.038     4474.899     1453.601        1.505        0.880      111.522       40.317        0.131      339.685       13.188      862.676
12/02/2013  07:22:00     -144.013     -133.908        3.288      124.951       98.509       52.636    15612.691     9704.026     2770.531        3.338        1.404      196.649       56.297        0.082      339.645       13.118      862.709
12/02/2013  07:23:00     -273.241     -215.733      -13.876      186.313      127.900       86.008    34712.609    16358.387     7397.358        8.992        2.923      348.140       98.466        0.080      339.830       13.428      862.703
12/02/2013  07:24:00     -282.578     -114.363        8.116      145.734      134.119       62.279    21238.321    17987.813     3878.646        6.804        2.155      304.843       69.397        0.052      339.677       13.172      862.736
12/02/2013  07:25:00     -307.423     -119.117      -12.952      198.817      131.268       75.034    39528.028    17231.405     5630.147        8.562        3.119      329.693       86.770        0.069      339.784       13.351      862.731
12/02/2013  07:26:00     -236.014     -206.547        4.462      166.521      122.984       78.285    27729.393    15125.018     6128.610        7.367        2.449      313.631       85.972        0.075      339.782       13.349      862.714
12/02/2013  07:27:00     -312.148     -199.279      -11.056      171.396      148.153       81.824    29376.573    21949.364     6695.158        9.763        2.901      370.335       86.572        0.055      339.857       13.474      862.682
12/02/2013  07:28:00     -345.174      -99.105       -8.964      170.348      105.152       73.312    29018.594    11057.023     5374.721        8.724        2.273      359.120       73.715        0.042      339.824       13.419      862.678
12/02/2013  07:29:00     -198.736     -171.331        6.677      192.523      142.153       91.302    37065.024    20207.467     8336.041        6.724        3.280      262.394       97.085        0.137      339.763       13.316      862.627
12/02/2013  07:30:00     -302.826     -159.928        6.151      182.903      126.214       73.793    33453.471    15930.089     5445.341        8.606        2.741      342.462       90.227        0.069      339.800       13.379      862.600
12/02/2013  07:31:00     -353.249     -214.998        1.970      200.969      160.814       87.283    40388.363    25861.075     7618.249       12.243        3.693      413.532      102.587        0.062      339.867       13.491      862.589
12/02/2013  07:32:00     -429.989     -214.250      -15.253      196.587      111.560       72.640    38646.491    12445.590     5276.581       14.369        2.818      480.409       75.435        0.025      339.951       13.632      862.538
12/02/2013  07:33:00     -370.897     -199.775       -2.241      178.533      125.598       69.073    31874.088    15774.776     4771.071       11.494        2.621      421.278       70.552        0.028      339.835       13.437      862.538
12/02/2013  07:34:00     -336.474     -191.990        3.484      203.810      113.951       87.067    41538.552    12984.845     7580.621       10.608        3.105      387.395       96.042        0.061      339.845       13.453      862.549
12/02/2013  07:35:00     -179.451     -167.946        2.999      111.888      101.433       57.031    12518.910    10288.674     3252.518        4.323        1.303      245.782       61.369        0.062      339.765       13.319      862.561
12/02/2013  07:36:00     -351.545     -260.260       -7.376      158.160      137.634       82.834    25014.535    18943.171     6861.536       12.109        2.541      437.401       78.827        0.032      339.874       13.502      862.572
12/02/2013  07:37:00     -286.561     -256.879        0.868      204.409      170.384       98.798    41783.160    29030.724     9760.992       11.432        4.029      384.843      107.883        0.079      339.825       13.419      862.499
12/02/2013  07:38:00     -382.861     -316.039      -29.875      182.233      152.295       80.113    33209.046    23193.804     6418.042       15.508        3.141      496.451       66.490        0.018      339.987       13.693      862.518
12/02/2013  07:39:00     -287.738     -182.193       -8.579      136.856      128.287       65.821    18729.595    16457.498     4332.390        7.778        1.976      340.569       74.449        0.048      339.838       13.441      862.549
12/02/2013  07:40:00     -283.489     -113.547       -9.154      112.543      100.055       52.462    12665.911    10010.990     2752.225        5.938        1.271      305.383       51.558        0.029      339.826       13.423      862.607
12/02/2013  07:41:00     -130.233     -122.659       -8.908      104.866       94.189       51.391    10996.966     8871.619     2641.078        2.729        1.125      178.901       50.447        0.080      339.734       13.267      862.549
12/02/2013  07:42:00     -217.698      -44.047       -3.844      139.638       82.083       55.615    19498.904     6737.673     3093.000        3.933        1.466      222.109       65.302        0.086      339.789       13.361      862.486
12/02/2013  07:43:00     -266.108      -46.289       -5.233      209.932      130.621       69.974    44071.311    17061.825     4896.417        6.949        3.301      270.104       76.879        0.081      339.757       13.306      862.480
12/02/2013  07:44:00     -304.865     -220.179       11.920      187.906      171.622       91.652    35308.842    29454.171     8400.150       10.735        3.658      376.060      100.546        0.071      339.867       13.490      862.411
12/02/2013  07:45:00     -328.857     -187.356       -1.146      112.586       95.594       66.851    12675.658     9138.180     4469.062        8.476        1.314      378.483       55.326        0.021      339.897       13.541      862.382
12/02/2013  07:46:00     -265.127     -212.845        5.318      151.620      121.060       73.333    22988.585    14655.620     5377.774        7.931        2.151      339.993       70.545        0.043      339.963       13.653      862.369
12/02/2013  07:47:00     -237.605     -131.902       -2.490      168.395       88.077       69.292    28357.006     7757.512     4801.347        5.738        2.046      271.761       87.288        0.103      339.922       13.585      862.366
12/02/2013  07:48:00     -243.227     -150.228       -2.255      160.568       96.240       60.594    25781.998     9262.073     3671.686        6.022        1.936      285.881       77.972        0.074      339.917       13.575      862.370
12/02/2013  07:49:00     -223.542     -173.704        2.039      118.552       87.554       62.754    14054.611     7665.690     3938.012        5.290        1.283      283.098       59.504        0.044      339.938       13.611      862.386
12/02/2013  07:50:00     -295.429     -100.385       -6.039      130.928      111.850       65.345    17142.110    12510.500     4269.963        6.565        1.696      312.019       68.446        0.048      339.977       13.677      862.331
12/02/2013  07:51:00     -206.399      -79.168        5.079      119.013      101.519       53.928    14164.036    10306.185     2908.220        3.813        1.369      221.062       51.853        0.055      339.909       13.564      862.442
12/02/2013  07:52:00     -117.652      -63.993        4.055      115.625       80.280       53.054    13369.113     6444.942     2814.719        2.029        1.131      133.929       62.196        0.216      339.764       13.320      862.495
12/02/2013  07:53:00     -168.974      -98.902      -13.575       92.407       59.210       39.100     8538.976     3505.844     1528.779        2.604        0.679      195.790       36.107        0.034      339.794       13.369      862.521
12/02/2013  07:54:00     -155.673      -40.011        6.374       85.016       94.813       46.242     7227.655     8989.479     2138.319        2.211        0.918      160.733       43.991        0.075      339.746       13.290      862.516
12/02/2013  07:55:00     -234.941     -167.671        2.150      221.653      152.705       81.328    49129.862    23318.951     6614.277        8.117        3.953      288.636      111.847        0.150      339.912       13.568      862.466
12/02/2013  07:56:00     -237.948     -152.435       -1.984      153.662      131.234       64.736    23611.930    17222.321     4190.738        6.243        2.251      282.587       72.012        0.065      339.914       13.573      862.479
12/02/2013  07:57:00     -176.514      -75.440        3.210      112.753       79.533       52.320    12713.290     6325.445     2737.404        2.931        1.089      191.959       58.022        0.091      339.817       13.408      862.471
12/02/2013  07:58:00     -132.861      -70.624       10.094       96.110       63.908       41.025     9237.127     4084.290     1683.026        1.887        0.750      150.465       44.880        0.089      339.769       13.329      862.488
12/02/2013  07:59:00     -186.719      -85.990        7.708      154.708       96.206       52.255    23934.627     9255.649     2730.589        3.911        1.796      205.568       63.967        0.097      339.825       13.421      862.473
12/02/2013  08:00:00     -137.845      -20.162        0.706       99.062       91.173       42.521     9813.311     8312.463     1808.058        1.967        0.997      139.312       41.228        0.088      339.776       13.340      862.491
12/02/2013  08:01:00     -221.962     -135.319        1.533       99.738       85.245       47.504     9947.594     7266.631     2256.628        4.352        0.974      259.958       44.928        0.030      339.890       13.530      862.505
12/02/2013  08:02:00     -183.532     -112.710       -1.588      107.186       84.278       61.676    11488.790     7102.757     3803.940        3.439        1.120      215.377       41.759        0.038      339.852       13.466      862.515
12/02/2013  08:03:00      -72.760      -70.927        9.695       81.789       73.252       41.783     6689.489     5365.909     1745.795        1.211        0.690      101.610       47.031        0.214      339.843       13.455      862.483
12/02/2013  08:04:00     -116.320      -76.678       -1.675      100.595       50.968       30.426    10119.319     2597.741      925.738        1.652        0.682      139.319       45.581        0.107      339.806       13.391      862.520
12/02/2013  08:05:00     -177.748      -57.708       -9.181       87.294       67.319       43.833     7620.207     4531.880     1921.325        2.454        0.704      186.881       39.491        0.045      339.952       13.636      862.551
12/02/2013  08:06:00     -144.764      -84.627        5.644       94.206       64.548       37.867     8874.844     4166.495     1433.885        2.131        0.724      167.686       44.556        0.071      339.934       13.606      862.501
12/02/2013  08:07:00     -162.015     -129.126        1.362      101.844       66.310       39.820    10372.280     4397.082     1585.633        2.964        0.818      207.177       49.286        0.057      339.888       13.528      862.485
12/02/2013  08:08:00     -106.538      -53.249        7.672       95.347       70.915       36.348     9090.979     5028.957     1321.144        1.484        0.772      119.104       37.017        0.097      339.866       13.491      862.497
12/02/2013  08:09:00     -233.986     -132.827       -8.679      147.804      131.510       50.716    21846.012    17294.804     2572.153        5.708        2.086      269.059       61.093        0.052      339.903       13.552      862.439
12/02/2013  08:10:00     -201.412     -150.760        0.741      133.188       93.267       59.808    17738.998     8698.815     3576.943        4.665        1.501      251.586       64.717        0.066      339.994       13.707      862.441
12/02/2013  08:11:00     -105.415     -111.863        2.893       89.708       82.726       46.260     8047.599     6843.635     2139.972        2.033        0.852      153.707       42.034        0.075      340.001       13.719      862.421
12/02/2013  08:12:00     -125.920     -136.441      -17.977      105.398       85.860       49.638    11108.762     7371.885     2463.924        2.787        1.047      185.667       62.685        0.114      340.063       13.823      862.419
12/02/2013  08:13:00     -135.288      -54.536        3.731       86.348       74.416       47.117     7455.960     5537.812     2220.043        1.825        0.761      145.867       50.244        0.119      339.939       13.614      862.451
12/02/2013  08:14:00     -237.406      -65.446      -15.993      128.377       71.886       51.683    16480.673     5167.555     2671.130        4.261        1.216      246.262       58.397        0.056      340.052       13.805      862.418
12/02/2013  08:15:00     -237.540     -133.213      -19.596      127.548       98.889       50.988    16268.541     9779.133     2599.788        5.160        1.432      272.343       52.186        0.037      340.081       13.852      862.410
12/02/2013  08:16:00     -133.350      -13.150        6.684       83.691       64.620       37.526     7004.206     4175.737     1408.177        1.529        0.629      133.997       44.945        0.113      339.990       13.702      862.388
12/02/2013  08:17:00     -139.811      -71.844        5.639      109.065       65.604       41.168    11895.250     4303.842     1694.821        2.131        0.895      157.190       42.894        0.074      340.019       13.748      862.423
12/02/2013  08:18:00     -104.189      -37.953        4.572       61.170       31.520       26.171     3741.796      993.482      684.923        0.887        0.271      110.886       24.902        0.050      339.958       13.648      862.387
12/02/2013  08:19:00        9.275      -36.900       14.378       32.998       44.241       16.538     1088.845     1957.284      273.496        0.249        0.166       38.048       14.313        0.142      340.003       13.724      862.370
12/02/2013  08:20:00      -75.600      -43.540        4.021       49.719       85.582       31.802     2472.006     7324.221     1011.336        0.922        0.540       87.241       23.731        0.074      340.005       13.728      862.378
12/02/2013  08:21:00     -176.980     -118.896        8.955      155.038      124.730       64.746    24036.834    15557.555     4192.087        4.465        2.189      213.209       85.511        0.161      340.262       14.158      862.354
12/02/2013  08:22:00     -171.314      -10.888        0.546      125.390       97.144       46.013    15722.730     9436.971     2117.152        2.837        1.364      171.660       52.390        0.093      340.083       13.856      862.336
12/02/2013  08:23:00     -170.898       34.411        8.902      132.143       96.625       56.369    17461.666     9336.353     3177.436        3.022        1.499      174.328       65.264        0.140      340.004       13.723      862.348
12/02/2013  08:24:00     -188.343     -110.399       -6.424      111.689       88.204       53.642    12474.333     7779.914     2877.496        3.541        1.157      218.314       59.528        0.074      340.091       13.870      862.343
12/02/2013  08:25:00     -218.849     -106.724       -2.725      135.079      117.838       64.812    18246.428    13885.849     4200.653        4.781        1.817      243.485       71.590        0.086      340.146       13.962      862.281
12/02/2013  08:26:00      -88.109      -32.142       27.331      108.152       89.449       40.646    11696.907     8001.051     1652.109        1.544        1.068       93.788       45.010        0.230      340.128       13.933      862.284
12/02/2013  08:27:00     -148.485      -73.787       -5.129       83.146       78.506       38.390     6913.220     6163.233     1473.772        2.103        0.728      165.808       39.491        0.057      340.187       14.034      862.256
12/02/2013  08:28:00      -88.657      -29.743       -2.207       46.265       74.433       26.403     2140.443     5540.245      697.115        0.856        0.419       93.513       21.475        0.053      340.137       13.949      862.213
12/02/2013  08:29:00     -259.478      -59.428        0.659      150.858      113.530       71.733    22758.122    12889.144     5145.648        5.582        2.040      266.197       77.697        0.085      340.120       13.918      862.211
12/02/2013  08:30:00     -187.938     -118.006       -0.218      132.740      125.431       64.389    17619.857    15733.009     4145.879        4.337        1.875      221.915       72.206        0.106      340.120       13.919      862.211
12/02/2013  08:31:00     -171.964      -34.524       -8.732       76.071       57.811       40.223     5786.860     3342.148     1617.914        2.079        0.537      175.395       38.208        0.047      340.202       14.057      862.115
12/02/2013  08:32:00      -40.854      -53.463       16.162       51.753       55.568       37.089     2678.400     3087.833     1375.558        0.596        0.357       67.286       31.852        0.224      340.159       13.988      862.117
12/02/2013  08:33:00      -29.660     -108.114       -2.672       41.506       37.386       29.648     1722.727     1397.717      878.997        0.829        0.200      112.108       14.595        0.017      340.283       14.195      862.077
12/02/2013  08:34:00     -126.646     -108.323       14.556       91.254      117.879       53.891     8327.285    13895.523     2904.241        2.655        1.256      166.653       54.941        0.109      340.212       14.077      862.093
12/02/2013  08:35:00      -73.366      -73.931       11.247       90.474       93.659       50.297     8185.483     8771.946     2529.806        1.523        0.974      104.155       44.938        0.186      340.283       14.197      862.047
12/02/2013  08:36:00     -182.362     -170.619        1.953      123.656      107.382       62.164    15290.864    11530.943     3864.411        4.652        1.534      249.733       59.070        0.056      340.308       14.234      862.045
12/02/2013  08:37:00     -182.383      -66.127       -5.733       88.531       93.227       55.126     7837.708     8691.363     3038.917        2.861        0.978      194.001       56.861        0.086      340.331       14.275      861.974
12/02/2013  08:38:00     -195.322      -79.104        1.375      169.494      105.868       62.644    28728.227    11208.060     3924.282        4.413        2.193      210.733       55.189        0.069      340.356       14.317      861.930
12/02/2013  08:39:00     -366.860     -215.757      -20.396      175.581      116.249       72.655    30828.696    13513.732     5278.759       11.558        2.481      425.602       64.683        0.023      340.454       14.482      861.934
12/02/2013  08:40:00     -398.486     -148.163      -31.737      134.124      174.016       76.599    17989.209    30281.571     5867.447       11.793        2.707      425.139       70.344        0.027      340.517       14.589      861.936
12/02/2013  08:41:00     -477.387     -160.497       -3.484      232.547      203.495       96.315    54078.177    41410.277     9276.595       17.920        5.238      503.645      101.145        0.040      340.497       14.554      861.897
12/02/2013  08:42:00     -400.287     -260.596      -15.105      248.055      183.470      126.571    61531.513    33661.158    16020.196       16.977        5.561      477.640      146.456        0.094      340.553       14.649      861.867
12/02/2013  08:43:00     -262.796     -175.141       -4.334      176.495      162.066       79.303    31150.426    26265.238     6288.980        8.172        3.185      315.810       81.938        0.067      340.607       14.741      861.860
12/02/2013  08:44:00     -280.197      -35.884        0.243      258.235      139.088       92.557    66685.307    19345.496     8566.806        8.718        4.730      282.486      112.988        0.160      340.607       14.742      861.824
12/02/2013  08:45:00     -232.003     -114.061        5.432      176.869      169.994       71.834    31282.534    28897.933     5160.090        6.609        3.267      258.525       77.897        0.091      340.613       14.752      861.805
12/02/2013  08:46:00     -256.089      -89.774        7.144      152.837      150.620       85.754    23359.138    22686.271     7353.731        6.353        2.670      271.368       80.802        0.089      340.612       14.750      861.789
12/02/2013  08:47:00     -418.441     -107.882       -3.974      228.731      172.532       97.863    52317.951    29767.380     9577.195       13.919        4.583      432.124      113.122        0.069      340.630       14.779      861.760
12/02/2013  08:48:00     -401.015     -129.990      -27.946      200.412      184.551       88.792    40164.770    34058.924     7884.064       13.028        4.105      421.557       85.607        0.041      340.616       14.755      861.729
12/02/2013  08:49:00     -496.449     -341.685      -10.243      242.312      201.296      115.453    58714.966    40520.205    13329.353       23.792        5.628      602.670      113.775        0.036      340.588       14.708      861.690
12/02/2013  08:50:00     -477.517     -143.413      -14.464      205.879      178.604       90.127    42386.042    31899.233     8122.942       16.559        4.120      498.588       94.997        0.036      340.589       14.710      861.725
12/02/2013  08:51:00     -427.635     -180.129      -15.694      248.362      242.916       90.873    61683.706    59008.342     8257.843       17.223        6.447      464.024      116.927        0.063      340.574       14.686      861.705
12/02/2013  08:52:00     -269.095     -106.441        4.054      122.632       95.895       58.694    15038.581     9195.761     3444.942        5.571        1.384      289.381       58.857        0.041      340.508       14.574      861.772
12/02/2013  08:53:00     -447.309     -110.571        3.919      270.851      203.208      105.976    73360.175    41293.404    11230.826       16.908        6.294      460.772      119.703        0.067      340.585       14.704      861.758
12/02/2013  08:54:00     -411.758     -179.499      -13.969      237.055      228.462       97.051    56195.052    52194.777     9418.974       15.986        5.890      449.182      117.877        0.069      340.591       14.714      861.718
12/02/2013  08:55:00     -424.825     -219.176        1.400      259.186      259.331      130.237    67177.317    67252.421    16961.550       18.992        7.570      478.032      120.546        0.064      340.598       14.726      861.632
12/02/2013  08:56:00     -466.608     -157.857      -30.106      271.261      222.477      131.897    73582.446    49496.060    17396.809       19.198        7.024      492.587      150.546        0.093      340.613       14.751      861.620
12/02/2013  08:57:00     -573.541     -157.903      -21.045      354.621      210.632      117.527   125756.016    44365.890    13812.602       26.909        9.197      594.880      156.898        0.070      340.636       14.790      861.612
12/02/2013  08:58:00     -538.467     -341.276      -30.520      311.627      253.119      124.156    97111.545    64069.262    15414.727       29.194        8.830      637.508      137.653        0.047      340.613       14.750      861.562
12/02/2013  08:59:00     -251.503     -147.426       -0.332      188.210      146.463       86.841    35423.008    21451.408     7541.294        7.469        3.221      291.527       95.222        0.107      340.512       14.581      861.664
12/02/2013  09:00:00     -366.640      -59.375      -12.557      216.137      165.635       98.052    46715.328    27435.004     9614.267       11.092        4.188      371.417      102.439        0.076      340.510       14.578      861.683
12/02/2013  09:01:00     -426.653     -278.030       -2.936      257.563      216.731      116.191    66338.725    46972.295    13500.412       19.305        6.341      509.248      130.133        0.065      340.567       14.672      861.638
12/02/2013  09:02:00     -321.465     -247.636      -13.534      245.203      187.743      106.525    60124.640    35247.541    11347.637       13.576        5.336      405.787      134.900        0.111      340.567       14.673      861.645
12/02/2013  09:03:00     -155.983      -69.542       14.981      228.965      180.515       94.991    52424.987    32585.548     9023.241        6.169        4.702      170.783      109.124        0.408      340.541       14.632      861.621
12/02/2013  09:04:00     -330.168     -220.452        0.745      179.900      146.577       81.393    32364.020    21484.703     6624.849       10.903        3.024      397.001       78.964        0.040      340.558       14.657      861.557
12/02/2013  09:05:00     -308.987     -129.026       -6.300      170.578      165.311       72.713    29096.720    27327.765     5287.173        8.692        3.086      334.844       81.774        0.060      340.569       14.677      861.545
12/02/2013  09:06:00     -444.999     -252.372      -19.451      245.799      221.572      114.541    60417.386    49094.184    13119.540       19.234        6.132      511.582      117.121        0.052      340.600       14.728      861.509
12/02/2013  09:07:00     -404.522     -279.041      -35.697      187.434      152.940       91.497    35131.417    23390.709     8371.738       15.482        3.345      491.429       78.395        0.025      340.593       14.716      861.562
12/02/2013  09:08:00     -513.803     -184.564      -13.496      195.932      211.083       88.280    38389.238    44556.190     7793.383       19.447        4.537      545.946       93.229        0.029      340.555       14.653      861.544
12/02/2013  09:09:00     -211.096      -61.492       15.501      202.839      128.465       81.694    41143.515    16503.198     6673.842        5.644        3.216      219.870       90.143        0.168      340.505       14.569      861.570
12/02/2013  09:10:00     -387.388     -252.720      -27.629      194.687      193.579       95.803    37902.892    37472.999     9178.282       14.961        4.228      462.533      120.056        0.067      340.576       14.689      861.489
12/02/2013  09:11:00     -312.581     -217.759      -24.516      209.814      184.659       92.889    44021.874    34098.832     8628.414       11.622        4.337      380.953       98.730        0.067      340.581       14.698      861.504
12/02/2013  09:12:00     -533.869     -214.922      -35.559      242.349      201.821       96.706    58732.921    40731.600     9352.040       22.062        5.441      575.506      104.022        0.033      340.592       14.715      861.557
12/02/2013  09:13:00     -497.386     -152.083        9.807      254.858      291.764      108.519    64952.370    85126.141    11776.368       21.620        8.093      520.118      125.032        0.058      340.609       14.743      861.573
12/02/2013  09:14:00     -459.835     -174.833       -0.060      219.831      187.043       98.293    48325.770    34985.071     9661.542       16.747        4.649      491.950      109.461        0.050      340.589       14.711      861.581
12/02/2013  09:15:00     -387.159     -180.484       16.977      231.949      206.642      116.477    53800.291    42700.894    13566.929       14.639        5.503      427.161      111.974        0.069      340.564       14.669      861.622
12/02/2013  09:16:00     -283.000     -161.334        8.000      216.593      197.735      100.619    46912.326    39098.957    10124.193       10.114        4.807      325.757      118.612        0.133      340.569       14.677      861.651
12/02/2013  09:17:00     -208.655      -55.917        6.279      145.045      148.494       67.896    21037.948    22050.530     4609.828        4.719        2.385      216.018       74.422        0.119      340.483       14.530      861.702
12/02/2013  09:18:00     -419.301     -155.031      -12.659      255.259      194.517       82.960    65157.084    37836.756     6882.307       15.492        5.494      447.044       91.508        0.042      340.561       14.665      861.701
12/02/2013  09:19:00     -330.149      -81.627        6.260      224.687      140.093       86.585    50484.364    19626.109     7496.880        9.664        3.880      340.090       87.769        0.067      340.539       14.626      861.686
12/02/2013  09:20:00     -481.206     -228.009      -23.459      194.202      140.703       92.405    37714.522    19797.347     8538.693       17.506        3.303      532.491       83.934        0.025      340.570       14.679      861.700
12/02/2013  09:21:00     -256.526     -117.261        2.117      193.654      207.981       87.072    37501.953    43256.237     7581.550        8.393        4.417      282.056       98.988        0.123      340.496       14.555      861.641
12/02/2013  09:22:00     -261.036     -106.840      -12.490      179.566      143.822       90.309    32243.962    20684.774     8155.785        7.039        3.054      282.054       89.961        0.102      340.486       14.538      861.651
12/02/2013  09:23:00     -364.309     -162.503       -5.754      287.595      149.593      109.228    82710.611    22378.154    11930.862       13.807        5.851      398.909      139.753        0.123      340.541       14.630      861.635
12/02/2013  09:24:00     -312.097     -115.005      -10.851      215.240      146.332       88.619    46328.115    21413.170     7853.393        9.316        3.780      332.612      106.331        0.102      340.519       14.592      861.647
12/02/2013  09:25:00     -346.056     -188.545      -12.356      157.927      136.025       75.441    24940.843    18502.742     5691.369       10.229        2.457      394.086       67.608        0.029      340.505       14.569      861.678
12/02/2013  09:26:00     -395.944     -252.066      -29.201      223.414      193.873      112.023    49913.906    37586.783    12549.123       16.059        5.002      469.370      116.765        0.062      340.580       14.695      861.667
12/02/2013  09:27:00     -506.791     -124.876      -27.225      229.844      145.774       95.856    52828.093    21250.012     9188.395       17.820        4.163      521.949      113.494        0.047      340.618       14.759      861.685
12/02/2013  09:28:00     -464.920     -170.370       -8.804      209.089      162.081      104.684    43718.203    26270.274    10958.669       16.308        4.047      495.153      108.410        0.048      340.606       14.738      861.680
12/02/2013  09:29:00     -439.787     -202.247       -3.583      228.875      206.824      123.861    52383.693    42776.354    15341.665       17.239        5.525      484.063      130.629        0.073      340.585       14.704      861.658
12/02/2013  09:30:00     -276.808     -135.811       -7.643      176.937      159.288       82.498    31306.634    25372.817     6805.977        7.929        3.174      308.330       84.111        0.074      340.570       14.679      861.673
12/02/2013  09:31:00     -154.604      -50.656       15.495      153.003      109.322       68.745    23409.852    11951.263     4725.818        3.339        2.004      162.691       77.046        0.224      340.593       14.719      861.646
12/02/2013  09:32:00     -367.639     -222.083        3.901      272.317      184.350      124.268    74156.719    33985.031    15442.417       15.401        6.179      429.510      143.633        0.112      340.686       14.874      861.574
12/02/2013  09:33:00     -419.773     -304.180      -30.149      242.277      203.977      107.002    58698.140    41606.759    11449.522       19.068        5.588      518.396      107.078        0.043      340.772       15.020      861.562
12/02/2013  09:34:00     -398.836     -162.889      -11.196      174.427      190.606       80.577    30424.906    36330.484     6492.654       12.947        3.662      430.816       89.331        0.043      340.801       15.070      861.567
12/02/2013  09:35:00     -257.993     -161.890       11.581      225.291      170.492       91.900    50756.196    29067.482     8445.528        9.057        4.413      304.580       95.246        0.098      340.832       15.122      861.520
12/02/2013  09:36:00     -421.136     -139.503       -5.653      212.183      160.039      100.489    45021.675    25612.461    10097.981       13.877        4.037      443.640      113.458        0.065      340.824       15.109      861.526
12/02/2013  09:37:00     -478.460     -312.291      -18.830      280.885      283.159      126.949    78896.110    80178.768    16115.998       25.096        8.760      571.358      134.943        0.056      340.829       15.117      861.410
12/02/2013  09:38:00     -316.898     -289.688       -6.047      254.541      232.189      124.441    64791.075    53911.617    15485.485       15.926        6.709      429.353      140.806        0.108      340.870       15.184      861.454
12/02/2013  09:39:00     -483.195     -464.837      -23.369      282.411      284.625      142.662    79755.845    81011.650    20352.444       31.557        9.056      670.485      153.031        0.052      340.848       15.148      861.412
12/02/2013  09:40:00     -398.620     -231.494       -3.688      230.275      209.374      114.174    53026.728    43837.611    13035.781       16.118        5.495      460.964      125.744        0.074      340.884       15.209      861.383
12/02/2013  09:41:00     -508.323     -252.516      -22.090      246.391      223.492      101.437    60708.591    49948.462    10289.551       22.177        6.047      567.588      110.372        0.038      340.856       15.162      861.360
12/02/2013  09:42:00     -304.450     -246.761       -8.604      235.590      204.584      108.834    55502.707    41854.627    11844.929       13.141        5.460      391.894      129.019        0.108      340.869       15.185      861.310
12/02/2013  09:43:00     -387.561     -196.224       -7.003      266.964      201.309      119.680    71269.634    40525.337    14323.383       15.741        6.306      434.405      118.293        0.074      340.849       15.152      861.256
12/02/2013  09:44:00     -587.493     -273.021      -18.521      246.073      236.452      117.850    60552.051    55909.505    13888.707       27.517        6.518      647.834      134.794        0.043      340.830       15.120      861.221
12/02/2013  09:45:00     -489.506     -351.478       -0.589      261.550      198.611      126.445    68408.481    39446.504    15988.289       24.347        6.192      602.621      145.055        0.058      340.867       15.181      861.144
12/02/2013  09:46:00     -247.167     -210.359       17.514      257.410      173.908      114.112    66260.129    30244.036    13021.543       10.757        5.476      324.565      140.136        0.186      340.918       15.266      861.175
12/02/2013  09:47:00     -431.494     -185.802      -21.392      291.850      174.881      112.502    85176.528    30583.348    12656.667       17.477        6.421      469.797      121.276        0.067      340.940       15.305      861.224
12/02/2013  09:48:00     -416.174     -195.671        3.334      199.728      188.877      107.142    39891.156    35674.540    11479.350       14.925        4.352      459.878      106.749        0.054      340.959       15.337      861.240
12/02/2013  09:49:00     -506.538     -211.250      -15.255      304.507      245.099      115.953    92724.431    60073.432    13445.132       23.381        8.312      548.823      123.364        0.051      340.942       15.309      861.279
12/02/2013  09:50:00     -573.173     -291.891        8.943      340.056      222.451      113.004   115638.215    49484.252    12769.848       29.581        8.895      643.217      140.875        0.048      340.900       15.236      861.228
12/02/2013  09:51:00     -510.836     -353.298      -18.297      333.716      292.062      134.924   111366.415    85300.176    18204.390       30.045       10.744      621.106      174.337        0.079      340.903       15.242      861.153
12/02/2013  09:52:00     -430.304     -278.285      -15.616      230.783      188.267      116.771    53261.014    35444.430    13635.544       18.257        5.117      512.449      117.074        0.052      340.928       15.285      861.152
12/02/2013  09:53:00     -578.791     -396.403      -19.429      303.104      289.926      140.974    91871.894    84056.923    19873.721       34.412        9.790      701.523      143.328        0.042      340.903       15.241      861.115
12/02/2013  09:54:00     -459.290     -225.039       -6.144      238.737      237.229      109.046    56995.575    56277.487    11890.930       19.337        6.258      511.459      113.445        0.049      340.906       15.247      861.154
12/02/2013  09:55:00     -451.085     -288.361       -8.310      239.264      150.679       90.466    57247.478    22704.091     8184.024       18.740        4.407      535.378      105.013        0.038      340.934       15.295      861.219
12/02/2013  09:56:00     -539.049     -228.004      -16.041      268.724      213.518      112.273    72212.324    45589.905    12605.181       23.659        6.520      585.286      119.493        0.042      340.958       15.333      861.210
12/02/2013  09:57:00     -632.863     -373.965      -27.078      278.609      231.914      116.828    77622.779    53784.151    13648.685       34.305        7.253      735.095      124.407        0.029      340.958       15.334      861.178
12/02/2013  09:58:00     -503.901     -290.343        5.112      356.161      205.069      128.899   126850.948    42053.141    16614.850       26.184        9.276      581.563      162.300        0.078      341.018       15.437      861.155
12/02/2013  09:59:00     -527.118     -296.816       -0.758      325.755      224.218      133.050   106116.009    50273.491    17702.247       26.999        8.705      604.941      149.009        0.061      340.998       15.402      861.092
12/02/2013  10:00:00     -475.956     -259.918      -12.656      222.401      170.205      105.158    49462.071    28969.830    11058.218       19.185        4.475      542.302      109.044        0.040      341.056       15.501      861.126
12/02/2013  10:01:00     -310.802     -220.297       18.115      261.676      224.771      115.226    68474.215    50521.791    13277.130       13.884        6.614      380.957      141.426        0.138      341.111       15.594      861.110
12/02/2013  10:02:00     -346.190     -128.959        6.844      213.630      236.442      100.131    45637.881    55904.643    10026.144       12.402        5.578      369.429      100.506        0.074      341.097       15.570      861.099
12/02/2013  10:03:00     -740.748     -432.765      -42.332      316.985      240.185      127.098   100479.682    57688.798    16153.976       45.602        8.716      857.900      145.462        0.029      340.981       15.374      861.017
12/02/2013  10:04:00     -639.114     -427.974       -5.070      295.938      244.604      140.973    87579.378    59831.210    19873.503       37.944        8.364      769.174      145.141        0.036      340.958       15.335      861.000
12/02/2013  10:05:00     -601.444     -393.135      -20.598      296.902      241.039      142.363    88150.795    58099.644    20267.229       34.158        8.326      718.533      147.538        0.042      340.956       15.330      860.972
12/02/2013  10:06:00     -563.657     -329.195      -13.434      270.903      218.130      119.415    73388.281    47580.693    14259.998       28.072        6.761      652.747      126.080        0.037      340.929       15.286      860.991
12/02/2013  10:07:00     -520.811     -137.720      -26.161      230.317      215.586       98.362    53045.811    46477.506     9675.132       20.002        5.460      538.712      110.948        0.042      340.950       15.320      861.066
12/02/2013  10:08:00     -469.126     -281.258       -6.978      278.176      195.281      114.700    77382.074    38134.850    13156.167       21.393        6.434      546.978      130.475        0.057      340.965       15.345      861.036
12/02/2013  10:09:00     -545.123     -314.866      -16.120      346.453      281.936      131.655   120029.532    79488.027    17333.156       30.666       10.843      629.523      156.130        0.062      340.944       15.312      861.020
12/02/2013  10:10:00     -587.402     -321.253        1.300      297.029      269.447      141.457    88226.367    72601.473    20010.170       31.451        9.042      669.510      152.963        0.052      340.970       15.356      860.968
12/02/2013  10:11:00     -611.369     -343.959      -17.478      346.243      263.303      145.612   119884.209    69328.548    21202.790       35.136       10.521      701.484      152.334        0.047      340.968       15.351      860.947
12/02/2013  10:12:00     -438.418     -303.569        8.180      261.756      217.234      121.562    68516.278    47190.787    14777.364       20.743        6.524      533.258      133.910        0.063      340.999       15.404      860.980
12/02/2013  10:13:00     -490.500     -300.267       14.132      375.583      264.859      153.142   141062.928    70150.179    23452.459       28.276       11.733      575.110      186.639        0.105      340.990       15.389      860.984
12/02/2013  10:14:00     -525.204     -354.783      -28.569      301.765      257.647      133.040    91061.832    66382.176    17699.698       28.880        8.757      633.806      162.768        0.066      340.972       15.358      860.983
12/02/2013  10:15:00     -665.749     -362.556      -41.533      321.866      273.605      156.029   103597.623    74859.851    24345.138       38.956       10.140      758.069      170.069        0.050      340.945       15.313      860.973
12/02/2013  10:16:00     -471.060     -192.250       -9.649      262.436      217.368      109.916    68872.619    47248.764    12081.580       19.355        6.410      508.781      114.175        0.050      340.960       15.338      861.008
12/02/2013  10:17:00     -448.813     -250.419      -27.605      279.819      246.930      121.643    78298.703    60974.339    14796.951       20.946        7.703      513.948      137.795        0.072      340.964       15.345      861.060
12/02/2013  10:18:00     -603.912     -206.023      -20.704      246.529      214.698      114.583    60776.348    46095.265    13129.370       26.377        6.000      638.087      110.769        0.030      340.938       15.300      861.099
12/02/2013  10:19:00     -441.832     -251.586      -10.111      283.349      200.761      124.250    80286.736    40305.119    15437.943       19.729        6.801      508.439      133.361        0.069      340.960       15.339      861.074
12/02/2013  10:20:00     -445.552     -262.718       -1.286      256.207      198.075      118.280    65642.097    39233.800    13990.226       19.318        5.943      517.240      130.975        0.064      341.001       15.407      861.077
12/02/2013  10:21:00     -511.425     -337.628      -10.169      293.667      256.492      128.939    86240.299    65788.211    16625.148       27.212        8.433      612.820      135.257        0.049      341.058       15.505      861.069
12/02/2013  10:22:00     -543.972     -396.069      -14.984      302.901      235.944      128.198    91749.085    55669.723    16434.726       30.839        8.193      672.886      152.586        0.051      341.068       15.521      861.074
12/02/2013  10:23:00     -360.108     -174.371        7.835      268.590      183.964       95.578    72140.395    33842.676     9135.093       13.761        5.756      400.104      102.672        0.066      341.083       15.547      861.084
12/02/2013  10:24:00     -354.653     -151.901       14.246      301.988      192.807      120.124    91196.771    37174.483    14429.895       14.590        7.140      385.814      137.019        0.126      341.080       15.543      861.016
12/02/2013  10:25:00     -586.921     -214.868        0.047      317.280      237.614      140.173   100666.491    56460.539    19648.376       28.367        8.839      625.016      160.875        0.066      341.123       15.613      860.976
12/02/2013  10:26:00     -642.568     -227.682      -10.274      366.032      252.545      131.698   133979.535    63778.990    17344.392       33.993       10.755      681.713      163.055        0.057      341.133       15.630      860.996
12/02/2013  10:27:00     -575.474     -169.235       -3.909      256.285      219.614      132.078    65682.139    48230.099    17444.680       24.557        6.568      599.842      142.177        0.056      341.131       15.628      861.009
12/02/2013  10:28:00     -538.949     -274.884      -14.891      285.734      279.581      122.129    81643.955    78165.771    14915.542       27.045        8.736      605.002      152.865        0.064      341.138       15.640      860.986
12/02/2013  10:29:00     -620.663     -396.899      -21.601      278.831      256.112      140.083    77746.676    65593.221    19623.204       35.306        8.148      736.717      149.288        0.041      341.160       15.677      860.901
12/02/2013  10:30:00     -483.824     -345.726       -6.263      274.572      206.920      122.972    75389.771    42815.859    15122.140       24.346        6.666      594.653      118.507        0.040      341.198       15.740      860.931
12/02/2013  10:31:00     -764.270     -601.613      -29.209      341.233      286.130      159.714   116440.079    81870.520    25508.419       58.531       11.191      972.649      171.910        0.031      341.157       15.671      860.849
12/02/2013  10:32:00     -566.014     -442.753        4.638      358.155      252.271      150.300   128274.699    63640.643    22590.223       36.542       10.725      718.611      179.893        0.063      341.191       15.728      860.828
12/02/2013  10:33:00     -608.501     -289.182      -14.106      333.446      296.888      121.549   111185.966    88142.753    14774.259       33.406       10.705      673.721      142.632        0.045      341.171       15.695      860.874
12/02/2013  10:34:00     -588.564     -397.060        2.906      347.242      251.060      156.263   120576.892    63031.255    24418.084       35.601       10.401      709.975      176.946        0.062      341.178       15.708      860.835
12/02/2013  10:35:00     -600.701     -312.657      -11.145      286.725      239.900      120.757    82211.497    57552.123    14582.259       30.650        7.717      677.198      124.163        0.034      341.193       15.733      860.837
12/02/2013  10:36:00     -486.905     -352.860       -9.613      323.390      234.215      134.780   104580.982    54856.468    18165.630       26.961        8.880      601.321      168.920        0.079      341.206       15.755      860.837
12/02/2013  10:37:00     -579.250     -296.880        6.821      349.795      334.822      139.346   122356.250   112106.073    19417.276       33.875       12.694      650.898      171.324        0.069      341.195       15.734      860.811
12/02/2013  10:38:00     -677.473     -378.944      -24.160      302.112      232.633      124.551    91271.481    54117.995    15513.004       38.200        8.045      776.253      127.661        0.027      341.175       15.702      860.812
12/02/2013  10:39:00     -505.117     -256.031      -13.988      273.421      213.856      121.601    74758.861    45734.352    14786.692       22.806        6.764      566.300      121.822        0.046      341.166       15.687      860.762
12/02/2013  10:40:00     -434.368     -168.616      -16.614      247.886      233.583      120.259    61447.357    54560.950    14462.166       17.390        6.524      465.947      102.993        0.049      341.178       15.707      860.774
12/02/2013  10:41:00     -556.721     -272.983      -19.416      235.772      195.936      114.698    55588.501    38391.110    13155.572       24.596        5.357      620.047      114.649        0.034      341.161       15.678      860.752
12/02/2013  10:42:00     -381.080     -286.071      -10.035      225.155      167.337       97.707    50694.826    28001.505     9546.660       15.768        4.412      476.507       97.005        0.041      341.167       15.688      860.749
12/02/2013  10:43:00     -408.563     -240.763        6.376      327.216      231.978      114.661   107070.166    53813.656    13147.120       19.945        8.702      474.227      147.484        0.097      341.156       15.669      860.711
12/02/2013  10:44:00     -411.604     -175.189       -4.270      237.152      252.121      117.792    56241.241    63564.967    13874.966       16.688        6.684      447.335      121.180        0.073      341.139       15.640      860.675
12/02/2013  10:45:00     -391.894     -204.824        4.764      214.892      174.371       97.275    46178.686    30405.402     9462.502       14.078        4.302      442.192      106.509        0.058      341.133       15.631      860.727
12/02/2013  10:46:00     -457.871     -347.153       -0.676      244.995      289.389      139.458    60022.460    83746.091    19448.603       24.666        8.161      574.597      139.439        0.059      341.152       15.662      860.752
12/02/2013  10:47:00     -489.587     -316.148        3.597      262.722      176.167      118.059    69022.997    31034.876    13937.913       22.680        5.700      582.791      121.263        0.043      341.170       15.694      860.710
12/02/2013  10:48:00     -555.080     -317.110      -11.190      218.979      207.365      115.215    47951.912    43000.102    13274.412       25.649        5.211      639.275      120.096        0.035      341.166       15.687      860.693
12/02/2013  10:49:00     -467.283     -251.771       -9.999      193.882      134.201       99.117    37590.128    18009.896     9824.158       17.362        3.271      530.794      106.175        0.040      341.200       15.744      860.723
12/02/2013  10:50:00     -344.943     -129.199       10.353      235.080      179.133       96.466    55262.653    32088.744     9305.745       11.620        4.833      368.345      119.227        0.105      341.202       15.748      860.721
12/02/2013  10:51:00     -494.039     -260.206      -21.177      252.947      188.213       89.685    63982.187    35424.152     8043.451       20.982        5.372      558.375      119.673        0.046      341.134       15.632      860.649
12/02/2013  10:52:00     -437.860     -101.760      -10.305      252.067      161.926       95.632    63537.558    26220.181     9145.543       15.052        4.945      449.529      114.040        0.064      341.096       15.569      860.638
12/02/2013  10:53:00     -388.662     -242.911       13.123      297.531      247.347      131.001    88524.590    61180.564    17161.169       18.852        8.343      458.328      142.127        0.096      341.098       15.573      860.548
12/02/2013  10:54:00     -550.228     -308.261      -14.476      336.392      229.150      144.857   113159.293    52509.861    20983.442       29.228        9.333      630.695      161.106        0.065      341.114       15.598      860.468
12/02/2013  10:55:00     -566.279     -382.672      -24.785      304.551      230.302      121.230    92751.033    53038.962    14696.791       31.407        8.024      683.455      126.642        0.034      341.134       15.632      860.433
12/02/2013  10:56:00     -464.970     -338.590      -13.444      268.537      213.080      120.733    72112.330    45402.906    14576.507       23.153        6.605      575.187      125.196        0.047      341.132       15.629      860.402
12/02/2013  10:57:00     -337.035     -279.389       -7.586      239.606      227.374      120.145    57410.804    51698.946    14434.723       15.760        6.177      437.780      133.404        0.093      341.122       15.612      860.406
12/02/2013  10:58:00     -575.185     -460.427      -33.460      332.997      280.371      158.654   110886.742    78607.825    25171.063       37.927       10.733      736.771      165.040        0.050      341.110       15.592      860.322
12/02/2013  10:59:00     -478.224     -276.312       -6.252      293.314      232.121      122.770    86033.295    53879.943    15072.586       23.000        7.749      552.310      157.734        0.082      341.136       15.635      860.302
12/02/2013  11:00:00     -561.664     -360.106      -11.312      258.908      215.943      133.027    67033.469    46631.537    17696.291       28.829        6.568      667.191      149.315        0.050      341.147       15.653      860.278
12/02/2013  11:01:00     -392.884     -298.661       -4.934      277.674      187.858      117.608    77103.067    35290.586    13831.530       18.488        6.311      493.514      127.784        0.067      341.182       15.712      860.269
12/02/2013  11:02:00     -374.389     -190.634        4.349      270.446      199.707      101.449    73140.986    39882.718    10291.985       14.990        6.166      420.129      121.216        0.083      341.181       15.712      860.243
12/02/2013  11:03:00     -523.462     -282.409      -26.014      319.510      179.097      126.543   102086.572    32075.757    16013.139       25.228        7.509      594.784      159.433        0.072      341.189       15.725      860.242
12/02/2013  11:04:00     -496.332     -434.927      -14.711      275.464      235.456      132.358    75880.480    55439.398    17518.520       29.225        7.442      659.929      144.009        0.048      341.188       15.726      860.094
12/02/2013  11:05:00     -477.992     -309.025      -20.549      265.847      197.968      116.717    70674.734    39191.469    13622.853       22.392        6.174      569.186      136.555        0.058      341.183       15.716      860.109
12/02/2013  11:06:00     -489.319     -221.894       -6.901      324.350      274.422      138.589   105203.151    75307.689    19206.863       24.418        9.986      537.281      152.398        0.080      341.179       15.708      860.055
12/02/2013  11:07:00     -406.114     -201.451        1.748      276.072      255.451      116.541    76215.766    65255.315    13581.891       18.025        7.753      453.333      136.217        0.090      341.204       15.750      859.998
12/02/2013  11:08:00     -512.549     -390.236        1.024      267.623      236.088      131.913    71622.261    55737.386    17400.924       27.985        7.238      644.197      140.804        0.048      341.185       15.719      859.924
12/02/2013  11:09:00     -384.332     -128.288       14.413      272.071      161.030      112.277    74022.487    25930.686    12606.111       13.845        5.628      405.178      145.253        0.129      341.187       15.723      859.948
12/02/2013  11:10:00     -372.446     -226.554       11.555      238.561      220.768      131.849    56911.338    48738.315    17384.054       15.658        6.152      435.939      139.483        0.102      341.166       15.688      859.909
12/02/2013  11:11:00     -360.577     -231.366      -18.399      175.224      160.857       82.292    30703.528    25875.025     6772.013       12.360        3.168      428.423       88.493        0.043      341.156       15.669      859.902
12/02/2013  11:12:00     -273.769     -193.495       10.099      183.090      200.184      103.175    33521.938    40073.477    10645.085        9.835        4.212      335.246      111.189        0.110      341.172       15.698      859.838
12/02/2013  11:13:00     -360.959     -251.006       -0.423      215.246      219.351       96.186    46331.025    48114.969     9251.736       14.848        5.185      439.654      106.341        0.059      341.148       15.657      859.753
12/02/2013  11:14:00     -377.118     -290.730       20.619      278.364      179.067      107.495    77486.726    32064.875    11555.092       17.411        6.055      476.175      125.689        0.070      341.156       15.670      859.687
12/02/2013  11:15:00     -401.822     -179.035      -14.029      239.069      210.148      105.824    57153.817    44162.167    11198.626       15.309        5.626      439.903      104.804        0.057      341.185       15.718      859.672
12/02/2013  11:16:00     -434.863     -179.863      -19.720      233.054      162.212       93.862    54314.305    26312.889     8810.132       15.562        4.472      470.592       99.339        0.045      341.172       15.699      859.702
12/02/2013  11:17:00     -289.069     -175.184      -13.923      198.981      175.441       91.170    39593.377    30779.525     8311.901        9.655        3.934      338.010       90.830        0.072      341.177       15.706      859.683
12/02/2013  11:18:00     -495.200     -222.441      -30.053      271.570      234.936      114.813    73750.215    55194.900    13182.042       21.884        7.106      542.866      139.921        0.066      341.201       15.748      859.713
12/02/2013  11:19:00     -535.093     -101.742       -1.319      321.144      214.405      110.869   103133.437    45969.486    12291.886       22.900        8.070      544.680      120.504        0.049      341.178       15.708      859.656
12/02/2013  11:20:00     -611.295     -271.471      -13.358      337.517      277.675      137.515   113917.916    77103.595    18910.477       32.870       10.497      668.863      151.807        0.052      341.181       15.712      859.633
12/02/2013  11:21:00     -651.048     -390.407      -59.457      301.035      230.608      125.494    90622.326    53180.123    15748.713       36.965        7.978      759.132      146.261        0.037      341.190       15.726      859.586
12/02/2013  11:22:00     -372.554     -259.074       -4.315      223.939      138.057      101.648    50148.545    19059.783    10332.344       14.272        3.977      453.779      111.441        0.060      341.190       15.727      859.568
12/02/2013  11:23:00     -319.296     -224.367       12.647      256.667      187.199      112.212    65877.977    35043.644    12591.546       13.296        5.676      390.244      131.312        0.113      341.165       15.685      859.549
12/02/2013  11:24:00     -435.306     -305.670      -33.444      205.079      187.461       91.206    42057.495    35141.635     8318.558       18.476        4.276      531.907       98.295        0.034      341.135       15.632      859.502
12/02/2013  11:25:00     -320.381     -259.796      -29.679      235.850      187.576      108.594    55624.993    35184.709    11792.712       13.679        5.130      412.478       94.583        0.053      341.136       15.635      859.456
12/02/2013  11:26:00     -708.980     -410.501      -10.663      290.450      219.137      122.581    84360.945    48020.862    15026.071       40.931        7.370      819.246      141.971        0.030      341.122       15.611      859.430
12/02/2013  11:27:00     -627.061     -186.029      -14.873      234.942      258.382      117.144    55197.964    66761.275    13722.754       28.183        6.784      654.074      114.111        0.030      341.135       15.632      859.428
12/02/2013  11:28:00     -748.097     -395.000      -54.923      282.096      217.533      107.975    79577.989    47320.715    11658.691       42.860        6.928      845.976      125.959        0.022      341.192       15.729      859.414
12/02/2013  11:29:00     -565.748     -119.946      -21.353      292.224      232.629      121.510    85394.761    54116.127    14764.573       24.456        7.714      578.323      120.863        0.044      341.199       15.743      859.446
12/02/2013  11:30:00     -450.465     -212.315      -18.715      225.642      210.804      117.071    50914.338    44438.244    13705.670       17.868        5.453      497.993      110.456        0.049      341.190       15.728      859.474
12/02/2013  11:31:00     -606.444      -70.426      -22.297      345.623      276.559      141.079   119455.170    76484.689    19903.387       29.449       10.792      610.520      159.877        0.069      341.181       15.712      859.407
12/02/2013  11:32:00     -375.008     -199.692      -11.910      275.796      206.684      116.502    76063.578    42718.345    13572.781       15.648        6.618      424.862      130.760        0.095      341.150       15.659      859.350
12/02/2013  11:33:00     -336.231     -166.800      -21.414      270.519      164.665       95.525    73180.632    27114.506     9124.989       12.535        5.471      375.331      117.477        0.098      341.170       15.693      859.345
12/02/2013  11:34:00     -217.688     -130.765       17.794      202.106      150.114       89.828    40846.701    22534.095     8069.080        6.811        3.572      253.944       93.392        0.135      341.179       15.710      859.306
12/02/2013  11:35:00     -410.747     -116.206      -22.091      177.035      196.707       91.675    31341.354    38693.680     8404.397       13.056        3.922      426.868       95.029        0.050      341.198       15.739      859.317
12/02/2013  11:36:00     -577.053     -324.214       -0.253      320.273      292.494      148.573   102574.750    85552.905    22073.899       32.411       10.510      661.895      185.300        0.078      341.218       15.775      859.230
12/02/2013  11:37:00     -457.242     -315.072        3.753      287.564      214.583      106.538    82693.032    46045.968    11350.323       22.419        7.004      555.284      133.396        0.058      341.258       15.843      859.228
12/02/2013  11:38:00     -417.441      -66.656      -14.590      198.520      155.326       84.425    39410.178    24126.083     7127.568       12.477        3.533      422.729       83.041        0.039      341.268       15.862      859.277
12/02/2013  11:39:00     -576.602      -92.958      -33.549      201.451      127.216      101.574    40582.597    16183.811    10317.371       20.465        3.354      584.047      105.345        0.033      341.261       15.848      859.252
12/02/2013  11:40:00     -543.624     -295.867      -30.131      272.445      214.529      137.340    74226.502    46022.518    18862.164       26.151        6.956      618.922      153.406        0.061      341.253       15.834      859.187
12/02/2013  11:41:00     -494.999     -109.154        6.488      339.145      246.818      127.334   115019.545    60919.116    16213.856       22.453        9.608      506.891      163.743        0.104      341.291       15.900      859.159
12/02/2013  11:42:00     -314.686     -228.838        1.352      282.338      166.594      114.912    79714.770    27753.644    13204.845       13.601        6.034      389.094      142.748        0.135      341.300       15.915      859.167
12/02/2013  11:43:00     -410.037     -246.081      -27.602      219.581      152.698       88.279    48215.990    23316.670     7793.231       15.437        3.966      478.211       82.529        0.030      341.286       15.891      859.101
12/02/2013  11:44:00     -321.168     -201.122       -2.305      207.475      171.776       91.943    43045.703    29506.840     8453.555       11.229        4.050      378.945      112.052        0.087      341.275       15.871      859.040
12/02/2013  11:45:00     -372.177     -250.602       31.268      349.669      245.196      123.953   122268.552    60120.946    15364.467       19.999        9.888      448.684      173.041        0.149      341.329       15.964      858.981
12/02/2013  11:46:00     -532.696     -291.860      -20.848      239.901      167.051       91.370    57552.554    27905.952     8348.395       23.158        4.690      607.410      100.696        0.027      341.373       16.037      858.938
12/02/2013  11:47:00     -449.164     -130.585      -16.589      215.530      180.962      105.164    46453.238    32747.096    11059.365       15.465        4.513      467.761      117.249        0.063      341.392       16.069      858.928
12/02/2013  11:48:00     -335.628     -161.615      -11.940      240.685      174.033      111.051    57929.475    30287.421    12332.399       11.971        5.027      372.513      118.795        0.102      341.385       16.056      858.868
12/02/2013  11:49:00     -311.776      -99.966       16.575      209.263      175.372       77.022    43790.949    30755.493     5932.416        9.396        4.024      327.411       85.379        0.068      341.358       16.013      858.786
12/02/2013  11:50:00     -284.299     -133.947       10.942      220.179      181.043       92.761    48478.619    32776.654     8604.594        9.436        4.493      314.273      108.275        0.119      341.410       16.100      858.785
12/02/2013  11:51:00     -478.088     -103.907      -25.912      230.390      172.398      102.836    53079.560    29721.059    10575.177       16.669        4.669      489.249       85.952        0.031      341.452       16.170      858.746
12/02/2013  11:52:00     -456.125     -267.412        8.325      245.172      181.671      110.024    60109.204    33004.461    12105.389       19.240        5.261      528.733      122.987        0.054      341.593       16.409      858.777
12/02/2013  11:53:00     -572.445     -385.895      -15.561      316.128      265.366      153.079    99936.757    70419.315    23433.090       33.528        9.689      690.368      146.153        0.045      341.597       16.417      858.811
12/02/2013  11:54:00     -476.766     -266.609      -12.795      271.064      239.734      120.098    73475.860    57472.607    14423.446       22.193        7.269      546.248      131.880        0.058      341.566       16.365      858.840
12/02/2013  11:55:00     -443.402     -227.824        9.112      320.684      224.342      122.887   102837.995    50329.234    15101.258       20.840        8.413      498.507      145.184        0.085      341.521       16.287      858.838
12/02/2013  11:56:00     -571.534     -388.402      -30.645      273.434      243.523      126.262    74766.284    59303.333    15942.115       31.420        7.501      691.019      154.779        0.050      341.521       16.287      858.840
12/02/2013  11:57:00     -411.233     -131.381      -16.317      259.267      177.291       99.214    67219.582    31432.211     9843.362       14.755        5.425      431.710      128.558        0.089      341.535       16.312      858.810
12/02/2013  11:58:00     -392.354     -247.420       18.150      289.727      202.746      121.959    83941.477    41105.742    14873.879       17.768        6.996      463.852      150.160        0.105      341.551       16.339      858.770
12/02/2013  11:59:00     -498.229     -207.295      -16.922      354.052      220.975      130.934   125352.563    48829.778    17143.678       24.137        9.566      539.633      151.877        0.079      341.511       16.270      858.724
12/02/2013  12:00:00     -391.061     -257.550       -2.508      256.915      180.002      134.329    66005.336    32400.868    18044.353       16.784        5.823      468.252      150.394        0.103      341.499       16.250      858.679
12/02/2013  12:01:00     -398.991     -286.971       -8.129      249.782      201.065      118.095    62390.932    40427.302    13946.333       17.917        5.838      491.473      132.779        0.073      341.545       16.328      858.626
12/02/2013  12:02:00     -329.703     -188.661        6.403      236.200      186.752      102.455    55790.632    34876.447    10497.053       12.273        5.058      379.865      121.215        0.102      341.571       16.372      858.619
12/02/2013  12:03:00     -504.107     -262.568      -12.224      306.539      235.577      117.337    93966.107    55496.757    13767.989       24.319        8.162      568.389      129.590        0.052      341.568       16.367      858.579
12/02/2013  12:04:00     -554.929     -427.126       -3.345      325.576      264.563      135.904   105999.858    69993.790    18469.966       34.239        9.723      700.274      157.113        0.050      341.505       16.260      858.489
12/02/2013  12:05:00     -538.143     -323.085      -11.753      247.644      195.336      107.796    61327.796    38156.021    11619.955       25.259        5.555      627.680      105.717        0.028      341.480       16.218      858.483
12/02/2013  12:06:00     -461.151     -268.769       10.575      307.344      225.697      129.043    94460.583    50939.035    16652.034       22.350        8.103      533.758      156.774        0.086      341.486       16.228      858.413
12/02/2013  12:07:00     -398.345     -171.658       -1.193      262.428      188.411      103.384    68868.505    35498.883    10688.308       15.158        5.753      433.757      114.776        0.070      341.476       16.210      858.417
12/02/2013  12:08:00     -563.757     -369.705      -26.663      251.847      203.164      117.400    63427.008    41275.509    13782.722       28.683        5.924      674.168      113.759        0.028      341.507       16.265      858.424
12/02/2013  12:09:00     -567.027     -321.663      -19.033      379.633      225.063      131.840   144121.380    50653.282    17381.725       31.871       10.608      651.910      175.603        0.073      341.516       16.279      858.406
12/02/2013  12:10:00     -468.414     -363.763      -12.890      256.616      183.810      111.866    65852.006    33786.022    12514.090       23.200        5.608      593.072      126.435        0.045      341.580       16.389      858.482
12/02/2013  12:11:00     -378.999     -229.326        1.183      227.376      210.307       99.916    51699.708    44228.934     9983.251       15.105        5.296      442.979      112.814        0.065      341.659       16.522      858.472
12/02/2013  12:12:00     -264.370     -168.331       -5.607      207.418      188.482      112.759    43022.404    35525.604    12714.488        9.474        4.563      313.412      111.925        0.128      341.714       16.616      858.480
12/02/2013  12:13:00     -491.123     -357.767      -31.650      244.013      191.902      136.570    59542.182    36826.274    18651.281       24.259        5.751      607.618      128.217        0.045      341.669       16.540      858.373
12/02/2013  12:14:00     -326.484     -139.873       -7.804      185.923      148.945       85.481    34567.479    22184.485     7306.934        9.513        3.203      355.185       98.030        0.076      341.767       16.705      858.394
12/02/2013  12:15:00     -646.909     -296.255      -36.711      321.121      279.176      116.777   103118.379    77939.306    13636.845       35.111        9.735      711.518      132.115        0.034      341.747       16.672      858.432
12/02/2013  12:16:00     -681.325     -413.103      -35.295      406.532      280.624      131.908   165268.375    78749.562    17399.773       44.871       13.071      796.780      163.484        0.042      341.672       16.543      858.361
12/02/2013  12:17:00     -559.571     -383.367      -31.962      334.113      257.113      156.364   111631.815    66107.307    24449.575       33.161       10.109      678.300      179.341        0.070      341.689       16.573      858.397
12/02/2013  12:18:00     -456.227     -358.368       17.529      349.483      242.870      159.387   122138.270    58985.651    25404.159       27.166       10.326      580.147      158.917        0.075      341.700       16.592      858.387
12/02/2013  12:19:00     -396.464     -259.486      -19.126      294.345      250.015      122.853    86639.232    62507.596    15092.806       19.453        8.212      473.832      146.665        0.096      341.717       16.621      858.331
12/02/2013  12:20:00     -558.144     -315.838      -27.109      250.360      288.826      132.000    62680.350    83420.553    17423.941       28.774        8.176      641.310      138.903        0.047      341.664       16.530      858.321
12/02/2013  12:21:00     -792.506     -320.017      -50.854      396.438      294.545      145.162   157163.360    86756.707    21072.147       49.898       13.250      854.680      163.647        0.037      341.619       16.454      858.230
12/02/2013  12:22:00     -622.410     -411.747      -23.040      311.738      256.677      133.263    97180.807    65883.220    17758.931       36.911        9.041      746.277      155.428        0.043      341.620       16.456      858.163
12/02/2013  12:23:00     -613.191     -383.498      -24.786      284.062      234.995      124.410    80691.188    55222.599    15477.868       33.751        7.570      723.238      123.120        0.029      341.626       16.466      858.105
12/02/2013  12:24:00     -559.899     -286.970      -22.047      316.097      202.937      125.667    99917.300    41183.585    15792.150       27.658        7.845      629.157      150.659        0.057      341.614       16.447      858.061
12/02/2013  12:25:00     -482.810     -351.538      -24.611      269.092      213.964      116.224    72410.599    45780.652    13507.907       24.447        6.585      597.231      134.537        0.051      341.694       16.580      858.051
12/02/2013  12:26:00     -592.970     -434.652      -26.871      305.377      225.930      125.224    93255.083    51044.205    15681.027       35.059        7.999      735.211      150.622        0.042      341.674       16.548      858.062
12/02/2013  12:27:00     -494.352     -274.554       -0.930      289.750      187.785      116.838    83955.154    35263.282    13651.100       22.629        6.643      565.476      131.603        0.054      341.746       16.669      858.038
12/02/2013  12:28:00     -434.084     -150.020      -26.542      299.056      204.349      108.482    89434.738    41758.510    11768.265       17.727        7.148      459.276      132.453        0.083      341.872       16.883      858.070
12/02/2013  12:29:00     -667.966     -261.415      -29.099      348.375      247.218      155.964   121365.344    61116.841    24324.821       36.104       10.340      717.298      169.344        0.056      341.745       16.668      858.083
12/02/2013  12:30:00     -561.158     -183.179      -25.547      249.331      190.043      115.223    62165.762    36116.447    13276.245       23.031        5.578      590.299      116.421        0.039      341.711       16.610      858.099
12/02/2013  12:31:00     -620.173     -410.662      -22.143      289.586      256.753      122.226    83859.860    65922.273    14939.272       35.920        8.236      743.812      139.697        0.035      341.651       16.509      858.049
12/02/2013  12:32:00     -503.673     -305.881      -24.931      243.676      248.803      124.126    59378.042    61903.078    15407.230       24.225        6.834      589.279      131.135        0.050      341.709       16.606      858.059
12/02/2013  12:33:00     -579.960     -199.713      -16.124      260.303      231.170      107.173    67757.393    53439.436    11485.969       25.456        6.634      613.383      121.644        0.039      341.756       16.686      858.071
12/02/2013  12:34:00     -376.618     -368.331       16.230      308.640      320.086      151.429    95258.583   102454.796    22930.740       24.916       11.032      526.791      176.275        0.112      341.627       16.467      858.015
12/02/2013  12:35:00     -730.389     -425.345      -22.932      398.177      229.944      142.281   158544.865    52874.063    20243.973       47.324       11.583      845.214      157.122        0.035      341.471       16.202      857.927
12/02/2013  12:36:00     -656.340     -501.171      -37.144      349.870      280.478      150.289   122409.260    78667.877    22586.785       45.345       11.183      825.806      178.791        0.047      341.535       16.312      857.895
12/02/2013  12:37:00     -762.262     -428.979      -18.307      402.010      312.582      144.755   161612.266    97707.506    20954.098       52.278       14.014      874.681      153.392        0.031      341.509       16.268      857.888
12/02/2013  12:38:00     -550.584     -367.088      -29.099      319.739      208.859      136.613   102233.253    43621.895    18663.015       30.160        8.226      661.738      152.073        0.053      341.508       16.267      857.897
12/02/2013  12:39:00     -635.397     -405.579      -27.091      355.541      249.161      132.956   126409.260    62081.041    17677.269       38.752       10.308      753.806      162.512        0.046      341.514       16.277      857.904
12/02/2013  12:40:00     -385.299     -239.616       36.408      332.278      221.281      145.516   110408.812    48965.070    21174.961       19.384        9.027      453.730      162.426        0.128      341.536       16.313      857.900
12/02/2013  12:41:00     -495.292     -294.469        4.000      256.399      215.402      111.307    65740.645    46398.122    12389.351       22.826        6.226      576.217      119.525        0.043      341.579       16.385      857.900
12/02/2013  12:42:00     -472.341     -365.591       -4.204      293.561      214.196      131.244    86177.967    45880.039    17224.987       25.300        7.464      597.296      146.382        0.060      341.628       16.469      857.882
12/02/2013  12:43:00     -527.879     -311.839      -20.886      372.693      248.757      125.573   138899.755    61880.157    15768.600       29.640       10.827      613.107      157.280        0.066      341.644       16.496      857.857
12/02/2013  12:44:00     -540.949     -224.800        3.793      394.929      265.269      137.968   155969.044    70367.410    19035.268       29.422       12.269      585.799      174.063        0.088      341.653       16.511      857.807
12/02/2013  12:45:00     -778.957     -443.047      -36.221      428.701      324.483      161.127   183784.862   105288.918    25962.044       55.964       15.752      896.138      187.623        0.044      341.500       16.251      857.791
12/02/2013  12:46:00     -457.486     -260.553      -25.965      340.144      257.345      147.668   115697.971    66226.393    21805.884       24.075       10.187      526.480      155.719        0.087      341.488       16.233      857.720
12/02/2013  12:47:00     -721.680     -468.456      -27.736      325.868      277.015      162.184   106189.703    76737.493    26303.616       47.509       10.462      860.391      168.331        0.038      341.535       16.311      857.700
12/02/2013  12:48:00     -574.537     -383.098       -9.517      385.335      325.744      176.106   148482.866   106108.870    31013.448       38.122       14.280      690.548      213.596        0.096      341.617       16.451      857.684
12/02/2013  12:49:00     -465.486     -159.956        5.605      300.463      192.317       98.995    90278.270    36985.797     9799.987       18.965        6.853      492.202      118.890        0.058      341.736       16.652      857.734
12/02/2013  12:50:00     -484.287     -260.458      -14.857      294.619      216.053      116.716    86800.127    46679.086    13622.734       22.482        7.355      549.884      117.339        0.046      341.714       16.616      857.744
12/02/2013  12:51:00     -558.203     -247.835        6.629      303.282      321.405      135.966    91979.711   103301.108    18486.736       29.337       10.688      610.748      147.239        0.058      341.653       16.513      857.704
12/02/2013  12:52:00     -633.259     -237.889      -27.549      316.651      275.322      141.665   100267.634    75802.323    20068.943       32.721        9.807      676.468      165.664        0.060      341.564       16.361      857.745
12/02/2013  12:53:00     -432.953     -230.921      -10.545      305.346      229.434      134.008    93236.105    52639.786    17958.111       20.233        8.192      490.686      155.642        0.101      341.630       16.472      857.722
12/02/2013  12:54:00     -584.374     -345.705      -28.169      384.621      248.895      138.551   147933.409    61948.761    19196.477       34.539       11.454      678.973      186.192        0.075      341.612       16.441      857.648
12/02/2013  12:55:00     -653.149     -315.926      -30.316      317.490      244.164      134.849   100799.892    59615.816    18184.152       35.293        8.930      725.543      147.635        0.041      341.525       16.296      857.605
12/02/2013  12:56:00     -669.847     -190.126      -12.896      418.572      273.275      139.701   175202.281    74679.381    19516.299       37.715       13.470      696.307      187.684        0.073      341.564       16.361      857.569
12/02/2013  12:57:00     -680.174     -348.903      -19.723      348.506      309.640      153.123   121456.661    95876.645    23446.744       41.272       12.039      764.441      177.035        0.054      341.554       16.345      857.528
12/02/2013  12:58:00     -392.812     -394.311       -8.905      299.710      275.424      169.201    89825.826    75858.416    28629.067       25.205        9.716      556.582      174.750        0.099      341.594       16.411      857.500
12/02/2013  12:59:00     -472.195     -356.494      -19.060      315.866      251.369      143.204    99771.582    63186.325    20507.454       26.691        9.173      591.655      190.775        0.104      341.613       16.446      857.500
12/02/2013  13:00:00     -595.556     -322.767      -22.717      344.279      240.366      136.564   118528.172    57775.964    18649.786       32.713        9.748      677.396      177.499        0.069      341.590       16.406      857.505
12/02/2013  13:01:00     -709.951     -316.051      -45.722      331.856      320.684      144.391   110128.177   102838.103    20848.721       41.987       11.691      777.122      166.299        0.046      341.597       16.418      857.490
12/02/2013  13:02:00     -693.492     -257.166      -10.002      319.579      210.315      137.542   102130.533    44232.336    18917.756       35.619        8.264      739.639      162.988        0.049      341.584       16.395      857.482
12/02/2013  13:03:00     -393.432     -267.248       13.676      292.207      238.295      130.848    85384.690    56784.538    17121.179       19.281        7.965      475.616      149.359        0.099      341.647       16.502      857.493
12/02/2013  13:04:00     -613.542     -147.797      -17.052      325.600      226.928      128.765   106015.366    51496.467    16580.465       28.630        8.705      631.092      141.816        0.050      341.621       16.458      857.475
12/02/2013  13:05:00     -568.587     -303.941        6.767      349.353      283.286      155.643   122047.394    80251.049    24224.808       32.108       11.326      644.726      180.820        0.079      341.535       16.312      857.430
12/02/2013  13:06:00     -631.672     -303.316       -4.919      354.217      294.601      129.472   125469.797    86790.006    16763.001       35.998       11.451      700.721      159.154        0.052      341.554       16.343      857.408
12/02/2013  13:07:00     -502.548     -213.787        9.557      249.498      242.491      119.927    62249.162    58802.004    14382.492       21.686        6.772      546.131      114.621        0.044      341.569       16.370      857.415
12/02/2013  13:08:00     -542.251     -283.287      -25.761      300.596      304.630      134.964    90358.222    92799.336    18215.382       28.812       10.069      611.791      155.178        0.064      341.584       16.395      857.429
12/02/2013  13:09:00     -479.328     -247.821        0.344      323.965      253.139      142.066   104953.602    64079.598    20182.869       24.016        9.461      539.603      167.671        0.097      341.596       16.416      857.457
12/02/2013  13:10:00     -691.910     -340.145        4.414      407.981      263.451      166.223   166448.830    69406.369    27630.220       42.892       13.174      770.998      206.470        0.072      341.508       16.265      857.386
12/02/2013  13:11:00     -697.277     -360.119      -27.472      344.904      275.093      138.952   118958.450    75676.331    19307.733       41.525       10.697      784.780      149.771        0.036      341.544       16.328      857.434
12/02/2013  13:12:00     -613.618     -466.355      -42.470      338.913      263.200      152.665   114861.702    69274.429    23306.497       40.159       10.372      770.723      172.685        0.050      341.537       16.316      857.428
12/02/2013  13:13:00     -491.463     -324.892       -0.479      347.796      254.594      152.646   120962.391    64818.102    23300.832       27.804       10.454      589.144      166.329        0.080      341.591       16.407      857.461
12/02/2013  13:14:00     -525.344     -331.781       -1.171      326.436      237.657      144.730   106560.488    56480.897    20946.636       28.499        9.199      621.342      162.383        0.068      341.563       16.358      857.446
12/02/2013  13:15:00     -540.566     -360.223       -6.869      341.819      286.532      161.877   116840.038    82100.557    26204.034       32.354       11.257      649.594      179.238        0.076      341.545       16.330      857.398
12/02/2013  13:16:00     -535.724     -247.064       -5.303      363.193      251.552      132.515   131909.080    63278.375    17560.214       28.037       10.637      589.950      160.988        0.074      341.566       16.365      857.385
12/02/2013  13:17:00     -770.892     -489.247      -49.327      444.118      303.870      162.580   197240.853    92337.046    26432.179       57.598       15.801      913.038      189.616        0.043      341.489       16.233      857.302
12/02/2013  13:18:00     -757.044     -380.393      -17.902      410.716      303.881      196.334   168687.479    92343.362    38547.148       50.880       14.979      847.239      230.083        0.074      341.506       16.263      857.288
12/02/2013  13:19:00     -724.588     -323.477      -20.330      393.563      288.676      161.700   154891.745    83334.101    26146.931       44.717       13.219      793.514      199.494        0.063      341.477       16.212      857.278
12/02/2013  13:20:00     -820.902     -159.058      -46.464      329.750      311.111      130.775   108734.932    96790.129    17102.108       46.194       11.131      836.169      149.526        0.032      341.557       16.349      857.324
12/02/2013  13:21:00     -434.614     -131.828        2.022      315.651      232.197      126.024    99635.419    53915.351    15882.055       18.782        8.472      454.167      124.911        0.076      341.588       16.401      857.320
12/02/2013  13:22:00     -645.641     -395.706      -13.926      358.608      314.748      165.586   128599.839    99066.111    27418.613       41.431       12.754      757.255      179.063        0.056      341.447       16.162      857.286
12/02/2013  13:23:00     -705.928     -253.741      -16.270      367.169      240.867      159.142   134813.313    58016.830    25326.287       39.053       10.908      750.145      174.197        0.054      341.428       16.129      857.239
12/02/2013  13:24:00     -523.156     -176.144       -4.169      310.549      196.488      113.245    96440.636    38607.480    12824.393       22.627        7.394      552.013      134.585        0.059      341.503       16.258      857.267
12/02/2013  13:25:00     -449.527     -242.176       16.309      297.302      183.721      125.736    88388.261    33753.339    15809.546       19.944        6.898      510.611      145.661        0.081      341.536       16.314      857.236
12/02/2013  13:26:00     -618.403     -508.661      -25.557      319.252      284.359      141.253   101921.905    80859.837    19952.521       42.223       10.137      800.724      165.670        0.043      341.422       16.120      857.140
12/02/2013  13:27:00     -484.623     -389.595      -27.584      393.538      285.287      145.810   154871.903    81388.675    21260.608       32.241       12.876      621.807      186.096        0.090      341.468       16.198      857.077
12/02/2013  13:28:00     -499.733     -271.420        2.968      348.229      231.614      136.715   121263.416    53645.093    18690.857       25.847        9.680      568.684      154.595        0.074      341.522       16.289      857.108
12/02/2013  13:29:00     -789.871     -437.502      -44.663      325.485      303.097      163.757   105940.427    91867.689    26816.503       52.092       11.231      902.942      167.019        0.034      341.389       16.064      857.058
12/02/2013  13:30:00     -763.424     -493.062      -29.704      336.809      268.328      162.416   113440.331    72000.034    26378.907       51.927       10.591      908.805      173.420        0.036      341.389       16.064      857.057
12/02/2013  13:31:00     -709.076     -267.335      -20.714      352.948      246.285      133.305   124572.138    60656.428    17770.156       38.880       10.150      757.797      165.748        0.048      341.377       16.044      857.069
12/02/2013  13:32:00     -508.818     -320.136      -14.636      283.553      238.423      140.370    80402.308    56845.363    19703.690       25.924        7.848      601.152      150.479        0.063      341.457       16.179      857.094
12/02/2013  13:33:00     -501.646     -110.677       12.554      416.438      244.300      113.266   173420.254    59682.714    12829.232       25.494       12.297      513.710      141.157        0.076      341.516       16.280      857.149
12/02/2013  13:34:00     -369.719     -134.348      -21.170      288.692      252.393      115.402    83342.838    63702.130    13317.696       15.774        8.018      393.372      127.453        0.105      341.508       16.266      857.190
12/02/2013  13:35:00     -662.423     -412.529      -37.567      324.738      254.872      137.644   105454.619    64959.810    18945.959       39.984        9.468      780.375      161.314        0.043      341.457       16.180      857.182
12/02/2013  13:36:00     -463.758     -298.268      -32.751      292.993      215.953      111.748    85844.976    46635.528    12487.705       22.501        7.248      551.394      135.538        0.060      341.524       16.293      857.216
12/02/2013  13:37:00     -484.900     -217.429       -9.533      280.246      218.668      105.302    78537.959    47815.587    11088.603       20.994        6.872      531.416      118.344        0.050      341.549       16.335      857.213
12/02/2013  13:38:00     -549.714     -186.403       16.718      420.066      278.955      150.661   176455.605    77816.137    22698.793       30.704       13.849      580.458      186.129        0.103      341.544       16.326      857.235
12/02/2013  13:39:00     -519.188     -137.952      -10.477      363.248      227.353      132.087   131948.829    51689.423    17446.861       24.485       10.054      537.203      146.775        0.075      341.482       16.222      857.251
12/02/2013  13:40:00     -572.950     -117.079       -6.530      272.366      234.483      126.755    74183.332    54982.363    16066.713       24.360        7.262      584.790      136.763        0.055      341.479       16.217      857.253
12/02/2013  13:41:00     -624.437     -212.715      -29.555      268.182      205.333      119.936    71921.616    42161.470    14384.722       28.223        6.423      659.673      121.142        0.034      341.456       16.176      857.250
12/02/2013  13:42:00     -564.368     -217.574      -26.374      251.173      245.306      115.826    63087.959    60175.244    13415.617       25.159        6.834      604.855      104.305        0.030      341.457       16.179      857.207
12/02/2013  13:43:00     -330.732     -159.095       -6.734      307.525      192.123      123.310    94571.333    36911.108    15205.416       14.068        7.334      367.008      130.009        0.125      341.492       16.239      857.190
12/02/2013  13:44:00     -445.718     -156.823       -3.000      256.709      212.048      114.723    65899.617    44964.428    13161.478       17.362        6.201      472.501      118.355        0.063      341.511       16.270      857.219
12/02/2013  13:45:00     -577.995     -178.466       -4.166      364.157      277.708      131.794   132610.618    77121.838    17369.640       29.648       11.355      604.920      157.168        0.068      341.403       16.087      857.146
12/02/2013  13:46:00     -597.125     -212.290        8.060      339.892      292.142      139.536   115526.843    85346.774    19470.394       31.097       11.017      633.739      165.699        0.068      341.372       16.035      857.165
12/02/2013  13:47:00     -492.950     -176.047       -7.022      317.299      201.911      113.051   100678.491    40767.859    12780.464       21.410        7.711      523.443      138.229        0.070      341.371       16.035      857.108
12/02/2013  13:48:00     -768.545     -340.850      -46.822      279.633      280.520      132.011    78194.663    78691.416    17426.883       44.164        8.716      840.738      126.872        0.023      341.353       16.001      857.118
12/02/2013  13:49:00     -787.964     -295.420      -30.513      338.029      264.249      149.468   114263.616    69827.532    22340.681       45.772       10.322      841.522      163.985        0.038      341.312       15.934      857.089
12/02/2013  13:50:00     -517.033      -95.709       -5.567      317.670      204.745      117.697   100914.533    41920.694    13852.683       21.657        7.834      525.817      136.697        0.068      341.354       16.005      857.166
12/02/2013  13:51:00     -451.814     -341.004        7.907      297.264      298.956      137.822    88366.100    89374.438    18995.032       25.857        9.837      566.056      150.637        0.071      341.370       16.031      857.146
12/02/2013  13:52:00     -750.512     -422.837      -19.254      400.168      288.033      172.532   160134.710    82962.851    29767.287       50.759       13.643      861.429      208.023        0.058      341.283       15.885      857.100
12/02/2013  13:53:00     -619.778     -319.671      -20.434      279.505      229.336      129.128    78123.295    52595.067    16674.147       31.703        7.370      697.363      140.109        0.040      341.285       15.888      857.080
12/02/2013  13:54:00     -426.247     -139.886       -5.789      246.147      214.575      111.933    60588.566    46042.416    12528.937       16.020        5.958      448.614      121.438        0.073      341.387       16.061      857.113
12/02/2013  13:55:00     -498.408     -131.785      -17.010      214.050      155.809       94.847    45817.317    24276.367     8995.859       17.256        3.954      515.537      100.064        0.038      341.408       16.096      857.132
12/02/2013  13:56:00     -320.538     -254.898       -5.273      236.314      195.001       96.539    55844.363    38025.396     9319.723       13.545        5.159      409.534      118.148        0.083      341.434       16.139      857.124
12/02/2013  13:57:00     -208.871     -153.450        0.551      203.922      150.857       97.624    41584.298    22757.854     9530.434        7.051        3.694      259.180      100.710        0.151      341.493       16.240      857.117
12/02/2013  13:58:00     -555.036     -198.310      -47.782      179.553      138.429       85.507    32239.233    19162.668     7311.445       20.418        2.936      589.400       64.705        0.012      341.465       16.193      857.150
12/02/2013  13:59:00     -569.089     -159.144      -18.202      271.918      232.490      110.069    73939.369    54051.376    12115.174       24.479        7.005      590.922       97.141        0.027      341.378       16.044      857.109
12/02/2013  14:00:00     -533.776     -298.478      -27.585      264.180      195.562      108.030    69791.071    38244.624    11670.541       24.721        5.985      611.560      118.479        0.038      341.310       15.931      857.035
12/02/2013  14:01:00     -584.343     -164.943      -17.545      244.865      225.817       96.625    59959.108    50993.442     9336.345       24.461        6.014      607.176      107.471        0.031      341.320       15.947      856.975
12/02/2013  14:02:00     -493.401     -103.833       12.443      261.100      212.689      108.978    68172.963    45236.688    11876.290       18.981        6.264      504.208      119.074        0.056      341.366       16.024      857.004
12/02/2013  14:03:00     -660.949     -152.886      -46.325      260.985      257.411      104.656    68113.237    66260.491    10952.878       30.382        7.266      678.401      113.222        0.028      341.329       15.962      856.987
12/02/2013  14:04:00     -537.826     -165.613        5.866      361.077      238.263      126.775   130376.893    56769.329    16071.839       25.993       10.161      562.747      149.212        0.070      341.367       16.027      857.025
12/02/2013  14:05:00     -403.233     -164.713      -12.963      234.970      213.963      101.702    55210.901    45780.057    10343.278       15.059        5.567      435.577      125.803        0.083      341.400       16.082      857.069
12/02/2013  14:06:00     -410.500     -150.202      -15.499      240.642      184.658      101.231    57908.579    34098.664    10247.711       14.676        5.113      437.117      120.139        0.076      341.388       16.062      857.118
12/02/2013  14:07:00     -445.556     -305.503      -16.850      270.662      272.244      128.258    73257.670    74116.553    16450.087       22.795        8.191      540.233      145.986        0.073      341.302       15.917      857.068
12/02/2013  14:08:00     -433.702     -320.348       -2.321      254.595      205.696      110.311    64818.767    42310.759    12168.558       20.499        5.965      539.185      130.803        0.059      341.299       15.911      857.073
12/02/2013  14:09:00     -668.219     -262.260      -17.883      379.298      282.685      137.600   143866.791    79911.071    18933.704       37.912       12.136      717.842      180.203        0.063      341.209       15.759      857.050
12/02/2013  14:10:00     -589.106     -281.315      -31.317      310.463      271.693      129.289    96387.153    73817.072    16715.665       30.701        9.346      652.828      156.524        0.057      341.178       15.705      857.020
12/02/2013  14:11:00     -883.246     -335.340      -41.089      367.846      272.889      136.052   135310.400    74468.656    18510.211       56.123       11.414      944.763      169.163        0.032      341.127       15.620      857.009
12/02/2013  14:12:00     -553.458     -306.052       -4.178      342.498      271.549      146.877   117304.665    73739.099    21572.870       30.627       10.631      632.443      175.801        0.077      341.127       15.620      856.967
12/02/2013  14:13:00     -445.730     -268.351       16.332      321.418      247.344      125.219   103309.276    61179.286    15679.799       22.552        9.008      520.276      158.784        0.093      341.137       15.637      856.988
12/02/2013  14:14:00     -468.777     -284.594      -14.534      282.810      230.292      140.248    79981.499    53034.533    19669.511       22.679        7.634      548.403      140.270        0.065      341.140       15.642      856.989
12/02/2013  14:15:00     -264.419      -83.110       22.917      257.325      169.133      126.538    66216.220    28605.982    16011.851        9.407        5.542      277.173      138.360        0.249      341.201       15.746      857.042
12/02/2013  14:16:00     -542.677     -391.484      -22.428      324.978      251.561      147.466   105610.895    63283.143    21746.173       31.941        9.532      669.147      179.441        0.072      341.089       15.558      857.014
12/02/2013  14:17:00     -743.898     -431.623      -12.422      419.476      266.280      149.705   175960.298    70905.109    22411.516       50.450       13.464      860.048      189.171        0.048      340.991       15.391      856.958
12/02/2013  14:18:00     -617.567     -434.272      -20.986      329.053      275.173      148.653   108275.965    75720.044    22097.727       38.822       10.305      754.971      165.875        0.048      340.981       15.375      856.936
12/02/2013  14:19:00     -728.449     -325.187      -22.764      302.512      274.467      133.105    91513.739    75331.941    17717.060       41.070        9.228      797.737      138.925        0.030      340.980       15.371      856.907
12/02/2013  14:20:00     -493.696     -188.464      -10.373      212.893      209.653      103.870    45323.470    43954.323    10789.015       18.969        5.003      528.445      110.644        0.044      341.000       15.405      856.918
12/02/2013  14:21:00     -559.794      -97.358      -27.260      270.049      200.169      113.381    72926.616    40067.438    12855.145       22.469        6.292      568.197      109.876        0.037      341.024       15.447      856.899
12/02/2013  14:22:00     -600.828     -194.939       -0.495      273.033      220.370      109.561    74546.848    48562.730    12003.650       26.703        6.756      631.661      112.016        0.031      341.018       15.437      856.892
12/02/2013  14:23:00     -472.355     -256.387        0.284      321.463      243.780      118.760   103338.172    59428.830    14104.026       23.283        8.844      537.451      147.367        0.075      340.999       15.403      856.859
12/02/2013  14:24:00     -813.716     -371.913      -53.771      324.701      232.622      123.575   105430.970    54112.931    15270.691       48.904        8.741      894.680      123.353        0.019      340.937       15.299      856.820
12/02/2013  14:25:00     -472.351     -261.719        8.188      336.878      250.513      139.326   113486.523    62756.892    19411.719       24.363        9.783      540.011      161.564        0.090      340.933       15.292      856.805
12/02/2013  14:26:00     -530.400     -288.277        3.076      329.042      227.738      130.520   108268.883    51864.597    17035.393       27.077        8.858      603.679      152.575        0.064      340.898       15.232      856.812
12/02/2013  14:27:00     -468.872     -241.802      -30.797      325.223      225.760      113.073   105769.814    50967.735    12785.583       22.436        8.476      527.550      127.991        0.059      340.890       15.219      856.830
12/02/2013  14:28:00     -672.391     -253.959      -24.718      267.622      279.302      125.327    71621.444    78009.742    15706.934       34.124        8.267      718.753      118.739        0.027      340.862       15.171      856.853
12/02/2013  14:29:00     -590.863     -255.699      -30.057      275.319      195.740      112.105    75800.564    38314.187    12567.507       27.102        6.334      643.818      128.646        0.040      340.904       15.245      856.928
12/02/2013  14:30:00     -571.379     -365.169      -20.559      298.349      280.292      128.778    89012.132    78563.435    16583.815       32.216        9.208      678.102      146.117        0.046      340.847       15.145      856.866
12/02/2013  14:31:00     -529.185     -278.371      -12.105      250.922      245.774      127.253    62961.964    60404.866    16193.258       24.859        6.978      597.936      106.256        0.032      340.842       15.138      856.894
12/02/2013  14:32:00     -754.960     -289.378      -42.896      363.131      261.380      128.810   131864.333    68319.757    16592.137       43.612       10.839      808.520      141.708        0.031      340.797       15.063      856.929
12/02/2013  14:33:00     -669.800     -270.309      -29.038      265.503      299.818      128.135    70491.643    89891.013    16418.636       34.964        8.840      722.287      129.219        0.032      340.790       15.051      856.928
12/02/2013  14:34:00     -508.900     -324.314      -27.198      247.843      215.212      120.007    61426.329    46316.274    14401.756       24.350        6.107      603.456      122.011        0.041      340.822       15.106      856.968
12/02/2013  14:35:00     -360.953     -213.752       -1.129      181.872      212.935      109.905    33077.514    45341.270    12079.161       13.322        4.525      419.496      102.212        0.059      340.843       15.138      856.980
12/02/2013  14:36:00     -345.140      -53.822       10.646      229.507      166.833       99.495    52673.600    27833.153     9899.310       10.625        4.520      349.311       89.751        0.066      340.872       15.191      857.009
12/02/2013  14:37:00     -479.759     -157.012      -33.241      280.159      235.221      112.716    78488.808    55328.738    12704.849       20.120        7.326      504.799      124.499        0.061      340.837       15.129      856.982
12/02/2013  14:38:00     -558.190     -328.157       -4.559      328.002      237.585      144.572   107585.096    56446.529    20901.206       30.207        9.247      647.505      169.569        0.069      340.790       15.051      856.931
12/02/2013  14:39:00     -585.605     -155.159      -10.567      324.184      290.096      142.058   105095.008    84155.914    20180.535       28.823       10.472      605.812      174.168        0.083      340.778       15.031      856.927
12/02/2013  14:40:00     -546.316     -165.152      -42.705      280.699      203.009      113.660    78791.995    41212.834    12918.689       23.022        6.646      570.733      107.892        0.036      340.782       15.037      856.947
12/02/2013  14:41:00     -639.880     -440.926      -19.784      337.309      258.649      154.535   113777.693    66899.096    23881.109       40.436       10.228      777.085      160.402        0.043      340.726       14.941      856.896
12/02/2013  14:42:00     -555.774     -321.528      -14.357      332.334      271.023      130.072   110446.017    73453.530    16918.670       30.660       10.041      642.079      149.390        0.054      340.753       14.989      856.966
12/02/2013  14:43:00     -481.565     -395.687        6.468      402.044      319.261      167.791   161638.993   101927.691    28153.903       34.006       14.586      623.276      222.051        0.127      340.746       14.976      856.914
12/02/2013  14:44:00     -826.858     -295.358      -27.251      285.913      252.588      135.295    81746.308    63800.456    18304.625       46.773        8.193      878.026      141.250        0.026      340.682       14.868      856.964
12/02/2013  14:45:00     -858.997     -401.465      -55.912      329.069      275.190      131.483   108286.502    75729.651    17287.707       55.170       10.065      948.182      135.629        0.020      340.688       14.877      856.979
12/02/2013  14:46:00     -676.047     -262.244      -10.890      325.554      217.744      124.654   105985.607    47412.464    15538.542       34.740        8.447      725.128      158.752        0.048      340.695       14.890      857.005
12/02/2013  14:47:00     -622.648     -220.271      -24.191      301.446      237.540      136.202    90869.466    56425.071    18551.110       30.129        8.292      660.461      153.770        0.054      340.712       14.919      856.978
12/02/2013  14:48:00     -386.560     -275.578       -0.604      296.148      248.852      148.572    87703.809    61927.178    22073.584       19.850        8.585      474.734      168.229        0.126      340.723       14.936      856.978
12/02/2013  14:49:00     -784.358     -337.636      -31.858      318.923      311.944      132.613   101711.855    97308.825    17586.167       47.338       10.830      853.941      155.213        0.033      340.666       14.839      857.006
12/02/2013  14:50:00     -422.069     -269.436       -1.975      251.749      229.276      126.005    63377.434    52567.653    15877.296       19.126        6.591      500.737      145.487        0.084      340.739       14.964      857.042
12/02/2013  14:51:00     -407.300     -265.090       21.427      361.773      278.900      166.653   130879.761    77785.430    27773.222       23.648       11.822      485.969      179.167        0.136      340.721       14.935      857.056
12/02/2013  14:52:00     -148.631     -128.640       49.398      216.042      197.506      128.512    46674.276    39008.789    16515.227        7.162        5.110      196.569      140.209        0.509      340.806       15.078      857.045
12/02/2013  14:53:00     -312.357     -175.166       -4.369      190.824      144.679       93.902    36413.747    20932.093     8817.575        9.720        3.308      358.120       95.369        0.071      340.822       15.104      857.077
12/02/2013  14:54:00     -402.188     -101.360      -18.131      199.465      158.337      101.655    39786.378    25070.585    10333.757       12.376        3.760      414.764      102.051        0.061      340.811       15.085      857.118
12/02/2013  14:55:00     -448.812     -339.836      -21.649      279.497      226.857      119.470    78118.815    51464.291    14272.991       23.059        7.193      562.957      117.993        0.044      340.771       15.020      857.107
12/02/2013  14:56:00     -648.682     -378.517      -13.669      322.438      261.174      145.748   103966.050    68211.851    21242.574       37.880        9.671      751.041      164.937        0.048      340.694       14.889      857.128
12/02/2013  14:57:00     -604.913     -291.993      -29.844      262.059      230.670      125.720    68674.971    53208.742    15805.411       29.485        6.884      671.699      120.412        0.032      340.702       14.903      857.157
12/02/2013  14:58:00     -702.263     -389.788        4.773      433.679      346.175      173.645   188077.306   119837.451    30152.660       49.153       16.903      803.186      197.343        0.060      340.611       14.747      857.129
12/02/2013  14:59:00     -619.151     -421.846       -8.313      354.550      274.451      142.924   125705.641    75323.550    20427.159       39.137       11.073      749.201      185.551        0.061      340.568       14.674      857.131
12/02/2013  15:00:00     -508.078     -306.653       -6.630      283.185      219.247      137.834    80193.488    48069.313    18998.225       24.971        7.363      593.447      145.208        0.060      340.598       14.726      857.110
12/02/2013  15:01:00     -368.180     -244.526       -2.136      256.283      199.907      110.862    65681.168    39962.945    12290.392       15.662        5.897      441.984      113.587        0.066      340.648       14.809      857.210
12/02/2013  15:02:00     -508.476     -327.289      -12.302      338.819      309.050      148.086   114798.106    95511.946    21929.333       29.898       11.612      604.703      179.592        0.088      340.613       14.750      857.228
12/02/2013  15:03:00     -576.561     -198.150        3.579      360.123      238.892      141.295   129688.842    57069.593    19964.418       28.917       10.336      609.661      169.499        0.077      340.565       14.669      857.213
12/02/2013  15:04:00     -630.534     -277.308      -27.408      312.521      205.927      125.565    97669.638    42405.810    15766.646       31.550        7.792      688.820      130.065        0.036      340.558       14.658      857.199
12/02/2013  15:05:00     -590.620     -344.833      -13.215      325.840      265.518      135.013   106171.566    70499.905    18228.595       33.137        9.745      683.916      125.660        0.034      340.578       14.691      857.175
12/02/2013  15:06:00     -363.735     -156.181       17.924      265.953      193.110      123.156    70730.877    37291.644    15167.327       14.008        6.159      395.848      133.213        0.113      340.646       14.806      857.190
12/02/2013  15:07:00     -587.000     -339.091      -24.567      269.008      268.160      128.202    72365.216    71909.848    16435.649       31.040        8.036      677.902      129.783        0.037      340.595       14.721      857.193
12/02/2013  15:08:00     -467.644     -188.956       -2.712      333.494      276.066      148.715   111218.504    76212.341    22116.279       23.193       10.477      504.376      180.278        0.128      340.582       14.698      857.178
12/02/2013  15:09:00     -625.970     -292.664      -26.864      351.560      257.817      131.692   123594.216    66469.643    17342.876       34.277       10.370      691.007      135.947        0.039      340.491       14.544      857.219
12/02/2013  15:10:00     -361.952     -233.781       26.289      322.699      209.632      124.280   104134.898    43945.636    15445.406       17.491        8.176      430.886      158.709        0.136      340.560       14.662      857.253
12/02/2013  15:11:00     -473.348     -226.600       -6.828      265.426      194.233      110.481    70450.705    37726.321    12205.972       19.789        6.019      524.791      123.498        0.055      340.563       14.667      857.291
12/02/2013  15:12:00     -581.180     -270.978      -14.678      317.889      274.635      125.256   101053.695    75424.433    15689.056       30.175        9.608      641.248      150.090        0.055      340.504       14.566      857.218
12/02/2013  15:13:00     -711.387     -276.761      -20.393      342.204      293.925      133.061   117103.881    86392.094    17705.134       40.210       11.060      763.328      139.253        0.033      340.477       14.521      857.211
12/02/2013  15:14:00     -465.679     -361.369       16.723      379.767      303.793      158.410   144222.888    92289.941    25093.749       30.461       13.080      589.444      191.987        0.106      340.472       14.512      857.216
12/02/2013  15:15:00     -546.894     -300.667       -5.562      372.262      290.865      142.137   138578.739    84602.372    20202.886       31.641       12.169      624.094      161.517        0.067      340.408       14.405      857.170
12/02/2013  15:16:00     -591.219     -287.157      -26.425      341.457      254.698      132.916   116593.100    64871.018    17666.664       31.588        9.957      657.266      136.874        0.043      340.379       14.356      857.194
12/02/2013  15:17:00     -581.255     -317.642       -7.357      317.858      264.760      131.160   101033.498    70097.973    17202.863       31.353        9.417      662.385      131.554        0.039      340.332       14.275      857.155
12/02/2013  15:18:00     -510.301     -367.896      -17.692      312.385      235.977      125.844    97584.373    55685.185    15836.795       28.255        8.455      629.091      148.409        0.056      340.329       14.270      857.117
12/02/2013  15:19:00     -663.618     -416.002      -16.883      435.071      271.468      162.700   189286.928    73695.094    26471.279       45.153       14.473      783.228      192.255        0.060      340.299       14.221      857.097
12/02/2013  15:20:00     -423.794     -107.196        2.126      270.408      211.931      110.494    73120.718    44914.633    12209.012       16.064        6.512      437.141      124.766        0.081      340.354       14.314      857.106
12/02/2013  15:21:00     -547.028     -336.634      -29.044      306.063      207.262      125.660    93674.401    42957.586    15790.522       28.288        7.621      642.310      139.585        0.047      340.308       14.235      857.062
12/02/2013  15:22:00     -502.143     -307.529       -7.208      310.947      264.750      140.828    96688.294    70092.379    19832.473       26.666        9.331      588.831      170.992        0.084      340.288       14.202      856.970
12/02/2013  15:23:00     -665.698     -218.859      -27.166      304.127      269.882      130.027    92493.521    72836.229    16906.953       33.698        9.112      700.752      148.650        0.045      340.252       14.141      856.983
12/02/2013  15:24:00     -454.731     -212.448      -11.145      247.494      260.969      137.570    61253.458    68105.066    18925.626       20.013        7.414      501.911      141.580        0.080      340.263       14.160      857.005
12/02/2013  15:25:00     -263.219     -117.191       -0.242      203.328      156.292       92.357    41342.371    24427.036     8529.812        7.864        3.715      288.129       99.526        0.119      340.303       14.227      857.048
12/02/2013  15:26:00     -311.623     -177.588       -8.683      210.144      181.191       94.486    44160.694    32830.007     8927.603       10.730        4.296      358.674       91.575        0.065      340.269       14.169      857.026
12/02/2013  15:27:00     -552.110     -279.249      -38.697      360.445      207.227      127.723   129920.913    42943.060    16313.190       28.670        9.459      618.713      152.708        0.061      340.218       14.083      856.979
12/02/2013  15:28:00     -543.413     -212.754      -17.749      253.368      255.827      117.502    64195.377    65447.299    13806.669       24.213        7.172      583.577      125.720        0.046      340.201       14.053      856.970
12/02/2013  15:29:00     -522.183     -365.661      -11.888      299.427      237.992      129.784    89656.478    56640.392    16843.827       28.480        8.157      637.482      148.123        0.054      340.215       14.078      856.923
12/02/2013  15:30:00     -345.361     -154.106       14.844      255.190      170.334      107.875    65122.026    29013.676    11637.117       12.449        5.289      378.184      124.813        0.109      340.219       14.085      856.908
12/02/2013  15:31:00     -576.229     -232.057      -28.813      269.078      257.505      110.378    72403.006    66308.765    12183.276       26.878        7.545      621.201      114.490        0.034      340.175       14.009      856.938
12/02/2013  15:32:00     -561.711     -188.445       -5.868      282.917      158.975       95.075    80042.229    25273.000     9039.293       23.269        5.718      592.478      117.965        0.040      340.159       13.984      857.030
12/02/2013  15:33:00     -580.994     -182.199      -32.061      326.586      215.774      114.464   106658.643    46558.462    13102.073       26.902        8.316      608.892      126.332        0.043      340.154       13.976      857.003
12/02/2013  15:34:00     -451.773     -119.061      -10.947      229.367      199.168      103.034    52609.156    39667.813    10616.060       16.062        5.145      467.198      108.595        0.054      340.137       13.946      857.048
12/02/2013  15:35:00     -281.748     -283.727        4.939      224.045      205.846      128.163    50196.270    42372.383    16425.783       13.443        5.450      399.854      125.563        0.099      340.127       13.930      857.086
12/02/2013  15:36:00     -516.464     -199.767      -21.397      244.108      228.363      117.536    59588.779    52149.850    13814.762       21.630        6.278      553.753      126.332        0.052      340.100       13.884      857.081
12/02/2013  15:37:00     -483.545     -209.286       -4.084      262.622      190.439      101.674    68970.305    36266.972    10337.694       19.658        5.779      526.893      122.441        0.054      340.092       13.871      857.116
12/02/2013  15:38:00     -482.130     -207.885      -17.317      256.650      200.176      112.793    65869.446    40070.446    12722.267       19.729        5.933      525.038      127.074        0.059      340.083       13.856      857.166
12/02/2013  15:39:00     -624.198     -186.869      -22.682      255.120      211.333      103.965    65086.267    44661.836    10808.710       27.278        6.028      651.570      106.586        0.027      340.069       13.831      857.170
12/02/2013  15:40:00     -450.618     -162.577      -12.478      278.889      195.709      110.001    77779.331    38302.052    12100.148       17.889        6.409      479.049      129.750        0.073      340.055       13.806      857.163
12/02/2013  15:41:00     -466.516     -233.901      -38.434      241.972      151.552       94.717    58550.611    22968.038     8971.330       18.214        4.524      521.868       90.124        0.030      340.039       13.780      857.188
12/02/2013  15:42:00     -392.628     -274.947      -19.647      225.710      217.435      118.998    50944.982    47277.861    14160.474       17.124        5.619      479.325      129.128        0.073      340.033       13.770      857.195
12/02/2013  15:43:00     -350.282     -202.629       -2.878      210.893      169.760       92.515    44475.648    28818.507     8559.041       12.279        4.093      404.668       94.639        0.055      340.066       13.826      857.193
12/02/2013  15:44:00     -524.640     -259.289      -36.688      241.971      179.862      109.053    58550.032    32350.301    11892.469       22.329        5.140      585.216      121.764        0.043      340.052       13.803      857.184
12/02/2013  15:45:00     -402.047     -203.235        1.369      232.289      164.548      109.528    53958.219    27076.156    11996.428       14.797        4.652      450.496      112.056        0.062      340.065       13.826      857.186
12/02/2013  15:46:00     -348.558     -266.805        2.770      288.628      218.438      121.909    83305.924    47714.977    14861.796       16.926        7.294      438.951      153.820        0.123      340.085       13.859      857.148
12/02/2013  15:47:00     -386.254     -131.988      -16.076      238.280      205.819      101.317    56777.370    42361.602    10265.094       13.812        5.470      408.183      115.086        0.079      340.087       13.861      857.114
12/02/2013  15:48:00     -431.657     -146.251      -10.210      229.583      175.234      103.102    52708.332    30706.797    10629.996       15.091        4.702      455.759      119.930        0.069      340.115       13.909      857.107
12/02/2013  15:49:00     -485.294     -273.758       -7.978      232.713      196.262      109.899    54155.302    38518.830    12077.893       20.761        5.238      557.184      112.178        0.041      340.080       13.850      857.078
12/02/2013  15:50:00     -403.196     -155.219       -7.239      227.465      191.381       87.978    51740.224    36626.624     7740.177       14.139        4.805      432.041      109.692        0.064      340.089       13.866      857.081
12/02/2013  15:51:00     -379.750     -171.703      -12.309      243.263      174.864      102.027    59176.880    30577.281    10409.564       13.698        5.008      416.763      111.435        0.071      340.101       13.886      857.095
12/02/2013  15:52:00     -425.908     -162.126      -16.845      247.173      227.349       93.292    61094.597    51687.739     8703.482       16.470        6.074      455.722      107.364        0.056      340.095       13.877      857.075
12/02/2013  15:53:00     -608.904     -372.873      -23.042      272.473      225.029      131.856    74241.557    50637.834    17385.914       32.627        7.113      714.002      140.291        0.039      340.049       13.799      857.045
12/02/2013  15:54:00     -497.645     -210.266      -37.075      339.465      183.428      102.079   115236.276    33645.927    10420.087       22.624        7.965      540.243      135.140        0.063      340.055       13.807      857.033
12/02/2013  15:55:00     -279.963     -120.883       -5.771      180.386      160.902       77.951    32539.118    25889.377     6076.387        7.875        3.225      304.946       88.161        0.084      340.089       13.865      857.034
12/02/2013  15:56:00     -342.850     -128.757        4.788      214.883      141.061       87.588    46174.492    19898.211     7671.724       10.393        3.687      366.230      109.914        0.090      340.056       13.809      857.032
12/02/2013  15:57:00     -410.602     -250.990        7.624      340.851      204.856      121.475   116179.555    41965.980    14756.103       20.224        8.645      481.238      144.249        0.090      340.010       13.732      856.990
12/02/2013  15:58:00     -600.892     -179.691      -34.346      283.588      207.485      105.492    80421.907    43049.994    11128.618       26.454        6.730      627.185      123.999        0.039      339.946       13.623      856.921
12/02/2013  15:59:00     -440.666     -217.984       -1.103      248.705      259.555      115.368    61854.084    67368.652    13309.701       19.209        7.127      491.633      125.331        0.065      339.925       13.588      856.916
12/02/2013  16:00:00     -500.593     -121.457      -21.013      294.079      154.494      112.633    86482.391    23868.354    12686.303       19.439        6.152      515.116      137.547        0.071      339.872       13.500      856.940
12/02/2013  16:01:00     -518.680     -128.031      -38.225      257.180      227.916      120.873    66141.809    51945.676    14610.379       20.976        6.635      534.248      136.087        0.065      339.843       13.449      856.889
12/02/2013  16:02:00     -520.236     -187.828       -2.088      290.393      234.275      113.062    84327.811    54884.553    12783.063       22.893        7.600      553.105      134.896        0.059      339.837       13.440      856.904
12/02/2013  16:03:00     -505.776     -236.980      -10.927      343.491      269.898      120.647   117986.363    72844.675    14555.815       25.870       10.269      558.542      156.012        0.078      339.849       13.461      856.920
12/02/2013  16:04:00     -322.971      -80.220       -0.365      235.454      177.366      104.263    55438.666    31458.682    10870.696       10.424        4.888      332.785      103.470        0.097      339.863       13.484      856.990
12/02/2013  16:05:00     -444.183     -293.281       -6.122      216.075      186.949      108.180    46688.218    34949.744    11702.850       18.833        4.667      532.270      129.945        0.060      339.813       13.401      857.004
12/02/2013  16:06:00     -475.956     -235.521      -17.011      204.086      218.532      101.587    41651.230    47756.246    10320.014       19.099        4.986      531.041      122.586        0.053      339.820       13.411      857.018
12/02/2013  16:07:00     -470.071     -274.916      -22.548      234.666      277.733      124.860    55068.332    77135.494    15590.087       22.239        7.390      544.560      135.810        0.062      339.848       13.458      856.963
12/02/2013  16:08:00     -489.795     -153.351      -24.535      275.194      231.477      104.217    75731.778    53581.394    10861.177       20.207        7.009      513.240      117.601        0.053      339.829       13.426      856.989
12/02/2013  16:09:00     -333.813      -75.216      -17.315      213.084      150.856       87.907    45404.756    22757.514     7727.690        9.662        3.794      342.182      110.199        0.104      339.810       13.395      856.984
12/02/2013  16:10:00     -415.093     -264.224      -16.839      298.945      284.848      128.733    89368.229    81138.456    16572.078       21.470        9.354      492.054      150.528        0.094      339.797       13.372      856.928
12/02/2013  16:11:00     -634.213     -237.464      -37.307      292.058      245.065      124.200    85298.116    60056.836    15425.558       31.036        8.039      677.212      142.822        0.044      339.749       13.293      856.919
12/02/2013  16:12:00     -613.464     -251.076        2.120      304.602      287.238      134.104    92782.151    82505.577    17983.911       31.629        9.664      662.856      154.793        0.055      339.720       13.244      856.906
12/02/2013  16:13:00     -485.916     -173.340       -6.539      295.217      219.189      121.982    87153.300    48043.810    14879.671       20.811        7.504      515.908      138.792        0.072      339.715       13.236      856.918
12/02/2013  16:14:00     -590.719     -234.218      -35.668      317.013      260.460      133.835   100497.253    67839.268    17911.715       29.563        9.312      635.458      141.425        0.050      339.708       13.225      856.851
12/02/2013  16:15:00     -499.285     -200.102      -28.279      206.353      208.527       94.968    42581.368    43483.680     9018.928       19.259        4.754      537.890      102.322        0.036      339.694       13.198      856.869
12/02/2013  16:16:00     -405.825     -320.796       -7.204      221.901      188.435      107.979    49239.951    35507.612    11659.367       18.201        4.820      517.304      121.044        0.055      339.678       13.173      856.857
12/02/2013  16:17:00     -507.971     -305.183      -28.194      273.547      232.956      128.263    74827.865    54268.405    16451.323       24.873        7.277      592.597      136.148        0.053      339.642       13.112      856.823
12/02/2013  16:18:00     -475.558     -227.219      -15.854      239.089      233.610      112.805    57163.603    54573.414    12724.926       20.122        6.223      527.052      112.322        0.045      339.636       13.102      856.784
12/02/2013  16:19:00     -332.595     -123.049       24.231      267.194      215.365      124.960    71392.775    46381.908    15614.906       12.984        6.669      354.627      155.079        0.191      339.598       13.039      856.781
12/02/2013  16:20:00     -461.504     -362.627      -21.329      312.079      249.392      121.108    97393.214    62196.232    14667.228       25.956        8.713      586.928      157.475        0.072      339.549       12.955      856.816
12/02/2013  16:21:00     -683.065     -374.016      -38.328      309.691      240.864      134.330    95908.380    58015.650    18044.533       38.992        8.598      778.759      155.725        0.040      339.532       12.927      856.707
12/02/2013  16:22:00     -451.803     -225.668       -1.662      273.045      197.418      109.600    74553.398    38973.903    12012.146       19.027        6.277      505.026      132.872        0.069      339.515       12.898      856.664
12/02/2013  16:23:00     -302.938      -85.269       13.467      216.312      167.350       99.225    46790.972    28005.946     9845.580        9.192        4.232      314.710       92.621        0.087      339.492       12.859      856.617
12/02/2013  16:24:00     -388.989     -241.537       -2.464      286.147      204.369      138.810    81880.032    41766.830    19268.121       17.626        7.146      457.879      149.599        0.107      339.492       12.860      856.580
12/02/2013  16:25:00     -409.361     -350.190      -32.867      283.422      200.216      131.015    80328.218    40086.334    17164.908       21.441        6.879      538.711      135.458        0.063      339.490       12.854      856.526
12/02/2013  16:26:00     -416.941     -267.479        9.977      280.862      216.713      122.371    78883.524    46964.442    14974.748       19.313        7.041      495.364      144.728        0.085      339.471       12.823      856.502
12/02/2013  16:27:00     -466.169     -211.093       -4.593      327.382      210.085      131.824   107178.848    44135.694    17377.598       21.526        8.435      511.736      164.546        0.103      339.469       12.820      856.471
12/02/2013  16:28:00     -475.832     -190.419      -15.302      206.672      212.097      113.184    42713.454    44985.031    12810.709       18.169        5.025      512.519      107.173        0.044      339.455       12.797      856.469
12/02/2013  16:29:00     -590.531     -307.963      -18.501      313.435      226.409      127.486    98241.404    51261.060    16252.581       30.480        8.288      666.009      147.681        0.049      339.428       12.752      856.454
12/02/2013  16:30:00     -521.074     -265.982      -19.351      331.334      296.286      136.762   109782.500    87785.326    18703.924       27.941       10.814      585.033      170.199        0.085      339.434       12.761      856.395
12/02/2013  16:31:00     -433.122     -230.216       -6.470      233.122      220.246       96.662    54346.080    48508.206     9343.583       17.639        5.610      490.504      100.618        0.042      339.399       12.703      856.418
12/02/2013  16:32:00     -451.027     -293.408      -14.078      255.711      214.867      107.327    65388.059    46167.691    11519.166       20.637        6.154      538.065      129.861        0.058      339.366       12.646      856.416
12/02/2013  16:33:00     -537.864     -244.797      -26.920      241.755      194.982      104.699    58445.576    38017.882    10961.905       22.867        5.371      590.951       94.578        0.026      339.368       12.649      856.365
12/02/2013  16:34:00     -532.546     -230.720      -26.786      258.530      220.959      118.088    66837.787    48822.729    13944.761       23.355        6.480      580.376      127.436        0.048      339.370       12.654      856.332
12/02/2013  16:35:00     -353.813     -262.467       -8.093      221.565      192.798      105.239    49090.974    37170.924    11075.255       14.572        4.867      440.537      117.892        0.072      339.372       12.657      856.298
12/02/2013  16:36:00     -561.771     -212.922      -24.124      302.338      238.330      115.385    91408.100    56801.276    13313.607       26.148        8.076      600.768      147.521        0.060      339.351       12.621      856.264
12/02/2013  16:37:00     -538.487     -305.559      -25.367      259.021      170.686      122.788    67092.073    29133.822    15077.002       24.762        5.565      619.140      129.119        0.043      339.351       12.621      856.218
12/02/2013  16:38:00     -440.858     -191.067       -2.179      301.824      205.480      119.707    91097.719    42222.152    14329.647       18.923        7.382      480.482      142.208        0.088      339.307       12.547      856.212
12/02/2013  16:39:00     -445.034     -220.356       -5.027      298.669      216.705      109.870    89203.421    46961.038    12071.466       19.741        7.412      496.600      139.153        0.079      339.300       12.536      856.209
12/02/2013  16:40:00     -524.076     -336.562      -15.939      309.629      261.435      130.054    95870.085    68348.404    16914.032       28.462        9.057      622.840      162.573        0.068      339.308       12.547      856.133
12/02/2013  16:41:00     -353.815     -222.855       -4.318      203.849      181.392       95.627    41554.428    32903.150     9144.531       12.922        4.180      418.150      110.101        0.069      339.304       12.541      856.135
12/02/2013  16:42:00     -583.636     -230.332      -38.641      278.882      221.876      122.700    77774.924    49228.811    15055.399       26.859        7.103      627.442      132.783        0.045      339.304       12.540      856.089
12/02/2013  16:43:00     -685.820     -360.557      -23.904      270.550      266.503      138.697    73197.207    71023.969    19236.775       38.216        8.173      774.823      131.724        0.029      339.324       12.575      856.054
12/02/2013  16:44:00     -556.931     -271.615      -22.125      286.281      257.981      143.137    81956.900    66554.058    20488.126       27.668        8.450      619.634      154.725        0.062      339.323       12.574      856.041
12/02/2013  16:45:00     -506.623     -131.702       25.679      316.741      217.842      127.748   100325.048    47455.124    16319.676       21.935        8.205      523.462      151.116        0.083      339.292       12.523      856.140
12/02/2013  16:46:00     -727.680     -263.289       -5.604      344.004      268.516      152.732   118338.696    72100.877    23327.096       40.628       10.688      773.847      167.997        0.047      339.304       12.543      856.110
12/02/2013  16:47:00     -584.684     -228.855      -23.391      261.667      240.728      122.752    68469.839    57949.819    15068.002       26.810        7.074      627.877      148.068        0.056      339.308       12.549      856.131
12/02/2013  16:48:00     -517.251     -130.362      -23.261      332.178      195.193      106.747   110342.281    38100.266    11394.941       22.243        7.992      533.426      146.026        0.075      339.274       12.491      856.087
12/02/2013  16:49:00     -473.008     -304.279       -9.878      240.717      200.341      121.087    57944.775    40136.557    14662.118       21.456        5.637      562.425      125.992        0.050      339.270       12.484      856.060
12/02/2013  16:50:00     -416.017     -276.961      -23.284      249.443      260.129      123.136    62221.647    67667.182    15162.448       19.766        7.253      499.778      129.633        0.067      339.246       12.445      856.071
12/02/2013  16:51:00     -640.825     -268.812      -26.148      313.589      230.402      116.688    98338.157    53085.004    13616.160       32.429        8.252      694.922      143.288        0.043      339.245       12.443      856.004
12/02/2013  16:52:00     -519.506     -330.834      -19.227      339.249      269.913      140.056   115090.169    72852.888    19615.637       29.359       10.378      615.904      169.162        0.075      339.251       12.452      855.943
12/02/2013  16:53:00     -608.555     -312.848       -2.640      360.605      300.093      144.823   130036.149    90055.922    20973.601       35.459       12.053      684.261      183.104        0.072      339.234       12.425      855.917
12/02/2013  16:54:00     -622.713     -268.292       -7.995      329.616      223.729      128.284   108646.614    50054.531    16456.682       31.745        8.758      678.050      144.787        0.046      339.219       12.398      855.926
12/02/2013  16:55:00     -678.802     -181.592      -31.428      435.497      297.886      126.927   189657.389    88736.202    16110.552       39.456       14.725      702.672      156.039        0.049      339.213       12.389      855.944
12/02/2013  16:56:00     -508.367     -273.882       -8.933      302.414      244.245      120.492    91454.309    59655.460    14518.392       24.954        8.281      577.450      141.243        0.060      339.199       12.366      855.997
12/02/2013  16:57:00     -517.791     -296.986      -28.135      333.540      255.790      148.256   111248.842    65428.278    21979.967       27.784        9.933      596.916      173.093        0.084      339.216       12.395      855.964
12/02/2013  16:58:00     -754.418     -350.582      -24.827      394.883      324.845      149.427   155932.700   105524.035    22328.464       48.817       14.189      831.898      174.145        0.044      339.220       12.402      855.935
12/02/2013  16:59:00     -496.485     -229.691        0.690      328.289      238.489      135.965   107773.941    56876.948    18486.469       24.116        9.157      547.042      158.067        0.083      339.200       12.368      855.994
12/02/2013  17:00:00     -618.099     -346.605       -6.842      320.009      259.104      140.157   102405.873    67134.871    19643.906       34.567        9.459      708.648      165.514        0.055      339.235       12.425      855.982
12/02/2013  17:01:00     -562.200     -367.963      -14.170      327.913      314.842      132.289   107527.071    99125.638    17500.258       33.786       11.208      671.912      126.027        0.035      339.238       12.432      855.901
12/02/2013  17:02:00     -490.967     -277.889      -17.411      304.880      238.788      126.652    92951.708    57019.914    16040.733       24.226        8.301      564.155      149.093        0.070      339.198       12.364      855.926
12/02/2013  17:03:00     -411.077     -223.347      -28.962      288.377      236.596      121.160    83161.239    55977.572    14679.763       18.673        7.691      467.833      143.743        0.094      339.172       12.321      855.924
12/02/2013  17:04:00     -504.518     -274.134      -12.235      342.619      260.426      133.872   117388.103    67821.887    17921.727       26.644       10.157      574.184      168.022        0.086      339.154       12.289      855.874
12/02/2013  17:05:00     -482.696     -240.756      -12.946      245.531      209.999      115.786    60285.429    44099.459    13406.300       20.444        5.890      539.406      123.548        0.052      339.140       12.266      855.891
12/02/2013  17:06:00     -461.317     -171.943       -0.243      269.220      194.955      119.159    72479.431    38007.539    14198.808       18.351        6.234      492.319      128.077        0.068      339.098       12.197      855.890
12/02/2013  17:07:00     -796.911     -264.740      -32.612      291.549      277.320      120.816    85000.985    76906.173    14596.395       44.133        8.825      839.735      131.169        0.024      339.117       12.227      855.794
12/02/2013  17:08:00     -523.907     -334.769        2.403      333.231      263.012      132.631   111042.727    69175.437    17591.001       29.214        9.890      621.731      154.559        0.062      339.104       12.205      855.767
12/02/2013  17:09:00     -645.773     -203.189      -13.125      334.103      274.776      133.637   111624.697    75501.692    17858.903       33.169       10.249      676.985      159.959        0.056      339.118       12.230      855.741
12/02/2013  17:10:00     -640.983     -412.249      -21.577      339.931      320.290      134.204   115553.228   102585.432    18010.630       40.866       11.807      762.108      159.679        0.044      339.157       12.295      855.704
12/02/2013  17:11:00     -524.909     -265.422      -27.040      315.935      243.528      127.815    99814.651    59305.747    16336.650       26.105        8.773      588.200      135.347        0.053      339.140       12.266      855.700
12/02/2013  17:12:00     -534.925     -232.036      -10.657      323.871      261.573      123.605   104892.459    68420.654    15278.163       26.431        9.430      583.082      146.595        0.063      339.114       12.223      855.704
12/02/2013  17:13:00     -512.142     -315.960        1.682      279.676      223.109      143.693    78218.735    49777.719    20647.588       25.535        7.432      601.764      160.709        0.071      339.096       12.191      855.656
12/02/2013  17:14:00     -507.816     -216.340       -5.278      315.909      218.567      109.224    99798.535    47771.609    11929.959       23.207        7.975      551.979      123.316        0.050      339.055       12.123      855.642
12/02/2013  17:15:00     -378.468     -236.523       24.096      411.995      242.169      150.319   169739.598    58645.975    22595.811       22.532       12.549      446.297      201.219        0.203      339.093       12.188      855.572
12/02/2013  17:16:00     -674.362     -421.643      -13.899      303.123      227.498      120.816    91883.294    51755.305    14596.590       39.546        7.912      795.328      145.197        0.033      339.149       12.283      855.531
12/02/2013  17:17:00     -635.007     -351.189      -10.654      362.292      314.198      149.369   131255.485    98720.495    22310.963       38.943       12.614      725.649      189.683        0.068      339.178       12.330      855.497
12/02/2013  17:18:00     -511.410     -262.064       -5.026      325.010      252.402      130.099   105631.438    63706.801    16925.711       25.822        9.313      574.646      159.740        0.077      339.138       12.262      855.532
12/02/2013  17:19:00     -425.727     -249.360      -14.861      243.170      206.787      123.502    59131.690    42760.657    15252.835       18.037        5.857      493.380      128.510        0.068      339.114       12.221      855.554
12/02/2013  17:20:00     -447.822     -247.874      -25.086      272.410      267.988      116.115    74207.001    71817.476    13482.609       21.103        7.975      511.846      129.119        0.064      339.102       12.203      855.614
12/02/2013  17:21:00     -587.394     -239.214       -5.834      249.419      176.342      103.791    62209.694    31096.510    10772.626       25.316        5.204      634.236      114.191        0.032      339.114       12.223      855.589
12/02/2013  17:22:00     -438.484      -45.547       -5.283      353.358      210.246      122.685   124862.203    44203.441    15051.671       18.921        9.206      440.844      153.060        0.121      339.115       12.224      855.593
12/02/2013  17:23:00     -632.246     -118.512      -16.768      318.732      258.386      137.227   101590.191    66763.137    18831.219       30.059        9.359      643.258      147.316        0.052      339.104       12.205      855.602
12/02/2013  17:24:00     -569.371     -259.654      -17.965      314.419      198.388      125.520    98859.021    39357.945    15755.260       27.292        7.699      625.783      133.995        0.046      339.117       12.226      855.638
12/02/2013  17:25:00     -482.421     -234.222      -28.299      226.408      193.617      108.500    51260.612    37487.659    11772.261       19.444        5.026      536.275      121.952        0.052      339.100       12.199      855.686
12/02/2013  17:26:00     -417.444     -130.365        1.311      248.919      176.601      112.488    61960.426    31188.001    12653.462       14.851        5.290      437.327      125.841        0.083      339.096       12.193      855.696
12/02/2013  17:27:00     -263.821      -43.105       16.222      183.499      132.750       94.306    33671.828    17622.527     8893.693        6.594        3.009      267.319       98.525        0.136      339.086       12.175      855.731
12/02/2013  17:28:00     -310.966      -44.435      -12.665      196.298      145.762       80.983    38532.935    21246.629     6558.243        8.257        3.317      314.124       77.457        0.061      339.040       12.099      855.748
12/02/2013  17:29:00     -415.195      -53.657       -0.179      277.487      132.392       83.931    76998.990    17527.521     7044.440       13.840        5.079      418.648      112.784        0.073      339.009       12.047      855.789
12/02/2013  17:30:00     -454.295      -64.153      -11.842      267.182      207.740      115.961    71386.417    43155.768    13447.014       16.929        6.399      458.803      133.604        0.085      338.994       12.021      855.771
12/02/2013  17:31:00     -552.281     -193.015      -22.165      212.896      156.463       92.000    45324.834    24480.723     8463.925       21.050        3.913      585.038       94.552        0.026      338.970       11.981      855.795
12/02/2013  17:32:00     -453.750      -65.363      -16.628      166.388      129.972       83.600    27684.813    16892.788     6988.902       13.099        2.578      458.433       82.300        0.032      338.918       11.892      855.812
12/02/2013  17:33:00     -598.868     -185.581      -21.341      219.919      184.845       94.871    48364.433    34167.562     9000.536       24.252        4.577      626.964       96.860        0.024      338.923       11.902      855.749
12/02/2013  17:34:00     -562.117     -106.780      -26.334      238.431      212.545      125.475    56849.521    45175.547    15743.863       22.290        5.888      572.169      128.011        0.050      338.941       11.931      855.719
12/02/2013  17:35:00     -436.928      -88.929      -30.770      188.618      140.798       84.554    35576.709    19824.094     7149.440       13.114        3.128      445.886       75.219        0.028      338.921       11.898      855.755
12/02/2013  17:36:00     -322.888      -89.877      -15.523      212.155      142.074       78.234    45009.643    20184.993     6120.524        9.193        3.566      335.164       97.307        0.084      338.892       11.851      855.735
12/02/2013  17:37:00     -493.265     -106.837      -32.105      212.139      187.548       91.857    45002.790    35174.397     8437.653       17.217        4.431      504.703       93.523        0.034      338.932       11.916      855.681
12/02/2013  17:38:00     -625.966      -19.597      -43.495      186.439      181.207       85.396    34759.573    32835.866     7292.419       23.448        3.744      626.272       78.012        0.016      338.893       11.849      855.628
12/02/2013  17:39:00     -516.681     -173.967      -20.814      230.260      147.640       81.245    53019.802    21797.637     6600.789       18.952        4.071      545.182       79.827        0.021      338.864       11.803      855.556
12/02/2013  17:40:00     -534.958      -92.597      -16.649      222.871      163.494      102.579    49671.456    26730.444    10522.373       19.096        4.346      542.913      116.124        0.046      338.871       11.814      855.563
12/02/2013  17:41:00     -304.923       -8.061      -18.286      161.778      142.798       87.224    26172.250    20391.359     7608.057        7.376        2.709      305.030       91.279        0.090      338.839       11.761      855.559
12/02/2013  17:42:00     -364.996     -202.458        0.198      256.042      218.882      101.291    65557.381    47909.303    10259.926       14.894        6.186      417.386      109.078        0.068      338.904       11.870      855.503
12/02/2013  17:43:00     -512.234      -84.958      -25.615      261.412      157.868      108.955    68336.177    24922.343    11871.242       18.767        5.256      519.231      130.486        0.063      339.014       12.055      855.502
12/02/2013  17:44:00     -329.589      -60.138       -7.394      187.448      170.520       71.304    35136.778    29076.923     5084.313        9.079        3.465      335.031       78.081        0.054      338.971       11.983      855.498
12/02/2013  17:45:00     -455.460      -39.863       -4.201      185.945      146.488       84.619    34575.607    21458.597     7160.367       13.611        3.160      457.201       81.899        0.032      338.941       11.931      855.501
12/02/2013  17:46:00     -347.195      -83.585       -4.109      173.612      149.560       90.259    30141.104    22368.172     8146.740        9.409        3.033      357.114       72.841        0.042      338.915       11.888      855.457
12/02/2013  17:47:00     -406.460      -47.534       -9.032      214.639      164.479       88.611    46070.061    27053.267     7851.821       12.425        4.049      409.230       94.119        0.053      338.932       11.915      855.430
12/02/2013  17:48:00     -423.964        5.332      -38.345      223.081      101.027       68.257    49765.071    10206.415     4659.084       12.292        3.232      423.997       81.637        0.037      338.900       11.862      855.399
12/02/2013  17:49:00     -381.198     -129.176      -13.104      164.708      125.775       64.260    27128.802    15819.320     4129.294       10.461        2.354      402.490       68.105        0.029      338.848       11.775      855.431
12/02/2013  17:50:00     -645.473     -167.052      -32.395      269.564      172.325      117.855    72664.782    29695.929    13889.763       28.090        5.813      666.740      111.470        0.028      338.988       12.011      855.392
12/02/2013  17:51:00     -198.960      -79.227       13.323      147.543      154.769       81.574    21768.832    23953.333     6654.329        4.920        2.619      214.154       78.425        0.134      338.956       11.959      855.372
12/02/2013  17:52:00     -348.824      -67.588      -14.058      102.853      107.457       53.016    10578.774    11546.996     2810.644        7.569        1.247      355.312       49.880        0.020      338.952       11.951      855.363
12/02/2013  17:53:00     -344.273      -15.087       -6.957      200.991      130.387       63.372    40397.383    17000.768     4015.957        9.009        3.071      344.603       82.263        0.057      338.900       11.863      855.360
12/02/2013  17:54:00     -410.542     -104.550      -15.351      180.457      137.813       73.319    32564.746    18992.455     5375.627       11.831        2.847      423.646       74.674        0.031      338.883       11.832      855.343
12/02/2013  17:55:00     -371.892      -77.718      -17.661      192.380      158.799       82.002    37010.165    25217.266     6724.397       10.679        3.448      379.926       80.993        0.045      338.825       11.737      855.359
12/02/2013  17:56:00     -364.417     -120.003      -25.016      218.670      156.675       91.698    47816.731    24547.132     8408.592       11.428        4.039      383.667      108.563        0.080      338.814       11.719      855.308
12/02/2013  17:57:00     -410.302      -54.650      -10.889      200.103      136.860       74.157    40041.118    18730.749     5499.310       11.785        3.214      413.926       85.645        0.043      338.795       11.687      855.302
12/02/2013  17:58:00     -333.926     -117.833      -26.010      186.389      153.170       84.737    34740.870    23461.107     7180.389        9.571        3.269      354.106       85.705        0.059      338.798       11.691      855.283
12/02/2013  17:59:00     -391.153      -74.698      -18.736      183.478      137.593       85.479    33664.140    18931.948     7306.612       10.941        2.995      398.222       87.948        0.049      338.768       11.641      855.269
12/02/2013  18:00:00     -486.160      -96.872       -1.828      196.993      176.687       96.771    38806.397    31218.241     9364.681       16.255        3.969      495.717       95.638        0.037      338.798       11.692      855.261
12/02/2013  18:01:00     -262.038      -54.215       12.092      199.647      113.313       68.173    39858.937    12839.863     4647.533        6.454        2.867      267.587       82.568        0.095      338.763       11.634      855.246
12/02/2013  18:02:00     -265.254      -70.523        7.963      179.852      194.571       91.059    32346.873    37857.972     8291.661        7.693        3.925      274.468       74.429        0.074      338.818       11.726      855.255
12/02/2013  18:03:00     -473.348      -10.317      -27.847      255.652      179.096       89.340    65358.185    32075.268     7981.571       16.516        5.271      473.460       91.956        0.038      338.817       11.725      855.288
12/02/2013  18:04:00     -548.809      -90.859      -54.440      275.233      135.505       88.406    75753.230    18361.487     7815.697       20.715        5.097      556.279      114.273        0.042      338.810       11.711      855.281
12/02/2013  18:05:00     -481.775      -32.493      -21.695      203.706      142.785       87.324    41496.174    20387.455     7625.396       15.156        3.475      482.870      108.725        0.051      338.766       11.640      855.292
12/02/2013  18:06:00     -381.875     -115.848      -11.071      298.004      147.283       75.320    88806.292    21692.409     5673.154       13.775        5.809      399.061       92.760        0.054      338.736       11.585      855.295
12/02/2013  18:07:00     -424.742      -23.545        2.471      304.561      195.465      113.710    92757.304    38206.467    12929.871       16.240        7.195      425.394      147.364        0.120      338.766       11.638      855.283
12/02/2013  18:08:00     -492.439       15.009      -22.598      273.374      206.983      106.812    74733.168    42841.983    11408.699       18.608        6.449      492.667      113.929        0.053      338.760       11.629      855.282
12/02/2013  18:09:00     -576.475      -89.429      -26.977      328.034      231.527      125.852   107606.375    53604.547    15838.805       25.901        8.852      583.370      145.887        0.063      338.806       11.706      855.255
12/02/2013  18:10:00     -604.420     -137.099      -35.992      271.357      231.645      108.116    73634.597    53659.581    11689.062       26.217        6.949      619.774      121.947        0.039      338.845       11.770      855.261
12/02/2013  18:11:00     -443.417     -169.747       -9.386      263.846      200.493      118.871    69614.688    40197.375    14130.330       17.471        6.197      474.798      146.236        0.095      338.802       11.699      855.264
12/02/2013  18:12:00     -358.552     -209.743      -23.765      232.013      165.220      108.217    53830.224    27297.511    11710.990       13.296        4.642      415.393      118.345        0.081      338.809       11.710      855.251
12/02/2013  18:13:00     -540.990     -128.217       -5.634      260.885      166.516      105.768    68060.958    27727.689    11186.801       20.804        5.349      555.976      122.561        0.049      338.789       11.677      855.237
12/02/2013  18:14:00     -420.960      -62.493      -17.944      226.289      170.685       96.538    51206.634    29133.237     9319.579       13.553        4.483      425.573      105.896        0.062      338.771       11.648      855.280
12/02/2013  18:15:00     -434.708      -96.590      -16.589      203.381      202.816      108.035    41363.799    41134.337    11671.585       14.635        4.708      445.310      104.473        0.055      338.784       11.667      855.269
12/02/2013  18:16:00     -506.642     -121.615       -6.577      253.611      194.339      110.546    64318.407    37767.606    12220.331       19.289        5.715      521.034      104.815        0.040      338.816       11.721      855.248
12/02/2013  18:17:00     -747.366      -47.470      -35.851      271.549      233.227      116.590    73738.999    54394.772    13593.245       35.188        7.086      748.872      113.846        0.023      338.808       11.706      855.327
12/02/2013  18:18:00     -314.583      -33.712        3.258      229.919      162.481      107.777    52862.530    26400.228    11615.928        9.548        4.544      316.384      119.181        0.142      338.760       11.627      855.370
12/02/2013  18:19:00     -532.051      -61.470      -18.066      201.909      176.809       92.426    40767.131    31261.259     8542.638       18.386        4.029      535.590       97.958        0.033      338.758       11.624      855.405
12/02/2013  18:20:00     -547.207     -150.403      -28.161      229.207      217.294      109.094    52535.814    47216.599    11901.582       21.723        5.583      567.500      120.307        0.045      338.740       11.594      855.426
12/02/2013  18:21:00     -309.494     -134.169       -8.301      192.777      202.135       89.671    37163.039    40858.398     8040.957        9.994        4.303      337.325       76.418        0.051      338.728       11.575      855.400
12/02/2013  18:22:00     -551.457      -97.428      -17.811      237.061      182.409       99.548    56198.073    33273.064     9909.712       20.663        4.969      559.998      115.540        0.043      338.733       11.582      855.442
12/02/2013  18:23:00     -529.599     -240.341      -27.925      225.169      172.207      108.762    50701.121    29655.134    11829.080       21.558        4.609      581.583      118.465        0.041      338.755       11.620      855.467
12/02/2013  18:24:00     -275.136      -25.128       -7.004      168.343      169.970       83.091    28339.471    28889.825     6904.144        7.024        3.207      276.281       91.365        0.109      338.710       11.543      855.497
12/02/2013  18:25:00     -320.356      -58.139       11.224      230.822      174.474       95.607    53278.817    30441.102     9140.772        9.948        4.643      325.589      116.471        0.128      338.737       11.588      855.430
12/02/2013  18:26:00     -633.788     -180.959      -36.828      239.055      181.176      106.303    57147.384    32824.590    11300.265       26.851        5.064      659.116      118.030        0.032      338.806       11.706      855.345
12/02/2013  18:27:00     -474.619     -144.787      -20.599      246.468      169.842       95.043    60746.232    28846.214     9033.154       17.262        4.931      496.212      107.105        0.047      338.781       11.664      855.346
12/02/2013  18:28:00     -379.526     -121.483      -23.317      239.938      142.599       98.033    57570.424    20334.545     9610.562       12.341        4.376      398.495      108.546        0.074      338.781       11.664      855.322
12/02/2013  18:29:00     -510.336     -190.565      -38.585      234.014      173.080       97.657    54762.764    29956.687     9536.872       19.623        4.713      544.755      102.767        0.036      338.778       11.658      855.306
12/02/2013  18:30:00     -403.266        0.100       -7.980      191.214      154.479       94.611    36562.894    23863.907     8951.213       11.602        3.469      403.266      102.119        0.064      338.739       11.592      855.311
12/02/2013  18:31:00     -377.467      -93.764       -0.420      242.980      236.939      114.676    59039.140    56139.927    13150.517       13.978        6.416      388.939      133.696        0.118      338.745       11.603      855.290
12/02/2013  18:32:00     -516.610     -186.554       -9.560      258.489      179.286      116.230    66816.510    32143.311    13509.468       20.710        5.623      549.261      136.051        0.061      338.768       11.642      855.264
12/02/2013  18:33:00     -449.384      -18.369       -7.023      192.696      178.971       79.942    37131.877    32030.554     6390.646       13.893        3.778      449.759       87.502        0.038      338.736       11.586      855.272
12/02/2013  18:34:00     -384.295     -118.115       -4.992      175.474      144.875       72.755    30791.055    20988.680     5293.242       10.935        2.854      402.037       82.060        0.042      338.711       11.545      855.269
12/02/2013  18:35:00     -394.147      -29.007       -0.168      217.821      162.586       92.827    47445.901    26434.262     8616.863       11.933        4.125      395.213      106.017        0.072      338.716       11.554      855.231
12/02/2013  18:36:00     -334.196      -79.660      -13.100      159.732      144.286       83.364    25514.393    20818.338     6949.597        8.573        2.664      343.559       82.540        0.058      338.713       11.550      855.277
12/02/2013  18:37:00     -457.797     -177.735      -17.620      282.661      255.554      119.325    79897.055    65307.829    14238.541       20.043        7.972      491.089      132.745        0.073      338.750       11.611      855.287
12/02/2013  18:38:00     -484.793     -197.452      -21.580      247.663      164.976       99.788    61336.807    27217.063     9957.625       18.647        4.926      523.461      115.299        0.049      338.776       11.655      855.292
12/02/2013  18:39:00     -424.595     -103.387       -1.470      238.160      179.997       92.110    56720.393    32398.901     8484.267       14.427        4.880      437.000       96.406        0.049      338.777       11.659      855.347
12/02/2013  18:40:00     -435.716     -138.540      -38.134      248.865      210.776      107.219    61933.959    44426.556    11495.990       16.415        5.893      457.211      107.619        0.055      338.809       11.711      855.361
12/02/2013  18:41:00     -466.204     -247.725       -1.348      300.612      218.929      110.911    90367.738    47929.894    12301.278       21.463        7.530      527.934      130.689        0.061      338.795       11.685      855.368
12/02/2013  18:42:00     -323.434     -147.027       -1.064      254.355      184.976      105.064    64696.242    34216.228    11038.467       11.807        5.498      355.284      131.425        0.137      338.790       11.679      855.355
12/02/2013  18:43:00     -647.973      -54.384      -32.048      288.587      221.537      105.161    83282.470    49078.493    11058.862       28.361        7.171      650.251      119.204        0.034      338.747       11.605      855.396
12/02/2013  18:44:00     -367.363      -47.744       -5.103      250.548      204.308      104.540    62774.537    41741.610    10928.714       12.633        5.772      370.452      125.557        0.115      338.728       11.574      855.391
12/02/2013  18:45:00     -316.794      -94.359       11.637      308.351      169.543      115.564    95080.032    28744.888    13355.078       12.326        6.859      330.549      141.190        0.182      338.734       11.584      855.403
12/02/2013  18:46:00     -509.205     -127.205      -21.722      281.771      186.719      123.404    79394.807    34864.101    15228.568       20.269        6.474      524.853      136.539        0.068      338.784       11.668      855.360
12/02/2013  18:47:00     -537.947     -272.691       -1.101      320.785      266.619      148.046   102902.806    71085.815    21917.590       27.979        9.795      603.115      151.635        0.063      338.860       11.795      855.323
12/02/2013  18:48:00     -500.545     -192.006      -20.317      296.316      227.231      118.748    87803.098    51633.743    14101.005       22.065        7.677      536.108      142.601        0.071      338.869       11.809      855.321
12/02/2013  18:49:00     -483.321     -235.166      -29.147      299.940      222.439      120.226    89964.118    49479.153    14454.180       22.179        7.695      537.496      108.850        0.041      338.830       11.744      855.315
12/02/2013  18:50:00     -341.084     -160.144       -0.396      243.733      147.004       99.857    59405.651    21610.308     9971.333       11.647        4.549      376.809      115.954        0.095      338.781       11.665      855.349
12/02/2013  18:51:00     -413.621     -195.619      -18.720      185.837      170.059       87.025    34535.545    28919.964     7573.399       14.035        3.551      457.547       65.313        0.020      338.739       11.592      855.382
12/02/2013  18:52:00     -396.671     -126.747        2.339      213.972      207.546       97.804    45783.926    43075.496     9565.625       13.590        4.921      416.428       93.628        0.051      338.683       11.498      855.319
12/02/2013  18:53:00     -303.853     -269.117       -9.082      266.618      209.625      119.453    71085.124    43942.624    14269.014       14.704        6.465      405.895      151.848        0.140      338.705       11.535      855.250
12/02/2013  18:54:00     -552.864     -237.990      -28.287      289.837      270.399      124.085    84005.750    73115.571    15397.047       26.777        8.626      601.912      139.248        0.054      338.703       11.531      855.230
12/02/2013  18:55:00     -542.022     -331.882      -15.487      297.667      209.708      114.903    88605.376    43977.426    13202.731       27.495        7.289      635.558      122.847        0.037      338.698       11.522      855.197
12/02/2013  18:56:00     -524.370     -203.553      -26.163      264.931      212.232       99.449    70188.446    45042.274     9890.191       22.108        6.256      562.493      117.012        0.043      338.676       11.486      855.208
12/02/2013  18:57:00     -527.869     -426.577        0.829      353.919      302.738      161.403   125258.996    91650.124    26051.024       35.174       12.148      678.685      199.870        0.087      338.711       11.545      855.113
12/02/2013  18:58:00     -442.544     -213.914      -27.874      351.037      218.568      124.798   123226.680    47772.178    15574.541       21.444        9.329      491.533      151.943        0.096      338.694       11.517      855.154
12/02/2013  18:59:00     -535.686     -123.750      -22.906      290.448      247.680      125.703    84359.836    61345.328    15801.220       23.212        8.075      549.794      128.672        0.055      338.692       11.511      855.199
12/02/2013  19:00:00     -529.940     -238.388      -27.653      269.440      195.259      106.375    72597.659    38126.107    11315.633       23.021        6.102      581.090      132.731        0.052      338.650       11.442      855.180
12/02/2013  19:01:00     -581.994     -110.339      -22.285      270.994      230.302      103.349    73437.551    53039.181    10681.087       24.425        6.858      592.362      114.164        0.037      338.626       11.402      855.074
12/02/2013  19:02:00     -513.198     -249.924      -30.889      260.533      220.161      115.250    67877.236    48470.960    13282.614       22.818        6.482      570.819      122.163        0.046      338.604       11.365      855.096
12/02/2013  19:03:00     -671.225     -404.312      -44.177      317.757      231.274      128.146   100969.415    53487.623    16421.305       39.339        8.544      783.589      153.882        0.039      338.612       11.378      855.018
12/02/2013  19:04:00     -374.050     -157.087       26.084      265.484      230.196      116.888    70481.779    52990.100    13662.766       15.118        6.857      405.697      138.320        0.116      338.560       11.291      855.057
12/02/2013  19:05:00     -598.312     -332.424      -12.509      352.717      296.873      146.546   124409.598    88133.769    21475.646       35.128       11.701      684.459      183.409        0.072      338.594       11.348      854.981
12/02/2013  19:06:00     -657.688     -273.450      -27.263      308.626      267.065      134.610    95249.848    71323.739    18119.835       34.635        9.235      712.270      142.573        0.040      338.582       11.328      854.889
12/02/2013  19:07:00     -675.371     -352.109      -23.777      373.523      277.528      138.476   139519.315    77022.000    19175.719       40.815       11.786      761.647      178.006        0.055      338.597       11.353      854.879
12/02/2013  19:08:00     -690.309     -168.007      -13.689      337.696      270.002      134.846   114038.262    72901.159    18183.479       35.499       10.256      710.459      156.851        0.049      338.585       11.334      854.879
12/02/2013  19:09:00     -583.756     -301.941      -38.456      358.763      235.355      123.244   128710.661    55392.054    15189.178       31.632        9.965      657.221      128.012        0.038      338.590       11.342      854.922
12/02/2013  19:10:00     -516.224     -228.989       -2.616      325.017      227.198      136.143   105635.826    51618.967    18534.933       24.733        8.789      564.733      157.702        0.078      338.565       11.299      854.919
12/02/2013  19:11:00     -573.456     -320.151      -25.650      291.009      212.288      109.063    84685.996    45066.195    11894.767       28.680        7.082      656.771      120.099        0.033      338.534       11.248      854.919
12/02/2013  19:12:00     -654.971     -252.511      -22.630      295.916      259.760      135.373    87566.455    67475.495    18325.756       33.328        8.668      701.961      134.423        0.037      338.535       11.250      854.875
12/02/2013  19:13:00     -623.458     -267.154      -49.529      263.848      245.981      120.488    69615.760    60506.539    14517.273       30.355        7.232      678.285      121.426        0.032      338.548       11.271      854.908
12/02/2013  19:14:00     -580.473     -315.496      -30.009      358.100      267.802      140.117   128235.426    71717.902    19632.694       32.844       10.979      660.672      160.335        0.059      338.517       11.219      854.857
12/02/2013  19:15:00     -598.350     -294.234      -15.408      305.656      256.129      132.200    93425.307    65601.849    17476.858       31.063        8.825      666.781      156.374        0.055      338.495       11.182      854.852
12/02/2013  19:16:00     -632.958     -253.075      -31.533      362.073      279.469      146.946   131097.149    78102.981    21593.204       34.819       11.540      681.677      174.875        0.066      338.472       11.142      854.771
12/02/2013  19:17:00     -713.581     -361.933      -29.937      346.922      255.218      147.297   120354.611    65136.178    21696.424       42.410       10.359      800.121      151.982        0.036      338.495       11.182      854.718
12/02/2013  19:18:00     -496.961     -183.223       -6.841      365.962      187.004      157.879   133928.367    34970.484    24925.638       23.717        9.691      529.661      198.387        0.140      338.511       11.208      854.729
12/02/2013  19:19:00     -378.465      -54.699        5.543      302.944      240.942      131.108    91775.248    58053.062    17189.238       15.660        8.351      382.397      154.513        0.163      338.483       11.162      854.768
12/02/2013  19:20:00     -431.704     -206.433       -1.519      295.087      254.410      107.556    87076.246    64724.701    11568.210       19.614        8.168      478.522      130.121        0.074      338.462       11.128      854.772
12/02/2013  19:21:00     -520.506     -257.436       -9.192      305.521      247.300      133.960    93343.062    61157.052    17945.388       25.483        8.622      580.689      152.706        0.069      338.475       11.148      854.748
12/02/2013  19:22:00     -737.090     -281.324      -41.662      321.633      285.992      124.675   103447.874    81791.623    15543.799       41.244       10.039      788.951      145.450        0.034      338.487       11.169      854.718
12/02/2013  19:23:00     -581.163     -248.596      -16.449      280.584      281.571      123.588    78727.394    79282.019    15273.921       28.652        8.664      632.100      130.515        0.043      338.459       11.120      854.673
12/02/2013  19:24:00     -493.122     -315.866       -5.694      382.149      252.169      145.199   146038.151    63589.428    21082.607       28.680       11.536      585.612      170.409        0.085      338.433       11.077      854.673
12/02/2013  19:25:00     -566.998     -379.671      -22.799      386.654      293.093      183.571   149501.629    85903.244    33698.308       36.758       13.455      682.376      222.015        0.106      338.467       11.133      854.622
12/02/2013  19:26:00     -542.638     -266.911      -23.198      328.799      250.427      140.041   108109.086    62713.875    19611.483       27.830        9.522      604.729      146.295        0.059      338.457       11.118      854.639
12/02/2013  19:27:00     -714.038     -254.327       -2.041      401.608      311.767      155.526   161289.032    97198.396    24188.214       42.855       14.134      757.979      207.353        0.075      338.443       11.095      854.583
12/02/2013  19:28:00     -430.731     -213.127       -1.641      345.389      240.758      134.885   119293.843    57964.579    18194.079       21.316        9.773      480.575      160.308        0.111      338.415       11.048      854.655
12/02/2013  19:29:00     -512.561     -315.409      -10.997      298.205      276.841      125.123    88926.313    76640.796    15655.821       27.174        9.061      601.832      124.274        0.043      338.397       11.016      854.669
12/02/2013  19:30:00     -572.286      -96.196      -34.345      330.126      196.674      135.216   108982.961    38680.755    18283.250       25.191        8.297      580.315      155.907        0.072      338.378       10.987      854.643
12/02/2013  19:31:00     -583.346     -204.679        2.524      290.477      253.425      133.093    84376.897    64224.325    17713.767       27.422        8.316      618.212      136.955        0.049      338.375       10.980      854.644
12/02/2013  19:32:00     -723.651     -286.637      -29.193      432.165      310.984      151.489   186766.262    96711.105    22949.010       45.649       15.321      778.351      196.782        0.064      338.375       10.981      854.638
12/02/2013  19:33:00     -565.722     -226.181        1.387      374.363      265.358      142.121   140147.587    70414.627    20198.430       30.093       11.538      609.261      169.406        0.077      338.366       10.965      854.640
12/02/2013  19:34:00     -435.895     -273.770       -2.716      343.282      261.893      156.322   117842.784    68587.820    24436.716       23.787       10.543      514.738      170.757        0.110      338.375       10.979      854.631
12/02/2013  19:35:00     -705.868     -392.842      -39.185      343.837      254.299      134.445   118224.168    64667.997    18075.470       42.750       10.048      807.820      134.895        0.028      338.354       10.944      854.610
12/02/2013  19:36:00     -570.030     -137.867       -7.792      319.681      316.285      137.376   102196.228   100036.242    18872.063       28.251       11.055      586.466      146.507        0.062      338.329       10.904      854.635
12/02/2013  19:37:00     -483.763     -306.062      -27.118      359.259      283.740      150.787   129067.119    80508.476    22736.587       28.033       11.616      572.451      190.838        0.111      338.379       10.986      854.681
12/02/2013  19:38:00     -498.634     -373.810       -7.856      301.377      208.457      142.104    90827.929    43454.310    20193.457       27.142        7.724      623.194      151.526        0.059      338.391       11.007      854.715
12/02/2013  19:39:00     -559.123     -270.476      -17.284      268.915      169.689      122.537    72315.303    28794.463    15015.370       25.108        5.806      621.109      124.080        0.040      338.377       10.983      854.761
12/02/2013  19:40:00     -610.671     -199.942      -34.435      306.622      263.741      108.600    94017.137    69559.282    11794.049       29.469        8.769      642.570      135.910        0.045      338.319       10.887      854.750
12/02/2013  19:41:00     -635.069     -152.373      -18.125      334.284      239.770      117.445   111745.779    57489.845    13793.229       30.491        9.151      653.093      138.219        0.045      338.337       10.917      854.789
12/02/2013  19:42:00     -487.092      -25.027      -15.997      282.188      185.206      105.425    79630.155    34301.142    11114.423       18.157        6.252      487.734      107.864        0.049      338.327       10.900      854.773
12/02/2013  19:43:00     -480.823     -295.473       -8.627      328.297      249.841      132.524   107778.916    62420.513    17562.558       25.313        9.388      564.354      156.914        0.077      338.317       10.883      854.786
12/02/2013  19:44:00     -396.962     -215.171       -9.272      258.615      211.324      119.351    66881.588    44657.739    14244.759       16.485        6.289      451.528       88.186        0.038      338.288       10.834      854.862
12/02/2013  19:45:00     -661.331     -240.269      -33.082      411.697      280.213      145.646   169494.441    78519.207    21212.745       38.265       13.461      703.625      157.971        0.050      338.271       10.806      854.822
12/02/2013  19:46:00     -723.300     -267.769      -23.648      344.111      315.521      116.920   118412.245    99553.655    13670.376       41.348       11.582      771.273      139.555        0.033      338.296       10.848      854.873
12/02/2013  19:47:00     -438.943      -81.815       -0.737      331.275      208.252      126.553   109743.092    43368.859    16015.682       18.421        8.456      446.502      148.110        0.110      338.278       10.820      854.881
12/02/2013  19:48:00     -452.863     -139.504       -0.860      277.571      176.649      114.459    77045.622    31204.913    13100.840       17.292        6.068      473.863      115.931        0.060      338.253       10.777      854.906
12/02/2013  19:49:00     -553.177     -196.832      -16.405      254.876      234.705      127.848    64961.597    55086.228    16345.145       24.068        6.820      587.152      123.100        0.044      338.258       10.785      854.879
12/02/2013  19:50:00     -413.585     -144.652       -3.615      258.868      236.499      124.501    67012.690    55931.989    15500.558       16.519        6.922      438.151      150.202        0.118      338.277       10.817      854.907
12/02/2013  19:51:00     -480.355     -217.796      -19.070      322.882      297.487      132.484   104253.085    88498.611    17552.011       24.438       10.515      527.424      149.558        0.080      338.253       10.776      854.891
12/02/2013  19:52:00     -523.196     -210.282      -31.610      282.465      256.261      111.854    79786.576    65669.649    12511.216       23.843        7.898      563.873      116.128        0.042      338.234       10.743      854.835
12/02/2013  19:53:00     -593.213     -176.793      -23.768      416.521      286.161      152.940   173489.595    81888.175    23390.784       33.119       13.938      618.997      197.327        0.102      338.231       10.738      854.826
12/02/2013  19:54:00     -517.309     -275.984      -16.902      314.395      273.997      158.997    98844.127    75074.230    25279.967       27.159        9.960      586.324      170.052        0.084      338.200       10.686      854.834
12/02/2013  19:55:00     -480.982     -163.231      -12.807      340.773      223.197      124.792   116126.185    49816.790    15572.932       21.980        9.076      507.925      167.803        0.109      338.180       10.652      854.861
12/02/2013  19:56:00     -469.798     -247.256      -13.293      257.773      235.239      122.194    66446.981    55337.260    14931.374       20.934        6.836      530.891      138.247        0.068      338.188       10.666      854.835
12/02/2013  19:57:00     -548.618     -270.331      -16.244      284.244      247.110      127.022    80794.896    61063.326    16134.660       26.613        7.900      611.605      121.513        0.039      338.210       10.704      854.780
12/02/2013  19:58:00     -375.530     -103.031       23.137      274.749      218.494      145.385    75486.768    47739.576    21136.695       14.824        7.218      389.407      164.124        0.178      338.195       10.678      854.832
12/02/2013  19:59:00     -743.771     -193.537      -35.800      269.507      244.137      141.064    72633.969    59602.779    19899.035       37.200        7.607      768.539      145.693        0.036      338.222       10.723      854.866
12/02/2013  20:00:00     -792.035     -127.823      -60.786      341.021      263.239      139.751   116295.390    69294.725    19530.347       42.620       10.256      802.283      162.147        0.041      338.296       10.849      854.874
12/02/2013  20:01:00     -771.114     -145.266      -51.867      374.118      198.663      128.125   139963.963    39466.885    16415.989       40.709        9.792      784.678      157.419        0.040      338.260       10.787      854.896
12/02/2013  20:02:00     -564.609     -148.349      -41.500      292.344      205.570      123.584    85464.927    42259.005    15273.022       24.273        7.150      583.773      146.651        0.063      338.244       10.760      854.945
12/02/2013  20:03:00     -695.937     -126.892      -55.258      321.718      192.283      113.911   103502.222    36972.791    12975.802       32.844        7.673      707.411      153.228        0.047      338.242       10.758      854.953
12/02/2013  20:04:00     -625.482     -143.032      -30.559      337.407      259.102      130.205   113843.644    67134.079    16953.213       30.524        9.897      641.628      153.096        0.057      338.238       10.751      854.929
12/02/2013  20:05:00     -478.697      -87.746      -22.411      314.352      170.467      109.107    98817.323    29059.148    11904.274       18.854        6.989      486.673      124.781        0.066      338.222       10.723      854.960
12/02/2013  20:06:00     -652.595     -113.559      -29.693      335.955      268.257      113.906   112865.610    71961.731    12974.499       31.869        9.890      662.401      145.630        0.048      338.168       10.633      855.011
12/02/2013  20:07:00     -526.634     -116.062        5.891      370.472      270.191      122.408   137249.652    73003.422    14983.763       25.800       11.262      539.271      148.809        0.076      338.154       10.608      854.958
12/02/2013  20:08:00     -559.555     -173.098      -21.864      293.363      264.849      131.964    86061.753    70144.926    17414.483       25.855        8.681      585.717      141.571        0.058      338.201       10.689      855.004
12/02/2013  20:09:00     -367.490     -238.224       -3.384      237.642      241.525      133.688    56473.650    58334.162    17872.564       16.222        6.634      437.950      147.044        0.113      338.197       10.681      854.997
12/02/2013  20:10:00     -421.507     -118.341      -20.935      213.592      208.577       91.927    45621.671    43504.374     8450.555       14.482        4.879      437.805       91.088        0.043      338.161       10.622      855.027
12/02/2013  20:11:00     -481.637     -280.220      -28.231      258.439      219.319      117.832    66790.507    48100.981    13884.491       22.001        6.439      557.223      123.635        0.049      338.168       10.633      855.057
12/02/2013  20:12:00     -562.627      -80.950      -26.118      394.455      261.973      124.727   155594.997    68629.847    15556.865       28.174       11.989      568.421      162.640        0.082      338.154       10.610      855.014
12/02/2013  20:13:00     -485.238     -352.780      -11.870      235.678      181.012      115.712    55544.067    32765.353    13389.347       23.085        5.085      599.925      116.830        0.038      338.184       10.658      855.000
12/02/2013  20:14:00     -528.303     -292.093      -22.762      230.573      237.957      117.397    53163.999    56623.645    13782.141       24.423        6.178      603.674      120.162        0.040      338.176       10.645      854.984
12/02/2013  20:15:00     -377.728     -143.970       -1.794      277.166      196.713      113.332    76821.083    38695.993    12844.111       14.586        6.418      404.235      148.188        0.134      338.129       10.567      854.992
12/02/2013  20:16:00     -454.445     -184.178       -2.149      312.763      173.642      102.712    97820.751    30151.627    10549.677       18.946        6.926      490.349      128.945        0.069      338.127       10.564      855.005
12/02/2013  20:17:00     -465.082     -145.470       -1.830      282.346      230.932      122.191    79719.268    53329.788    14930.726       19.269        7.399      487.301      136.932        0.079      338.110       10.537      855.027
12/02/2013  20:18:00     -437.275     -268.219        7.705      316.532      229.287      124.166   100192.256    52572.655    15417.225       21.566        8.409      512.983      150.929        0.087      338.150       10.603      855.013
12/02/2013  20:19:00     -516.572     -173.464        0.298      278.440      221.219      133.020    77528.986    48937.853    17694.225       22.052        7.208      544.919      122.142        0.050      338.139       10.582      855.092
12/02/2013  20:20:00     -524.008     -232.128      -15.657      370.648      246.236      114.280   137379.827    60631.951    13059.956       26.985       10.554      573.121      146.713        0.066      338.167       10.630      855.097
12/02/2013  20:21:00     -425.572     -286.102       -8.311      230.506      177.699      108.258    53133.005    31577.042    11719.799       17.971        4.821      512.802      105.637        0.042      338.187       10.663      855.100
12/02/2013  20:22:00     -474.816     -252.775      -32.275      254.489      151.474      105.093    64764.738    22944.481    11044.448       19.455        4.938      537.909      124.982        0.054      338.178       10.649      855.104
12/02/2013  20:23:00     -616.382     -315.305      -23.820      344.144      244.302      132.783   118435.172    59683.539    17631.237       33.779        9.787      692.346      164.466        0.056      338.227       10.733      855.019
12/02/2013  20:24:00     -365.012     -206.920       16.848      290.067      198.999      129.302    84138.800    39600.668    16718.935       15.837        7.023      419.582      147.055        0.123      338.253       10.776      854.996
12/02/2013  20:25:00     -389.540     -249.177      -10.463      261.659      212.989      119.467    68465.597    45364.434    14272.302       17.100        6.405      462.419      134.531        0.085      338.241       10.757      855.017
12/02/2013  20:26:00     -501.926      -85.132      -21.994      241.009      161.060       94.960    58085.551    25940.472     9017.473       17.633        4.652      509.094      109.420        0.046      338.191       10.672      855.083
12/02/2013  20:27:00     -542.342     -185.843      -10.632      229.135      190.889      108.464    52502.953    36438.567    11764.471       21.473        5.035      573.299      104.390        0.033      338.204       10.694      855.041
12/02/2013  20:28:00     -376.113     -195.271       -4.671      230.626      175.648      107.460    53188.155    30852.277    11547.605       13.758        4.779      423.783      107.332        0.064      338.162       10.621      855.039
12/02/2013  20:29:00     -502.798     -108.788      -20.954      248.338      164.801       95.058    61671.900    27159.492     9035.947       18.145        4.893      514.433      116.651        0.051      338.073       10.475      855.009
12/02/2013  20:30:00     -374.196      -93.539        2.464      237.360      157.808       93.555    56339.607    24903.513     8752.593       11.937        4.500      385.710      115.203        0.089      338.047       10.431      854.960
12/02/2013  20:31:00     -451.131     -221.969      -32.977      187.486      145.598       92.565    35151.086    21198.801     8568.294       15.938        3.246      502.782       93.744        0.035      338.050       10.435      854.962
12/02/2013  20:32:00     -341.419     -109.923       -4.802      221.404      186.844       99.724    49019.892    34910.779     9944.813       11.126        4.694      358.678       98.927        0.076      338.026       10.394      854.932
12/02/2013  20:33:00     -551.359     -104.835      -26.504      205.030      193.188       97.553    42037.384    37321.454     9516.535       20.226        4.444      561.237      101.970        0.033      338.038       10.413      854.913
12/02/2013  20:34:00     -295.728     -143.629        1.379      311.693      163.056      106.259    97152.811    26587.156    11291.005       12.153        6.752      328.762      117.865        0.129      338.079       10.483      854.888
12/02/2013  20:35:00     -525.642     -230.968      -11.969      256.430      188.053      104.879    65756.594    35363.868    10999.566       22.093        5.606      574.148      122.785        0.046      338.141       10.587      854.904
12/02/2013  20:36:00     -414.144     -185.437       -6.038      265.903      188.967      118.536    70704.185    35708.438    14050.856       16.318        6.023      453.764      139.357        0.094      338.139       10.583      854.889
12/02/2013  20:37:00     -354.971     -146.156       -0.648      278.157      197.765      105.912    77371.184    39111.000    11217.350       13.751        6.385      383.883      136.080        0.126      338.132       10.572      854.926
12/02/2013  20:38:00     -574.928     -336.450      -27.388      294.672      213.893      118.626    86831.718    45750.383    14072.143       29.554        7.333      666.139      129.339        0.038      338.175       10.644      854.908
12/02/2013  20:39:00     -640.341     -214.575      -26.301      257.123      250.499      118.189    66112.315    62749.986    13968.716       29.977        7.142      675.337      122.737        0.033      338.160       10.618      854.934
12/02/2013  20:40:00     -568.186     -161.895      -29.007      276.102      181.221      105.430    76232.305    32841.219    11115.476       23.501        6.009      590.800      120.214        0.041      338.174       10.642      854.949
12/02/2013  20:41:00     -269.936     -214.018        5.278      254.699      205.187      120.269    64871.766    42101.827    14464.543       12.004        6.072      344.484      135.430        0.155      338.142       10.588      854.927
12/02/2013  20:42:00     -575.629     -100.917      -29.553      244.832      211.850       99.087    59942.482    44880.514     9818.192       22.850        5.732      584.408       83.962        0.021      338.174       10.642      854.921
12/02/2013  20:43:00     -380.483     -227.253       -2.253      252.790      207.693      111.549    63902.906    43136.299    12443.162       15.793        5.974      443.183      111.385        0.063      338.177       10.648      854.885
12/02/2013  20:44:00     -385.807     -137.889       -6.775      229.016      209.183       91.461    52448.164    43757.319     8365.039       13.622        5.229      409.708       97.618        0.057      338.229       10.736      854.923
12/02/2013  20:45:00     -385.395     -197.487        0.158      258.299      171.540      105.312    66718.296    29426.119    11090.527       14.736        5.362      433.048      118.743        0.075      338.198       10.683      854.965
12/02/2013  20:46:00     -423.931      -74.308      -18.405      233.840      190.617      107.638    54681.050    36334.739    11586.014       14.407        5.130      430.394      109.527        0.065      338.177       10.647      854.910
12/02/2013  20:47:00     -503.119     -290.019      -18.471      308.030      247.894      120.757    94882.366    61451.610    14582.244       25.421        8.546      580.724      153.712        0.070      338.162       10.623      854.909
12/02/2013  20:48:00     -485.480     -202.939      -39.232      208.495      169.792      111.489    43470.266    28829.372    12429.881       18.156        4.236      526.190      104.115        0.039      338.203       10.691      854.871
12/02/2013  20:49:00     -632.894     -207.711      -11.838      268.293      194.846      109.609    71981.154    37965.106    12014.110       28.288        6.098      666.107      126.846        0.036      338.219       10.720      854.830
12/02/2013  20:50:00     -401.536     -224.338       -1.874      251.853      162.968      111.216    63429.952    26558.491    12369.007       15.694        5.118      459.955      135.017        0.086      338.185       10.659      854.865
12/02/2013  20:51:00     -319.434      -80.766       11.483      240.587      167.585       91.320    57882.055    28084.896     8339.425       10.148        4.715      329.486      107.119        0.106      338.192       10.673      854.839
12/02/2013  20:52:00     -368.105     -171.783      -26.120      245.119      172.145      113.763    60083.412    29633.789    12941.998       13.416        5.133      406.214      132.805        0.107      338.213       10.709      854.858
12/02/2013  20:53:00     -348.293     -168.112       -8.858      236.744      207.397      130.794    56047.874    43013.468    17107.064       13.288        5.808      386.743      135.260        0.122      338.197       10.680      854.842
12/02/2013  20:54:00     -306.428      -65.362        0.006      161.307      134.059       76.385    26020.102    17971.719     5834.608        7.399        2.491      313.321       81.093        0.067      338.145       10.595      854.934
12/02/2013  20:55:00     -266.868     -102.525       -9.808      177.174      124.662       73.404    31390.482    15540.734     5388.108        6.706        2.616      285.884       85.531        0.090      338.122       10.556      854.920
12/02/2013  20:56:00     -278.301      -34.022       13.209      208.592      150.741       95.124    43510.677    22722.853     9048.580        7.702        3.764      280.373      105.387        0.141      338.094       10.507      854.915
12/02/2013  20:57:00     -419.420     -153.965      -20.748      189.528      168.984       82.907    35920.718    28555.554     6873.637       13.568        3.567      446.786       86.859        0.038      338.061       10.453      854.961
12/02/2013  20:58:00     -455.658     -156.903      -10.269      219.234      191.830       97.724    48063.652    36798.793     9549.933       16.336        4.721      481.916      102.898        0.046      338.057       10.445      854.938
12/02/2013  20:59:00     -621.105     -115.675      -27.798      186.207      185.808       82.671    34673.220    34524.598     6834.414       23.796        3.802      631.785       83.836        0.018      338.036       10.411      854.928
12/02/2013  21:00:00     -415.841      -82.237       -5.619      225.493      146.639       83.825    50847.134    21502.959     7026.706       12.953        3.969      423.895       87.256        0.042      338.014       10.377      854.859
12/02/2013  21:01:00     -507.608      -74.355      -15.984      235.885      184.170       94.299    55641.781    33918.409     8892.333       18.093        4.923      513.025       98.514        0.037      338.079       10.483      854.818
12/02/2013  21:02:00     -324.256     -146.531      -13.578      177.216      208.180       93.982    31405.669    43338.944     8832.566       10.517        4.179      355.828       92.103        0.067      338.016       10.378      854.843
12/02/2013  21:03:00     -505.772     -128.165      -18.567      261.904      175.556       98.121    68593.543    30819.805     9627.792       19.079        5.452      521.759      114.519        0.048      338.059       10.450      854.835
12/02/2013  21:04:00     -449.643      -71.017      -19.160      224.314      183.219       91.941    50316.769    33569.310     8453.075       14.995        4.617      455.216      107.449        0.056      338.071       10.469      854.784
12/02/2013  21:05:00     -537.033      -18.762      -47.722      191.557      207.104      102.725    36693.943    42892.155    10552.328       19.057        4.507      537.361      101.732        0.036      338.091       10.504      854.774
12/02/2013  21:06:00     -531.360     -146.328      -25.469      256.257      205.866      110.813    65667.565    42380.876    12279.588       21.234        6.016      551.140      106.419        0.037      338.075       10.477      854.749
12/02/2013  21:07:00     -543.271     -141.446      -29.830      215.925      167.034       86.259    46623.558    27900.348     7440.573       19.899        4.098      561.383       92.494        0.027      338.035       10.411      854.723
12/02/2013  21:08:00     -426.249      -73.838       -6.687      189.405      207.488       97.610    35874.392    43051.439     9527.639       13.780        4.423      432.597       88.500        0.042      338.040       10.417      854.715
12/02/2013  21:09:00     -330.927      -40.953        5.647      228.677      163.629       99.040    52293.249    26774.349     9808.879       10.003        4.444      333.451       99.770        0.090      338.043       10.424      854.722
12/02/2013  21:10:00     -258.387     -169.688       31.239      280.999      198.252      137.722    78960.389    39303.804    18967.391       11.686        6.862      309.124      147.060        0.226      338.136       10.580      854.704
12/02/2013  21:11:00     -427.053     -152.026       -7.549      179.423      174.953       90.824    32192.738    30608.402     8248.934       13.828        3.553      453.305       87.341        0.037      338.157       10.613      854.719
12/02/2013  21:12:00     -346.384      -87.535        1.050      282.279      154.553       99.573    79681.690    23886.582     9914.833       12.054        5.674      357.273      140.370        0.154      338.172       10.640      854.752
12/02/2013  21:13:00     -609.343     -147.369      -44.291      281.553      210.745      100.870    79271.947    44413.364    10174.725       26.439        6.693      626.910      116.200        0.034      338.181       10.654      854.797
12/02/2013  21:14:00     -549.113     -122.642      -30.697      210.882      181.600       88.302    44471.174    32978.415     7797.193       20.136        4.262      562.642      103.585        0.034      338.166       10.629      854.832
12/02/2013  21:15:00     -412.492      -43.090      -15.937      226.699      154.317       80.957    51392.363    23813.587     6554.038       12.699        4.088      414.737       89.900        0.047      338.126       10.561      854.855
12/02/2013  21:16:00     -250.046        0.947        9.625      170.640      138.431       75.508    29118.104    19163.119     5701.477        5.829        2.699      250.048       71.615        0.082      338.077       10.481      854.869
12/02/2013  21:17:00     -449.881      -55.011      -23.265      211.809      186.497       83.920    44863.077    34781.067     7042.593       14.631        4.334      453.232       71.268        0.025      338.059       10.450      854.854
12/02/2013  21:18:00     -333.240     -159.324       11.151      232.154      209.595       98.568    53895.432    43930.130     9715.561       12.203        5.377      369.369      103.070        0.078      338.128       10.565      854.773
12/02/2013  21:19:00     -287.423     -166.112       -9.556      154.389      159.786       88.292    23835.999    25531.607     7795.466        8.372        2.858      331.972       78.301        0.056      338.137       10.580      854.782
12/02/2013  21:20:00     -281.458      -59.991        1.601      165.294      173.411       85.005    27321.999    30071.322     7225.777        7.371        3.231      287.780       90.155        0.098      338.102       10.522      854.782
12/02/2013  21:21:00     -329.979      -62.216        0.734      194.069      131.845       75.723    37662.685    17383.009     5733.904        8.676        3.039      335.794       80.959        0.058      338.048       10.431      854.816
12/02/2013  21:22:00     -396.635      -57.746      -20.504      160.280      139.401       67.029    25689.677    19432.668     4492.889       10.533        2.481      400.817       70.854        0.031      338.040       10.418      854.841
12/02/2013  21:23:00     -489.763     -259.424      -34.827      181.978      160.673       89.810    33115.889    25815.866     8065.907       18.768        3.350      554.228       81.270        0.022      338.084       10.493      854.811
12/02/2013  21:24:00     -236.924     -103.043       -0.741      178.447      138.409       82.574    31843.294    19156.983     6818.521        6.227        2.891      258.362       96.139        0.138      338.038       10.417      854.814
12/02/2013  21:25:00     -400.978      -97.236       -7.333      193.443      160.739       84.474    37420.344    25836.962     7135.829       12.033        3.520      412.599       92.116        0.050      338.026       10.395      854.836
12/02/2013  21:26:00     -230.626      -80.577        3.075      190.943      153.911       92.038    36459.073    23688.499     8470.974        6.414        3.431      244.297      105.901        0.188      338.051       10.439      854.775
12/02/2013  21:27:00     -201.488      -96.446        2.747      237.476      155.515       75.649    56394.668    24184.997     5722.703        6.809        4.315      223.381       92.008        0.170      338.062       10.456      854.749
12/02/2013  21:28:00     -265.900     -185.365       16.776      204.671      171.749      105.572    41890.290    29497.861    11145.539        9.392        4.127      324.135      115.258        0.126      338.062       10.456      854.767
12/02/2013  21:29:00     -436.557     -245.919      -23.926      256.367      201.664       94.079    65724.097    40668.473     8850.933       18.341        5.762      501.057      116.614        0.054      338.138       10.582      854.737
12/02/2013  21:30:00     -412.193     -255.348      -16.437      221.101      161.749       93.208    48885.674    26162.679     8687.684       15.954        4.187      484.877      113.098        0.054      338.129       10.568      854.753
12/02/2013  21:31:00     -395.053     -179.032      -11.510      309.560      198.720      115.614    95827.641    39489.794    13366.621       16.844        7.434      433.727      124.232        0.082      338.163       10.624      854.705
12/02/2013  21:32:00     -349.283     -111.811       -4.879      211.028      165.451       92.362    44533.005    27374.017     8530.800       10.746        4.022      366.742      103.473        0.080      338.142       10.589      854.728
12/02/2013  21:33:00     -279.664     -208.059        4.263      223.738      184.098      118.673    50058.915    33891.961    14083.189       10.976        4.902      348.569      135.469        0.151      338.134       10.574      854.729
12/02/2013  21:34:00     -347.650     -178.192        6.019      193.828      178.586       96.056    37569.174    31892.943     9226.769       11.565        3.934      390.657      106.396        0.074      338.120       10.552      854.763
12/02/2013  21:35:00     -272.616      -78.894        2.395      189.762      150.100       83.900    36009.606    22530.030     7039.199        7.305        3.279      283.803       87.437        0.095      338.089       10.500      854.801
12/02/2013  21:36:00     -520.155     -189.182        6.237      313.345      154.578      100.110    98185.123    23894.512    10022.086       21.922        6.605      553.490      122.051        0.049      338.098       10.515      854.787
12/02/2013  21:37:00     -464.099     -216.694      -23.592      246.331      241.133      110.121    60679.075    58145.133    12126.643       19.690        6.548      512.196      130.237        0.065      338.106       10.529      854.766
12/02/2013  21:38:00     -608.580     -349.014      -11.643      306.548      231.645      110.968    93971.734    53659.341    12313.907       32.610        7.997      701.556      121.911        0.030      338.125       10.559      854.721
12/02/2013  21:39:00     -441.081      -51.924      -19.692      173.659      143.171       77.906    30157.338    20497.960     6069.378       12.717        2.836      444.127       82.343        0.034      338.088       10.499      854.794
12/02/2013  21:40:00     -449.162     -125.366        2.403      282.312      225.566      103.215    79699.861    50880.159    10653.346       17.932        7.062      466.329      130.035        0.078      338.092       10.505      854.744
12/02/2013  21:41:00     -445.541      -73.063      -12.164      236.843      133.975      106.156    56094.396    17949.292    11268.994       14.464        4.266      451.492      132.356        0.086      338.110       10.535      854.694
12/02/2013  21:42:00     -290.707     -163.216       -3.711      213.916      138.674       86.265    45759.875    19230.514     7441.603        9.178        3.622      333.391      101.112        0.092      338.082       10.489      854.702
12/02/2013  21:43:00     -489.015     -111.310      -14.573      265.386      216.648       94.728    70429.537    46936.469     8973.456       18.901        6.317      501.524      102.663        0.042      338.087       10.498      854.746
12/02/2013  21:44:00     -531.402     -126.188      -13.268      285.224      254.299      114.133    81352.861    64667.982    13026.332       22.874        7.952      546.179      147.271        0.073      338.120       10.552      854.759
12/02/2013  21:45:00     -452.040     -331.276      -33.416      310.135      256.008      118.364    96183.709    65540.220    14009.937       24.543        8.787      560.432      141.927        0.064      338.138       10.581      854.629
12/02/2013  21:46:00     -465.265     -131.171      -13.443      213.148      228.494       98.061    45432.129    52209.651     9616.052       17.054        5.363      483.402      100.611        0.043      338.131       10.570      854.686
12/02/2013  21:47:00     -395.540     -283.940        9.432      310.395      260.696      124.832    96345.273    67962.276    15583.047       20.849        8.995      486.902      147.578        0.092      338.143       10.591      854.671
12/02/2013  21:48:00     -482.473     -291.179      -18.558      296.478      223.027      121.938    87899.395    49740.916    14868.886       23.518        7.625      563.529      119.570        0.045      338.127       10.564      854.643
12/02/2013  21:49:00     -286.038     -247.863      -15.135      192.510      165.551      103.134    37060.260    27407.187    10636.632       10.928        3.755      378.489       94.400        0.062      338.101       10.521      854.632
12/02/2013  21:50:00     -508.465     -160.054      -28.400      305.380      203.402      117.212    93256.907    41372.242    13738.582       21.663        7.418      533.061      138.915        0.068      338.088       10.499      854.587
12/02/2013  21:51:00     -567.846     -312.591      -15.665      296.129      194.252      125.526    87692.661    37733.846    15756.828       28.077        7.059      648.200      148.566        0.053      338.043       10.423      854.523
12/02/2013  21:52:00     -608.090     -374.724      -32.000      243.148      282.776      130.451    59121.075    79962.089    17017.483       33.363        7.805      714.277      132.421        0.034      338.053       10.441      854.477
12/02/2013  21:53:00     -476.405     -256.671      -13.386      226.077      169.829       93.864    51110.941    28842.016     8810.499       19.087        4.438      541.148       99.987        0.034      338.037       10.413      854.495
12/02/2013  21:54:00     -492.196     -204.859      -14.668      238.801      162.257      100.340    57025.989    26327.368    10068.072       18.891        4.671      533.127      105.061        0.039      338.021       10.386      854.506
12/02/2013  21:55:00     -569.516     -134.396      -22.719      291.621      185.900       94.201    85043.031    34558.745     8873.823       23.568        6.424      585.159      119.049        0.041      338.069       10.467      854.503
12/02/2013  21:56:00     -340.752      -77.922      -11.730      166.922      144.736       87.486    27863.050    20948.620     7653.776        8.938        2.823      349.548       84.252        0.058      338.042       10.420      854.527
12/02/2013  21:57:00     -311.283     -167.996      -29.308      200.062      145.570       98.002    40024.940    21190.643     9604.419        9.839        3.541      353.722      101.627        0.083      338.023       10.390      854.480
12/02/2013  21:58:00     -477.917      -93.136      -15.033      212.387      135.221      100.420    45108.450    18284.632    10084.100       15.538        3.674      486.907      113.421        0.054      337.986       10.329      854.471
12/02/2013  21:59:00     -269.206     -119.952       -8.501      125.623      150.296       68.778    15781.132    22588.889     4730.407        6.501        2.155      294.721       72.168        0.060      337.974       10.307      854.473
12/02/2013  22:00:00     -243.242      -68.443        2.180      136.373      115.881       66.868    18597.515    13428.336     4471.380        5.017        1.825      252.687       62.480        0.061      337.970       10.303      854.481
12/02/2013  22:01:00     -237.934     -106.785       -3.570      150.294      131.974       77.412    22588.431    17417.050     5992.599        5.700        2.300      260.798       79.950        0.094      337.969       10.300      854.475
12/02/2013  22:02:00     -351.281      -64.888      -17.565      195.777      135.802       91.248    38328.565    18442.295     8326.233        9.649        3.255      357.224       94.444        0.070      337.952       10.271      854.471
12/02/2013  22:03:00     -372.608      -14.070       -6.017      186.057      167.744       85.458    34617.306    28138.179     7303.099       10.455        3.503      372.873       83.439        0.050      337.940       10.251      854.467
12/02/2013  22:04:00     -428.084        0.941      -20.777      198.365      132.707       85.637    39348.772    17611.140     7333.690       12.398        3.215      428.085      108.429        0.064      337.932       10.237      854.503
12/02/2013  22:05:00     -506.643      -86.819      -22.636      212.242      134.968       87.702    45046.603    18216.414     7691.697       16.783        3.548      514.028       88.737        0.030      337.929       10.231      854.505
12/02/2013  22:06:00     -356.476      -12.406       -7.890      183.787      133.139       80.340    33777.490    17725.875     6454.579        9.261        2.898      356.692       89.602        0.063      337.903       10.184      854.488
12/02/2013  22:07:00     -483.074     -214.715      -12.778      224.644      176.634      106.136    50465.022    31199.637    11264.791       18.626        4.646      528.643       89.490        0.029      337.910       10.200      854.483
12/02/2013  22:08:00     -516.206     -112.296      -25.662      153.157      167.876       90.713    23457.044    28182.466     8228.831       16.979        2.993      528.279       85.878        0.026      337.907       10.193      854.502
12/02/2013  22:09:00     -376.622     -168.324       -3.844      233.017      204.200       96.821    54296.919    41697.641     9374.343       13.776        5.268      412.525      110.015        0.071      337.909       10.198      854.468
12/02/2013  22:10:00     -506.517     -157.734      -14.952      191.219      234.325      105.147    36564.743    54908.392    11055.976       19.208        5.126      530.508      108.763        0.042      337.916       10.211      854.471
12/02/2013  22:11:00     -518.557      -52.708      -15.910      269.895      203.381      112.548    72843.239    41363.694    12667.058       19.938        6.344      521.229      129.888        0.062      337.889       10.162      854.472
12/02/2013  22:12:00     -511.586     -242.131      -18.558      258.041      193.719      111.709    66585.113    37526.978    12478.935       21.862        5.830      565.993      113.839        0.040      337.869       10.130      854.475
12/02/2013  22:13:00     -621.071     -201.971       -9.479      205.691      210.675      100.059    42308.905    44383.880    10011.822       26.164        4.835      653.086      100.225        0.024      337.864       10.123      854.469
12/02/2013  22:14:00     -475.531     -195.150       -9.992      210.817      157.607       94.985    44443.720    24839.988     9022.087       17.129        3.915      514.016      107.953        0.044      337.845       10.091      854.492
12/02/2013  22:15:00     -596.517     -123.993      -28.834      244.688      190.081      106.236    59872.283    36130.785    11286.193       23.964        5.364      609.267      109.193        0.032      337.827       10.061      854.527
12/02/2013  22:16:00     -571.708      -56.779      -11.965      365.885      208.902      109.124   133871.871    43640.053    11908.055       25.978        9.471      574.521      137.605        0.057      337.820       10.048      854.526
12/02/2013  22:17:00     -665.714     -235.897      -30.169      302.554      227.647      120.590    91539.192    51823.256    14541.855       32.879        7.895      706.274      151.186        0.046      337.813       10.038      854.488
12/02/2013  22:18:00     -607.363     -194.445      -43.133      275.459      253.467      120.003    75877.789    64245.403    14400.795       28.151        7.726      637.729      130.340        0.042      337.807       10.028      854.511
12/02/2013  22:19:00     -565.739     -115.460      -43.747      256.415      210.710      110.038    65748.765    44398.793    12108.374       22.876        6.113      577.401      120.878        0.044      337.812       10.034      854.570
12/02/2013  22:20:00     -593.455     -108.020       -5.907      313.901      215.168      127.354    98533.953    46297.317    16219.018       26.244        8.053      603.205      150.801        0.062      337.776        9.976      854.559
12/02/2013  22:21:00     -676.166      -68.578      -14.039      286.676      179.357      112.417    82183.296    32169.035    12637.631       29.452        6.349      679.635      135.180        0.040      337.717        9.878      854.514
12/02/2013  22:22:00     -586.036     -115.479       -4.649      334.564      224.861      122.230   111932.770    50562.670    14940.106       26.708        8.872      597.305      156.390        0.069      337.721        9.882      854.433
12/02/2013  22:23:00     -435.723      -18.615      -12.189      288.389      215.622      125.600    83168.145    46492.981    15775.362       16.786        7.272      436.120      148.158        0.115      337.707        9.860      854.399
12/02/2013  22:24:00     -412.920      -93.960       14.227      290.668      203.790      126.274    84487.995    41530.484    15945.040       16.072        7.098      423.475      139.579        0.109      337.696        9.841      854.380
12/02/2013  22:25:00     -477.445     -174.364      -15.037      250.866      249.037       97.551    62933.666    62019.558     9516.257       19.650        6.723      508.288       95.048        0.035      337.663        9.788      854.372
12/02/2013  22:26:00     -498.245      -41.945      -27.369      247.530      189.562       94.296    61270.911    35933.686     8891.690       17.841        5.305      500.007      110.397        0.049      337.615        9.706      854.377
12/02/2013  22:27:00     -729.653     -204.982      -19.392      301.800      199.572       97.371    91083.431    39829.173     9481.158       35.756        7.020      757.899      129.824        0.029      337.607        9.693      854.334
12/02/2013  22:28:00     -523.990     -235.186       13.312      327.753      277.237      155.031   107421.894    76860.413    24034.763       26.914       10.416      574.350      169.632        0.087      337.630        9.731      854.261
12/02/2013  22:29:00     -394.203      -55.127       -5.607      208.418      165.888       86.873    43437.890    27518.887     7546.993       11.847        3.925      398.039       94.155        0.056      337.603        9.685      854.280
12/02/2013  22:30:00     -568.565      -68.536       -3.393      302.964      193.792      111.717    91787.113    37555.501    12480.622       23.487        7.091      572.681      131.797        0.053      337.592        9.667      854.290
12/02/2013  22:31:00     -484.197      -46.284      -19.429      254.768      145.199      112.277    64906.916    21082.644    12606.205       16.776        4.930      486.404      129.662        0.071      337.583        9.650      854.258
12/02/2013  22:32:00     -392.447      -78.078       -4.414      280.617      199.468      108.766    78745.641    39787.657    11830.113       14.522        6.518      400.139      117.442        0.086      337.594        9.671      854.230
12/02/2013  22:33:00     -662.048     -115.992      -15.557      244.333      173.356      102.870    59698.483    30052.457    10582.325       27.615        5.017      672.132      107.893        0.026      337.593        9.668      854.211
12/02/2013  22:34:00     -573.004     -108.561      -27.779      264.734      180.374      104.945    70083.831    32534.945    11013.474       22.724        5.682      583.197      128.238        0.048      337.589        9.661      854.176
12/02/2013  22:35:00     -651.538      -55.376      -49.097      227.815      174.827       96.549    51899.655    30564.523     9321.617       26.086        4.589      653.887      106.323        0.026      337.553        9.600      854.167
12/02/2013  22:36:00     -273.189     -126.149        1.010      196.532      185.364      101.512    38625.022    34359.654    10304.644        8.690        4.164      300.908      108.097        0.129      337.540        9.578      854.122
12/02/2013  22:37:00     -337.047     -123.629       -3.994      230.658      151.685       94.575    53203.197    23008.258     8944.394       10.701        4.258      359.005      112.941        0.099      337.530        9.563      854.099
12/02/2013  22:38:00     -334.925     -106.900       -1.040      249.584      225.740      102.188    62292.216    50958.550    10442.315       12.362        6.185      351.572      129.739        0.136      337.531        9.562      854.091
12/02/2013  22:39:00     -666.521     -121.947      -31.194      191.632      196.539      111.044    36722.854    38627.466    12330.872       27.387        4.384      677.584      103.636        0.023      337.551        9.597      854.041
12/02/2013  22:40:00     -573.614     -253.152      -31.072      330.633      328.065      140.416   109318.054   107626.339    19716.669       31.533       11.833      626.992      138.536        0.049      337.625        9.723      853.971
12/02/2013  22:41:00     -339.790     -253.182       12.254      291.075      252.527      119.820    84724.655    63769.947    14356.784       17.125        8.143      423.743      137.277        0.105      337.614        9.705      853.972
12/02/2013  22:42:00     -264.387      -99.410       20.334      193.079      191.189      107.150    37279.555    36553.076    11481.128        8.274        4.266      282.459      121.765        0.186      337.587        9.658      853.987
12/02/2013  22:43:00     -485.256     -175.232       -4.513      340.720      214.649      114.594   116090.008    46074.373    13131.878       22.071        8.765      515.926      141.825        0.076      337.551        9.596      853.998
12/02/2013  22:44:00     -379.784     -111.336       -8.302      230.450      188.157      100.378    53107.148    35403.225    10075.644       12.762        4.929      395.767      121.802        0.095      337.550        9.595      854.020
12/02/2013  22:45:00     -316.795     -189.330      -11.790      179.205      161.772       91.991    32114.438    26170.164     8462.293       10.153        3.337      369.060       83.346        0.051      337.547        9.590      853.983
12/02/2013  22:46:00     -281.258     -111.791        6.662      199.756      141.506       87.834    39902.443    20023.903     7714.751        7.963        3.382      302.660       96.910        0.103      337.558        9.610      853.923
12/02/2013  22:47:00     -390.787     -204.655       -5.748      179.267      166.259       91.127    32136.775    27641.939     8304.208       13.134        3.404      441.133       72.904        0.027      337.550        9.594      853.947
12/02/2013  22:48:00     -508.334     -169.057      -26.826      294.005      217.025      105.722    86438.904    47099.747    11177.081       21.618        7.236      535.709      134.568        0.063      337.560        9.613      853.956
12/02/2013  22:49:00     -448.948        7.564      -10.430      173.693      187.545       88.184    30169.093    35173.034     7776.369       13.740        3.656      449.012       77.741        0.030      337.565        9.620      853.911
12/02/2013  22:50:00     -457.844      -48.698       -3.786      271.558      248.081       98.915    73743.942    61544.126     9784.147       17.851        7.254      460.426      112.234        0.059      337.598        9.677      853.898
12/02/2013  22:51:00     -447.981     -178.644        6.924      234.831      213.867      113.412    55145.701    45739.053    12862.230       17.317        5.687      482.287       95.912        0.040      337.581        9.648      853.888
12/02/2013  22:52:00     -410.076     -122.150       -1.996      210.930      181.125       97.390    44491.344    32806.265     9484.774       13.492        4.339      427.882      102.374        0.057      337.577        9.642      853.832
12/02/2013  22:53:00     -653.865     -246.566      -25.277      290.657      230.430      125.192    84481.356    53097.870    15673.100       32.108        7.663      698.809      131.860        0.036      337.587        9.658      853.811
12/02/2013  22:54:00     -521.459     -169.009      -15.090      323.681      260.536      121.755   104769.171    67879.251    14824.400       24.405        9.374      548.164      140.857        0.066      337.587        9.657      853.792
12/02/2013  22:55:00     -499.691     -286.812      -13.820      362.929      233.268      115.976   131717.133    54413.891    13450.511       26.582        9.979      576.153      142.528        0.061      337.632        9.734      853.770
12/02/2013  22:56:00     -687.051     -303.873      -42.418      269.432      230.131      132.240    72593.517    52960.093    17487.362       35.458        7.152      751.251      146.009        0.038      337.605        9.688      853.792
12/02/2013  22:57:00     -601.638     -319.353      -35.945      271.872      227.837      105.881    73914.514    51909.473    11210.695       30.111        6.852      681.142       92.763        0.019      337.603        9.684      853.821
12/02/2013  22:58:00     -635.855     -251.412      -22.375      332.112      294.010      144.150   110298.167    86441.843    20779.332       34.273       10.876      683.754      165.521        0.059      337.622        9.718      853.722
12/02/2013  22:59:00     -595.636     -379.059      -14.868      344.101      223.395      139.448   118405.455    49905.316    19445.630       34.318        9.388      706.022      143.384        0.041      337.646        9.759      853.754
12/02/2013  23:00:00     -430.312     -275.848      -20.824      280.416      203.025      117.987    78633.312    41219.037    13920.967       19.771        6.689      511.136      122.947        0.058      337.643        9.754      853.706
12/02/2013  23:01:00     -269.635     -115.798       14.470      202.984      171.325      100.770    41202.703    29352.332    10154.557        8.350        4.035      293.449      108.285        0.136      337.593        9.669      853.692
12/02/2013  23:02:00     -376.992     -174.292      -19.735      275.700      205.385      123.791    76010.626    42183.170    15324.115       15.318        6.676      415.332      125.704        0.092      337.566        9.623      853.656
12/02/2013  23:03:00     -441.249     -223.610       12.843      283.231      243.032      146.979    80219.856    59064.696    21602.939       20.285        8.044      494.673      158.382        0.103      337.569        9.628      853.636
12/02/2013  23:04:00     -285.104     -119.595       22.940      241.837      167.209      105.091    58485.105    27958.765    11044.071        9.678        4.874      309.172      129.287        0.175      337.584        9.654      853.673
12/02/2013  23:05:00     -457.592     -259.992      -33.177      298.163      194.623      126.966    88901.220    37878.123    16120.331       21.046        7.145      526.295      132.942        0.064      337.585        9.657      853.703
12/02/2013  23:06:00     -553.949     -122.769      -26.140      309.990      216.800      123.686    96093.619    47002.384    15298.200       24.047        7.920      567.391      145.464        0.066      337.567        9.625      853.727
12/02/2013  23:07:00     -677.309     -147.827      -32.904      279.790      277.504      102.912    78282.387    77008.584    10590.918       32.375        8.294      693.253      119.058        0.029      337.569        9.627      853.776
12/02/2013  23:08:00     -650.864     -120.150      -21.446      314.317      228.356      127.925    98795.414    52146.654    16364.842       30.288        8.365      661.861      152.083        0.053      337.596        9.673      853.745
12/02/2013  23:09:00     -698.453     -116.521      -11.840      358.071      237.857      138.254   128214.602    56575.863    19114.178       35.269       10.195      708.106      150.334        0.045      337.589        9.663      853.768
12/02/2013  23:10:00     -385.910     -171.807       20.175      351.110      221.903      123.919   123278.275    49240.889    15355.933       18.333        9.394      422.427      140.892        0.111      337.592        9.667      853.824
12/02/2013  23:11:00     -266.487      -64.453       16.011      300.488      193.663      132.127    90293.294    37505.284    17457.499       11.031        7.263      274.171      155.471        0.322      337.601        9.683      853.825
12/02/2013  23:12:00     -713.218     -154.432      -21.996      251.995      208.383      118.435    63501.654    43423.424    14026.922       32.696        6.048      729.746      133.041        0.033      337.574        9.634      853.833
12/02/2013  23:13:00     -520.438      -74.545      -35.454      276.291      169.958      103.916    76336.906    28885.647    10798.540       19.682        5.801      525.749      131.741        0.063      337.563        9.617      853.844
12/02/2013  23:14:00     -391.856      -99.794       -9.535      232.741      182.162       91.242    54168.435    33183.133     8325.061       12.962        4.784      404.364       89.668        0.049      337.572        9.633      853.861
12/02/2013  23:15:00     -634.665     -208.481      -18.097      284.529      208.422      103.136    80956.528    43439.644    10636.962       29.079        6.752      668.030      109.267        0.027      337.585        9.655      853.837
12/02/2013  23:16:00     -390.373      -95.206       -2.512      227.225      170.421       90.186    51630.987    29043.220     8133.544       12.512        4.440      401.815       97.216        0.059      337.579        9.645      853.828
12/02/2013  23:17:00     -361.990     -239.808       -2.404      237.029      217.968      116.200    56182.695    47510.146    13502.540       15.285        5.860      434.217      123.176        0.080      337.602        9.685      853.863
12/02/2013  23:18:00     -381.631     -211.700       -5.057      233.115      197.153      111.799    54342.797    38869.416    12498.969       14.808        5.286      436.416      114.713        0.069      337.570        9.631      853.849
12/02/2013  23:19:00     -392.482     -184.681      -21.931      246.463      178.873      100.195    60743.976    31995.538    10039.069       14.568        5.139      433.762       93.941        0.047      337.568        9.627      853.846
12/02/2013  23:20:00     -357.006     -197.502        3.510      250.682      178.220       97.384    62841.288    31762.328     9483.734       13.526        5.204      407.996      103.502        0.064      337.566        9.622      853.859
12/02/2013  23:21:00     -482.894     -188.980      -15.476      271.086      161.623       95.905    73487.454    26121.969     9197.804       18.895        5.440      518.555      110.842        0.046      337.561        9.615      853.849
12/02/2013  23:22:00     -289.410     -102.074       -0.350      218.746      169.334      106.129    47849.771    28674.117    11263.433        9.096        4.389      306.883      116.203        0.143      337.556        9.605      853.869
12/02/2013  23:23:00     -627.165     -172.227      -46.459      267.906      253.346      117.628    71773.848    64184.268    13836.321       28.745        7.490      650.383      123.634        0.036      337.595        9.671      853.832
12/02/2013  23:24:00     -562.534     -102.363       -3.860      315.200      194.092       98.915    99351.055    37671.702     9784.236       23.684        7.340      571.772      125.970        0.049      337.614        9.703      853.761
12/02/2013  23:25:00     -756.255      -48.660      -53.328      296.598      222.514      102.810    87970.615    49512.375    10569.904       36.256        7.403      757.819      100.866        0.018      337.656        9.774      853.742
12/02/2013  23:26:00     -594.104     -157.102      -33.135      298.533      259.446      118.857    89121.789    67312.248    14126.975       27.462        8.528      614.525      133.942        0.048      337.635        9.740      853.759
12/02/2013  23:27:00     -612.950     -178.854      -43.383      298.765      241.331      114.993    89260.341    58240.521    13223.418       28.512        8.036      638.511      121.383        0.036      337.600        9.681      853.761
12/02/2013  23:28:00     -526.156      -51.626      -20.247      229.962      143.086       88.189    52882.532    20473.666     7777.281       18.051        4.057      528.682       90.375        0.029      337.589        9.662      853.705
12/02/2013  23:29:00     -397.931     -146.911        0.610      302.189      209.636      123.132    91318.485    43947.105    15161.525       16.515        7.521      424.184      137.805        0.106      337.612        9.701      853.681
12/02/2013  23:30:00     -471.502      -29.675      -22.614      246.196      189.559       98.958    60612.343    35932.510     9792.604       16.500        5.317      472.435      111.992        0.056      337.633        9.736      853.630
12/02/2013  23:31:00     -590.520     -235.047      -17.395      278.492      293.139      125.768    77557.588    85930.710    15817.572       29.175        8.965      635.579      130.817        0.042      337.618        9.711      853.590
12/02/2013  23:32:00     -309.856     -219.549       -6.264      246.683      223.356      112.850    60852.426    49887.980    12735.104       13.384        6.174      379.753      135.550        0.127      337.673        9.805      853.562
12/02/2013  23:33:00     -541.158     -163.919      -27.342      344.120      227.830      137.214   118418.863    51906.705    18827.789       25.477        9.458      565.439      154.617        0.075      337.635        9.740      853.563
12/02/2013  23:34:00     -636.267     -279.303      -20.044      284.633      244.002      128.147    81016.050    59536.862    16421.641       32.008        7.849      694.871      145.606        0.044      337.613        9.701      853.511
12/02/2013  23:35:00     -437.094     -216.179        8.354      292.837      198.643      136.832    85753.221    39458.926    18722.931       19.087        7.197      487.632      145.346        0.089      337.608        9.693      853.457
12/02/2013  23:36:00     -459.525     -243.395       -1.061      291.801      230.725      129.510    85147.911    53233.989    16772.895       21.275        7.758      520.004      155.516        0.089      337.632        9.733      853.435
12/02/2013  23:37:00     -550.689     -223.339      -11.053      254.779      189.846      121.253    64912.222    36041.510    14702.380       23.444        5.783      594.255      132.475        0.050      337.598        9.678      853.424
12/02/2013  23:38:00     -398.763     -276.953       11.439      284.383      262.542      145.508    80873.436    68928.458    21172.486       20.338        8.549      485.505      172.337        0.126      337.585        9.655      853.385
12/02/2013  23:39:00     -433.558     -106.197      -26.975      242.296      157.261       72.549    58707.202    24731.041     5263.340       14.432        4.435      446.374       85.972        0.037      337.535        9.572      853.422
12/02/2013  23:40:00     -373.702     -205.969       -3.503      252.456      201.036      123.648    63734.245    40415.549    15288.827       15.074        5.972      426.704      142.778        0.112      337.490        9.496      853.425
12/02/2013  23:41:00     -285.808     -170.342       10.372      260.934      165.264      107.953    68086.532    27312.216    11653.913       10.891        5.353      332.720      143.544        0.186      337.480        9.478      853.406
12/02/2013  23:42:00     -442.216     -257.585       -6.678      265.911      219.495      122.420    70708.704    48178.204    14986.557       19.788        6.694      511.767      135.604        0.070      337.447        9.423      853.357
12/02/2013  23:43:00     -549.399     -308.172       -8.335      303.037      197.384      139.383    91831.591    38960.343    19427.500       27.352        7.511      629.928      153.406        0.059      337.444        9.418      853.295
12/02/2013  23:44:00     -447.565     -178.146      -23.214      253.698      221.411      127.258    64362.764    49022.899    16194.565       18.106        6.479      481.716      147.722        0.094      337.403        9.349      853.264
12/02/2013  23:45:00     -507.272     -118.012       -4.804      285.357      197.270      111.016    81428.828    38915.302    12324.460       20.195        6.633      520.818      117.286        0.051      337.422        9.380      853.231
12/02/2013  23:46:00     -538.424     -211.489      -41.075      272.181      303.878      116.388    74082.746    92341.632    13546.225       25.811        8.999      578.471      134.976        0.054      337.418        9.376      853.223
12/02/2013  23:47:00     -572.994     -184.361      -16.791      288.465      289.522      133.978    83212.031    83822.911    17950.069       27.375        9.249      601.923      151.504        0.063      337.441        9.415      853.168
12/02/2013  23:48:00     -528.983     -161.324       -3.481      259.560      245.084      107.944    67371.646    60065.977    11651.936       22.245        6.954      553.036      119.242        0.046      337.436        9.405      853.180
12/02/2013  23:49:00     -680.623     -242.353      -52.897      272.850      245.291      127.330    74447.123    60167.673    16212.953       33.777        7.541      722.483      133.849        0.034      337.411        9.362      853.186
12/02/2013  23:50:00     -651.652     -222.240      -44.461      234.794      239.253      128.768    55128.429    57241.761    16581.273       30.246        6.448      688.506      109.097        0.025      337.387        9.323      853.197
12/02/2013  23:51:00     -540.144     -248.057        0.695      337.689      284.922      144.991   114033.544    81180.350    21022.420       28.472       10.812      594.380      164.450        0.077      337.389        9.327      853.174
12/02/2013  23:52:00     -491.904     -307.040      -26.115      225.341      199.439       94.150    50778.374    39776.029     8864.132       21.815        4.971      579.865      102.156        0.031      337.378        9.308      853.130
12/02/2013  23:53:00     -320.704     -141.447       14.099      285.693      224.150      101.015    81620.769    50243.158    10204.000       13.253        7.103      350.512      125.544        0.128      337.343        9.252      853.158
12/02/2013  23:54:00     -529.493     -340.316      -15.251      305.175      318.651      149.081    93131.773   101538.539    22225.175       30.661       10.845      629.426      172.868        0.075      337.334        9.235      853.083
12/02/2013  23:55:00     -477.573     -243.921      -34.502      217.822      211.929      112.404    47446.225    44914.026    12634.713       19.686        5.250      536.259      114.408        0.046      337.324        9.217      853.109
12/02/2013  23:56:00     -590.211     -322.349      -22.364      281.913      186.486      104.364    79475.146    34777.009    10891.772       28.893        6.257      672.501      117.340        0.030      337.317        9.207      853.111
12/02/2013  23:57:00     -523.476     -162.629        0.325      281.579      213.360      115.166    79286.460    45522.419    13263.187       21.925        6.904      548.156      143.012        0.068      337.279        9.144      853.123
12/02/2013  23:58:00     -512.531     -207.665      -14.281      232.041      252.538      116.983    53843.225    63775.416    13685.099       21.863        6.565      553.003      118.951        0.046      337.279        9.144      853.085
12/02/2013  23:59:00     -407.184     -173.216        4.378      319.569      203.398      126.750   102124.131    41370.805    16065.615       17.766        7.978      442.496      156.686        0.125      337.295        9.172      853.101
